<?xml version="1.0" encoding="UTF-8" standalone="no" ?>
<gpx xmlns="http://www.topografix.com/GPX/1/1" xmlns:xsi="http://www.w3.org/2001/XMLSchema-instance" xsi:schemaLocation="http://www.topografix.com/GPX/1/1 http://www.topografix.com/GPX/1/1/gpx.xsd" version="1.1" creator="VisuGPX - https://www.visugpx.com">
  <metadata>
    <name>jef26-lagardienne-2012</name>
    <desc><![CDATA[la rando de la garde adhemar 2012, parcours 44kms très ludique sans grosse diffuculté]]></desc>
  </metadata>
  <trk>
    <name><![CDATA[jef26-lagardienne2012]]></name>
    <trkseg>
      <trkpt lat="44.39441" lon="4.75524">
        <ele>185.67</ele>
        <time>2012-04-22T06:22:50Z</time>
      </trkpt>
      <trkpt lat="44.39451" lon="4.75545">
        <ele>185.67</ele>
        <time>2012-04-22T06:22:56Z</time>
      </trkpt>
      <trkpt lat="44.39462" lon="4.75568">
        <ele>185.67</ele>
        <time>2012-04-22T06:23:03Z</time>
      </trkpt>
      <trkpt lat="44.39471" lon="4.75591">
        <ele>185.67</ele>
        <time>2012-04-22T06:23:09Z</time>
      </trkpt>
      <trkpt lat="44.39482" lon="4.75613">
        <ele>185.67</ele>
        <time>2012-04-22T06:23:15Z</time>
      </trkpt>
      <trkpt lat="44.39494" lon="4.75637">
        <ele>186.15</ele>
        <time>2012-04-22T06:23:21Z</time>
      </trkpt>
      <trkpt lat="44.39507" lon="4.75658">
        <ele>186.15</ele>
        <time>2012-04-22T06:23:27Z</time>
      </trkpt>
      <trkpt lat="44.3952" lon="4.75684">
        <ele>185.67</ele>
        <time>2012-04-22T06:23:33Z</time>
      </trkpt>
      <trkpt lat="44.39531" lon="4.75708">
        <ele>186.15</ele>
        <time>2012-04-22T06:23:38Z</time>
      </trkpt>
      <trkpt lat="44.39542" lon="4.75732">
        <ele>185.67</ele>
        <time>2012-04-22T06:23:43Z</time>
      </trkpt>
      <trkpt lat="44.39552" lon="4.75756">
        <ele>186.63</ele>
        <time>2012-04-22T06:23:48Z</time>
      </trkpt>
      <trkpt lat="44.39565" lon="4.75776">
        <ele>187.11</ele>
        <time>2012-04-22T06:23:53Z</time>
      </trkpt>
      <trkpt lat="44.39584" lon="4.75784">
        <ele>188.56</ele>
        <time>2012-04-22T06:23:59Z</time>
      </trkpt>
      <trkpt lat="44.39602" lon="4.75787">
        <ele>190.48</ele>
        <time>2012-04-22T06:24:07Z</time>
      </trkpt>
      <trkpt lat="44.3962" lon="4.75793">
        <ele>191.44</ele>
        <time>2012-04-22T06:24:14Z</time>
      </trkpt>
      <trkpt lat="44.39639" lon="4.75792">
        <ele>193.36</ele>
        <time>2012-04-22T06:24:22Z</time>
      </trkpt>
      <trkpt lat="44.39657" lon="4.7579">
        <ele>196.25</ele>
        <time>2012-04-22T06:24:31Z</time>
      </trkpt>
      <trkpt lat="44.39676" lon="4.7579">
        <ele>197.69</ele>
        <time>2012-04-22T06:24:40Z</time>
      </trkpt>
      <trkpt lat="44.39697" lon="4.7579">
        <ele>199.61</ele>
        <time>2012-04-22T06:24:49Z</time>
      </trkpt>
      <trkpt lat="44.39716" lon="4.75787">
        <ele>201.05</ele>
        <time>2012-04-22T06:24:58Z</time>
      </trkpt>
      <trkpt lat="44.39734" lon="4.75783">
        <ele>203.46</ele>
        <time>2012-04-22T06:25:07Z</time>
      </trkpt>
      <trkpt lat="44.39753" lon="4.75781">
        <ele>205.38</ele>
        <time>2012-04-22T06:25:16Z</time>
      </trkpt>
      <trkpt lat="44.39771" lon="4.75777">
        <ele>207.3</ele>
        <time>2012-04-22T06:25:24Z</time>
      </trkpt>
      <trkpt lat="44.39788" lon="4.75766">
        <ele>208.26</ele>
        <time>2012-04-22T06:25:32Z</time>
      </trkpt>
      <trkpt lat="44.39805" lon="4.75755">
        <ele>209.7</ele>
        <time>2012-04-22T06:25:40Z</time>
      </trkpt>
      <trkpt lat="44.39818" lon="4.75735">
        <ele>210.19</ele>
        <time>2012-04-22T06:25:48Z</time>
      </trkpt>
      <trkpt lat="44.39828" lon="4.75715">
        <ele>211.63</ele>
        <time>2012-04-22T06:25:56Z</time>
      </trkpt>
      <trkpt lat="44.39843" lon="4.75703">
        <ele>213.07</ele>
        <time>2012-04-22T06:26:06Z</time>
      </trkpt>
      <trkpt lat="44.39858" lon="4.75719">
        <ele>212.59</ele>
        <time>2012-04-22T06:26:22Z</time>
      </trkpt>
      <trkpt lat="44.39872" lon="4.75739">
        <ele>214.03</ele>
        <time>2012-04-22T06:26:32Z</time>
      </trkpt>
      <trkpt lat="44.39888" lon="4.75756">
        <ele>214.03</ele>
        <time>2012-04-22T06:26:41Z</time>
      </trkpt>
      <trkpt lat="44.39903" lon="4.75772">
        <ele>214.51</ele>
        <time>2012-04-22T06:26:48Z</time>
      </trkpt>
      <trkpt lat="44.39908" lon="4.75797">
        <ele>214.99</ele>
        <time>2012-04-22T06:26:57Z</time>
      </trkpt>
      <trkpt lat="44.39925" lon="4.7581">
        <ele>215.95</ele>
        <time>2012-04-22T06:27:06Z</time>
      </trkpt>
      <trkpt lat="44.39946" lon="4.75818">
        <ele>216.91</ele>
        <time>2012-04-22T06:27:13Z</time>
      </trkpt>
      <trkpt lat="44.39962" lon="4.7583">
        <ele>216.91</ele>
        <time>2012-04-22T06:27:19Z</time>
      </trkpt>
      <trkpt lat="44.3998" lon="4.75843">
        <ele>216.43</ele>
        <time>2012-04-22T06:27:25Z</time>
      </trkpt>
      <trkpt lat="44.39996" lon="4.75856">
        <ele>216.91</ele>
        <time>2012-04-22T06:27:31Z</time>
      </trkpt>
      <trkpt lat="44.40013" lon="4.75871">
        <ele>216.91</ele>
        <time>2012-04-22T06:27:37Z</time>
      </trkpt>
      <trkpt lat="44.40031" lon="4.75888">
        <ele>216.91</ele>
        <time>2012-04-22T06:27:43Z</time>
      </trkpt>
      <trkpt lat="44.40043" lon="4.7591">
        <ele>217.88</ele>
        <time>2012-04-22T06:27:49Z</time>
      </trkpt>
      <trkpt lat="44.40052" lon="4.75933">
        <ele>218.36</ele>
        <time>2012-04-22T06:27:55Z</time>
      </trkpt>
      <trkpt lat="44.40064" lon="4.75954">
        <ele>218.36</ele>
        <time>2012-04-22T06:28:01Z</time>
      </trkpt>
      <trkpt lat="44.4008" lon="4.75968">
        <ele>218.36</ele>
        <time>2012-04-22T06:28:07Z</time>
      </trkpt>
      <trkpt lat="44.40097" lon="4.75971">
        <ele>218.84</ele>
        <time>2012-04-22T06:28:13Z</time>
      </trkpt>
      <trkpt lat="44.40113" lon="4.75986">
        <ele>219.32</ele>
        <time>2012-04-22T06:28:21Z</time>
      </trkpt>
      <trkpt lat="44.40122" lon="4.7601">
        <ele>219.8</ele>
        <time>2012-04-22T06:28:29Z</time>
      </trkpt>
      <trkpt lat="44.40133" lon="4.7603">
        <ele>219.8</ele>
        <time>2012-04-22T06:28:36Z</time>
      </trkpt>
      <trkpt lat="44.40139" lon="4.76054">
        <ele>219.32</ele>
        <time>2012-04-22T06:28:42Z</time>
      </trkpt>
      <trkpt lat="44.40139" lon="4.76085">
        <ele>218.84</ele>
        <time>2012-04-22T06:28:47Z</time>
      </trkpt>
      <trkpt lat="44.40136" lon="4.76115">
        <ele>218.84</ele>
        <time>2012-04-22T06:28:52Z</time>
      </trkpt>
      <trkpt lat="44.40135" lon="4.76142">
        <ele>217.88</ele>
        <time>2012-04-22T06:28:56Z</time>
      </trkpt>
      <trkpt lat="44.40135" lon="4.76176">
        <ele>217.88</ele>
        <time>2012-04-22T06:29:00Z</time>
      </trkpt>
      <trkpt lat="44.40137" lon="4.76204">
        <ele>217.88</ele>
        <time>2012-04-22T06:29:03Z</time>
      </trkpt>
      <trkpt lat="44.4014" lon="4.76232">
        <ele>216.91</ele>
        <time>2012-04-22T06:29:06Z</time>
      </trkpt>
      <trkpt lat="44.40146" lon="4.76258">
        <ele>216.43</ele>
        <time>2012-04-22T06:29:09Z</time>
      </trkpt>
      <trkpt lat="44.40155" lon="4.7628">
        <ele>215.95</ele>
        <time>2012-04-22T06:29:12Z</time>
      </trkpt>
      <trkpt lat="44.40168" lon="4.76306">
        <ele>216.43</ele>
        <time>2012-04-22T06:29:16Z</time>
      </trkpt>
      <trkpt lat="44.40179" lon="4.76331">
        <ele>215.95</ele>
        <time>2012-04-22T06:29:20Z</time>
      </trkpt>
      <trkpt lat="44.40189" lon="4.76334">
        <ele>214.51</ele>
        <time>2012-04-22T06:29:35Z</time>
      </trkpt>
      <trkpt lat="44.40201" lon="4.7631">
        <ele>210.67</ele>
        <time>2012-04-22T06:29:40Z</time>
      </trkpt>
      <trkpt lat="44.40218" lon="4.76314">
        <ele>208.74</ele>
        <time>2012-04-22T06:29:45Z</time>
      </trkpt>
      <trkpt lat="44.4023" lon="4.7634">
        <ele>208.74</ele>
        <time>2012-04-22T06:29:50Z</time>
      </trkpt>
      <trkpt lat="44.40239" lon="4.76367">
        <ele>209.7</ele>
        <time>2012-04-22T06:29:55Z</time>
      </trkpt>
      <trkpt lat="44.4025" lon="4.76392">
        <ele>207.78</ele>
        <time>2012-04-22T06:29:59Z</time>
      </trkpt>
      <trkpt lat="44.40259" lon="4.76415">
        <ele>204.9</ele>
        <time>2012-04-22T06:30:02Z</time>
      </trkpt>
      <trkpt lat="44.40268" lon="4.76441">
        <ele>202.49</ele>
        <time>2012-04-22T06:30:05Z</time>
      </trkpt>
      <trkpt lat="44.40278" lon="4.76463">
        <ele>200.09</ele>
        <time>2012-04-22T06:30:08Z</time>
      </trkpt>
      <trkpt lat="44.4029" lon="4.76492">
        <ele>196.73</ele>
        <time>2012-04-22T06:30:12Z</time>
      </trkpt>
      <trkpt lat="44.40298" lon="4.76514">
        <ele>195.28</ele>
        <time>2012-04-22T06:30:15Z</time>
      </trkpt>
      <trkpt lat="44.40305" lon="4.76543">
        <ele>194.8</ele>
        <time>2012-04-22T06:30:19Z</time>
      </trkpt>
      <trkpt lat="44.40308" lon="4.76569">
        <ele>192.88</ele>
        <time>2012-04-22T06:30:24Z</time>
      </trkpt>
      <trkpt lat="44.40307" lon="4.76594">
        <ele>192.4</ele>
        <time>2012-04-22T06:30:29Z</time>
      </trkpt>
      <trkpt lat="44.40307" lon="4.7662">
        <ele>191.92</ele>
        <time>2012-04-22T06:30:33Z</time>
      </trkpt>
      <trkpt lat="44.40313" lon="4.76647">
        <ele>190.48</ele>
        <time>2012-04-22T06:30:37Z</time>
      </trkpt>
      <trkpt lat="44.40325" lon="4.76667">
        <ele>188.56</ele>
        <time>2012-04-22T06:30:41Z</time>
      </trkpt>
      <trkpt lat="44.40343" lon="4.76668">
        <ele>185.19</ele>
        <time>2012-04-22T06:30:45Z</time>
      </trkpt>
      <trkpt lat="44.40342" lon="4.76691">
        <ele>185.19</ele>
        <time>2012-04-22T06:30:52Z</time>
      </trkpt>
      <trkpt lat="44.40338" lon="4.76713">
        <ele>186.15</ele>
        <time>2012-04-22T06:31:07Z</time>
      </trkpt>
      <trkpt lat="44.40336" lon="4.76736">
        <ele>185.67</ele>
        <time>2012-04-22T06:31:14Z</time>
      </trkpt>
      <trkpt lat="44.40321" lon="4.76751">
        <ele>187.11</ele>
        <time>2012-04-22T06:31:23Z</time>
      </trkpt>
      <trkpt lat="44.40308" lon="4.76769">
        <ele>188.56</ele>
        <time>2012-04-22T06:31:31Z</time>
      </trkpt>
      <trkpt lat="44.40303" lon="4.76783">
        <ele>189.52</ele>
        <time>2012-04-22T06:31:39Z</time>
      </trkpt>
      <trkpt lat="44.40304" lon="4.7681">
        <ele>188.56</ele>
        <time>2012-04-22T06:31:45Z</time>
      </trkpt>
      <trkpt lat="44.40291" lon="4.76832">
        <ele>190.48</ele>
        <time>2012-04-22T06:31:52Z</time>
      </trkpt>
      <trkpt lat="44.40282" lon="4.76854">
        <ele>190.96</ele>
        <time>2012-04-22T06:31:59Z</time>
      </trkpt>
      <trkpt lat="44.40278" lon="4.76882">
        <ele>191.44</ele>
        <time>2012-04-22T06:32:06Z</time>
      </trkpt>
      <trkpt lat="44.40273" lon="4.76907">
        <ele>192.88</ele>
        <time>2012-04-22T06:32:13Z</time>
      </trkpt>
      <trkpt lat="44.40265" lon="4.76927">
        <ele>194.8</ele>
        <time>2012-04-22T06:32:31Z</time>
      </trkpt>
      <trkpt lat="44.40262" lon="4.76952">
        <ele>195.77</ele>
        <time>2012-04-22T06:32:41Z</time>
      </trkpt>
      <trkpt lat="44.40254" lon="4.76975">
        <ele>198.65</ele>
        <time>2012-04-22T06:32:50Z</time>
      </trkpt>
      <trkpt lat="44.40247" lon="4.76998">
        <ele>201.05</ele>
        <time>2012-04-22T06:32:59Z</time>
      </trkpt>
      <trkpt lat="44.40235" lon="4.77018">
        <ele>202.49</ele>
        <time>2012-04-22T06:33:09Z</time>
      </trkpt>
      <trkpt lat="44.40222" lon="4.77038">
        <ele>204.42</ele>
        <time>2012-04-22T06:33:20Z</time>
      </trkpt>
      <trkpt lat="44.4021" lon="4.77037">
        <ele>205.86</ele>
        <time>2012-04-22T06:33:39Z</time>
      </trkpt>
      <trkpt lat="44.40204" lon="4.77009">
        <ele>205.86</ele>
        <time>2012-04-22T06:33:47Z</time>
      </trkpt>
      <trkpt lat="44.40199" lon="4.76981">
        <ele>207.3</ele>
        <time>2012-04-22T06:33:53Z</time>
      </trkpt>
      <trkpt lat="44.40195" lon="4.76954">
        <ele>206.82</ele>
        <time>2012-04-22T06:33:59Z</time>
      </trkpt>
      <trkpt lat="44.40192" lon="4.76928">
        <ele>206.82</ele>
        <time>2012-04-22T06:34:05Z</time>
      </trkpt>
      <trkpt lat="44.40184" lon="4.76903">
        <ele>206.34</ele>
        <time>2012-04-22T06:34:11Z</time>
      </trkpt>
      <trkpt lat="44.40176" lon="4.7688">
        <ele>206.34</ele>
        <time>2012-04-22T06:34:18Z</time>
      </trkpt>
      <trkpt lat="44.40165" lon="4.76856">
        <ele>206.82</ele>
        <time>2012-04-22T06:34:25Z</time>
      </trkpt>
      <trkpt lat="44.40154" lon="4.76831">
        <ele>206.34</ele>
        <time>2012-04-22T06:34:32Z</time>
      </trkpt>
      <trkpt lat="44.40142" lon="4.76805">
        <ele>205.86</ele>
        <time>2012-04-22T06:34:40Z</time>
      </trkpt>
      <trkpt lat="44.40134" lon="4.76777">
        <ele>204.42</ele>
        <time>2012-04-22T06:34:46Z</time>
      </trkpt>
      <trkpt lat="44.40126" lon="4.76753">
        <ele>204.42</ele>
        <time>2012-04-22T06:34:52Z</time>
      </trkpt>
      <trkpt lat="44.40117" lon="4.7673">
        <ele>204.42</ele>
        <time>2012-04-22T06:34:58Z</time>
      </trkpt>
      <trkpt lat="44.40105" lon="4.7671">
        <ele>203.94</ele>
        <time>2012-04-22T06:35:04Z</time>
      </trkpt>
      <trkpt lat="44.40096" lon="4.76687">
        <ele>204.42</ele>
        <time>2012-04-22T06:35:10Z</time>
      </trkpt>
      <trkpt lat="44.40088" lon="4.76661">
        <ele>204.42</ele>
        <time>2012-04-22T06:35:17Z</time>
      </trkpt>
      <trkpt lat="44.4008" lon="4.76638">
        <ele>204.9</ele>
        <time>2012-04-22T06:35:24Z</time>
      </trkpt>
      <trkpt lat="44.4007" lon="4.76614">
        <ele>204.9</ele>
        <time>2012-04-22T06:35:28Z</time>
      </trkpt>
      <trkpt lat="44.40054" lon="4.76589">
        <ele>204.9</ele>
        <time>2012-04-22T06:35:32Z</time>
      </trkpt>
      <trkpt lat="44.4004" lon="4.76568">
        <ele>204.42</ele>
        <time>2012-04-22T06:35:35Z</time>
      </trkpt>
      <trkpt lat="44.40027" lon="4.76548">
        <ele>203.94</ele>
        <time>2012-04-22T06:35:38Z</time>
      </trkpt>
      <trkpt lat="44.40011" lon="4.76529">
        <ele>202.01</ele>
        <time>2012-04-22T06:35:41Z</time>
      </trkpt>
      <trkpt lat="44.40001" lon="4.76506">
        <ele>201.53</ele>
        <time>2012-04-22T06:35:44Z</time>
      </trkpt>
      <trkpt lat="44.39992" lon="4.76476">
        <ele>201.53</ele>
        <time>2012-04-22T06:35:48Z</time>
      </trkpt>
      <trkpt lat="44.39983" lon="4.76452">
        <ele>201.53</ele>
        <time>2012-04-22T06:35:51Z</time>
      </trkpt>
      <trkpt lat="44.39972" lon="4.76428">
        <ele>201.05</ele>
        <time>2012-04-22T06:35:54Z</time>
      </trkpt>
      <trkpt lat="44.39964" lon="4.76404">
        <ele>200.09</ele>
        <time>2012-04-22T06:35:57Z</time>
      </trkpt>
      <trkpt lat="44.39951" lon="4.76387">
        <ele>199.61</ele>
        <time>2012-04-22T06:36:01Z</time>
      </trkpt>
      <trkpt lat="44.39932" lon="4.76394">
        <ele>198.17</ele>
        <time>2012-04-22T06:36:05Z</time>
      </trkpt>
      <trkpt lat="44.39909" lon="4.76401">
        <ele>196.25</ele>
        <time>2012-04-22T06:36:09Z</time>
      </trkpt>
      <trkpt lat="44.3989" lon="4.76402">
        <ele>194.8</ele>
        <time>2012-04-22T06:36:13Z</time>
      </trkpt>
      <trkpt lat="44.39871" lon="4.76407">
        <ele>193.36</ele>
        <time>2012-04-22T06:36:19Z</time>
      </trkpt>
      <trkpt lat="44.39851" lon="4.76407">
        <ele>191.44</ele>
        <time>2012-04-22T06:36:23Z</time>
      </trkpt>
      <trkpt lat="44.39829" lon="4.76408">
        <ele>189.52</ele>
        <time>2012-04-22T06:36:27Z</time>
      </trkpt>
      <trkpt lat="44.39812" lon="4.76403">
        <ele>187.11</ele>
        <time>2012-04-22T06:36:31Z</time>
      </trkpt>
      <trkpt lat="44.39797" lon="4.76396">
        <ele>186.15</ele>
        <time>2012-04-22T06:36:36Z</time>
      </trkpt>
      <trkpt lat="44.39777" lon="4.76398">
        <ele>185.19</ele>
        <time>2012-04-22T06:36:41Z</time>
      </trkpt>
      <trkpt lat="44.39757" lon="4.76391">
        <ele>182.79</ele>
        <time>2012-04-22T06:36:45Z</time>
      </trkpt>
      <trkpt lat="44.39737" lon="4.76385">
        <ele>181.83</ele>
        <time>2012-04-22T06:36:49Z</time>
      </trkpt>
      <trkpt lat="44.39716" lon="4.76379">
        <ele>180.38</ele>
        <time>2012-04-22T06:36:53Z</time>
      </trkpt>
      <trkpt lat="44.397" lon="4.76372">
        <ele>178.46</ele>
        <time>2012-04-22T06:37:02Z</time>
      </trkpt>
      <trkpt lat="44.39682" lon="4.76375">
        <ele>177.98</ele>
        <time>2012-04-22T06:37:10Z</time>
      </trkpt>
      <trkpt lat="44.39665" lon="4.76378">
        <ele>177.5</ele>
        <time>2012-04-22T06:37:17Z</time>
      </trkpt>
      <trkpt lat="44.3965" lon="4.76392">
        <ele>177.5</ele>
        <time>2012-04-22T06:37:24Z</time>
      </trkpt>
      <trkpt lat="44.39632" lon="4.76392">
        <ele>175.58</ele>
        <time>2012-04-22T06:37:32Z</time>
      </trkpt>
      <trkpt lat="44.39617" lon="4.76407">
        <ele>174.62</ele>
        <time>2012-04-22T06:37:39Z</time>
      </trkpt>
      <trkpt lat="44.39599" lon="4.76411">
        <ele>174.62</ele>
        <time>2012-04-22T06:37:46Z</time>
      </trkpt>
      <trkpt lat="44.39579" lon="4.76414">
        <ele>172.69</ele>
        <time>2012-04-22T06:37:53Z</time>
      </trkpt>
      <trkpt lat="44.39561" lon="4.76409">
        <ele>172.21</ele>
        <time>2012-04-22T06:38:00Z</time>
      </trkpt>
      <trkpt lat="44.39548" lon="4.76386">
        <ele>171.25</ele>
        <time>2012-04-22T06:38:09Z</time>
      </trkpt>
      <trkpt lat="44.39533" lon="4.76376">
        <ele>170.77</ele>
        <time>2012-04-22T06:38:16Z</time>
      </trkpt>
      <trkpt lat="44.39536" lon="4.7641">
        <ele>170.29</ele>
        <time>2012-04-22T06:38:25Z</time>
      </trkpt>
      <trkpt lat="44.39539" lon="4.76437">
        <ele>169.81</ele>
        <time>2012-04-22T06:38:32Z</time>
      </trkpt>
      <trkpt lat="44.39503" lon="4.76457">
        <ele>168.37</ele>
        <time>2012-04-22T06:38:41Z</time>
      </trkpt>
      <trkpt lat="44.39484" lon="4.76467">
        <ele>167.89</ele>
        <time>2012-04-22T06:38:46Z</time>
      </trkpt>
      <trkpt lat="44.39462" lon="4.76488">
        <ele>168.37</ele>
        <time>2012-04-22T06:38:51Z</time>
      </trkpt>
      <trkpt lat="44.39448" lon="4.76508">
        <ele>167.89</ele>
        <time>2012-04-22T06:38:54Z</time>
      </trkpt>
      <trkpt lat="44.39437" lon="4.76511">
        <ele>165.96</ele>
        <time>2012-04-22T06:39:04Z</time>
      </trkpt>
      <trkpt lat="44.39434" lon="4.76484">
        <ele>166.93</ele>
        <time>2012-04-22T06:39:09Z</time>
      </trkpt>
      <trkpt lat="44.39417" lon="4.76466">
        <ele>165.96</ele>
        <time>2012-04-22T06:39:13Z</time>
      </trkpt>
      <trkpt lat="44.39399" lon="4.76456">
        <ele>165.96</ele>
        <time>2012-04-22T06:39:17Z</time>
      </trkpt>
      <trkpt lat="44.39377" lon="4.76449">
        <ele>164.52</ele>
        <time>2012-04-22T06:39:22Z</time>
      </trkpt>
      <trkpt lat="44.39358" lon="4.76439">
        <ele>165</ele>
        <time>2012-04-22T06:39:26Z</time>
      </trkpt>
      <trkpt lat="44.39344" lon="4.7642">
        <ele>164.04</ele>
        <time>2012-04-22T06:39:31Z</time>
      </trkpt>
      <trkpt lat="44.39331" lon="4.76399">
        <ele>163.08</ele>
        <time>2012-04-22T06:39:35Z</time>
      </trkpt>
      <trkpt lat="44.39317" lon="4.76374">
        <ele>163.56</ele>
        <time>2012-04-22T06:39:39Z</time>
      </trkpt>
      <trkpt lat="44.39312" lon="4.76345">
        <ele>164.04</ele>
        <time>2012-04-22T06:39:43Z</time>
      </trkpt>
      <trkpt lat="44.393" lon="4.76327">
        <ele>163.56</ele>
        <time>2012-04-22T06:39:48Z</time>
      </trkpt>
      <trkpt lat="44.39287" lon="4.76308">
        <ele>163.08</ele>
        <time>2012-04-22T06:39:54Z</time>
      </trkpt>
      <trkpt lat="44.39291" lon="4.76289">
        <ele>164.04</ele>
        <time>2012-04-22T06:40:00Z</time>
      </trkpt>
      <trkpt lat="44.39309" lon="4.76288">
        <ele>165</ele>
        <time>2012-04-22T06:40:05Z</time>
      </trkpt>
      <trkpt lat="44.3933" lon="4.76283">
        <ele>165.48</ele>
        <time>2012-04-22T06:40:10Z</time>
      </trkpt>
      <trkpt lat="44.3935" lon="4.76289">
        <ele>165.96</ele>
        <time>2012-04-22T06:40:15Z</time>
      </trkpt>
      <trkpt lat="44.39372" lon="4.76294">
        <ele>165.48</ele>
        <time>2012-04-22T06:40:20Z</time>
      </trkpt>
      <trkpt lat="44.39389" lon="4.7631">
        <ele>166.45</ele>
        <time>2012-04-22T06:40:25Z</time>
      </trkpt>
      <trkpt lat="44.39408" lon="4.76315">
        <ele>165.48</ele>
        <time>2012-04-22T06:40:30Z</time>
      </trkpt>
      <trkpt lat="44.3943" lon="4.76316">
        <ele>166.45</ele>
        <time>2012-04-22T06:40:37Z</time>
      </trkpt>
      <trkpt lat="44.39448" lon="4.76315">
        <ele>166.93</ele>
        <time>2012-04-22T06:40:41Z</time>
      </trkpt>
      <trkpt lat="44.3947" lon="4.76322">
        <ele>167.89</ele>
        <time>2012-04-22T06:40:46Z</time>
      </trkpt>
      <trkpt lat="44.39483" lon="4.76305">
        <ele>167.89</ele>
        <time>2012-04-22T06:40:59Z</time>
      </trkpt>
      <trkpt lat="44.39498" lon="4.76296">
        <ele>165</ele>
        <time>2012-04-22T06:41:11Z</time>
      </trkpt>
      <trkpt lat="44.39516" lon="4.76287">
        <ele>163.08</ele>
        <time>2012-04-22T06:41:23Z</time>
      </trkpt>
      <trkpt lat="44.39517" lon="4.76268">
        <ele>160.2</ele>
        <time>2012-04-22T06:41:36Z</time>
      </trkpt>
      <trkpt lat="44.39489" lon="4.76261">
        <ele>156.35</ele>
        <time>2012-04-22T06:41:44Z</time>
      </trkpt>
      <trkpt lat="44.39459" lon="4.76245">
        <ele>152.51</ele>
        <time>2012-04-22T06:41:50Z</time>
      </trkpt>
      <trkpt lat="44.39438" lon="4.76237">
        <ele>151.06</ele>
        <time>2012-04-22T06:41:55Z</time>
      </trkpt>
      <trkpt lat="44.39415" lon="4.76234">
        <ele>151.06</ele>
        <time>2012-04-22T06:41:59Z</time>
      </trkpt>
      <trkpt lat="44.39397" lon="4.76223">
        <ele>149.62</ele>
        <time>2012-04-22T06:42:03Z</time>
      </trkpt>
      <trkpt lat="44.3938" lon="4.76206">
        <ele>147.7</ele>
        <time>2012-04-22T06:42:07Z</time>
      </trkpt>
      <trkpt lat="44.39362" lon="4.76214">
        <ele>147.7</ele>
        <time>2012-04-22T06:42:12Z</time>
      </trkpt>
      <trkpt lat="44.39339" lon="4.76215">
        <ele>146.74</ele>
        <time>2012-04-22T06:42:18Z</time>
      </trkpt>
      <trkpt lat="44.39317" lon="4.76214">
        <ele>144.82</ele>
        <time>2012-04-22T06:42:22Z</time>
      </trkpt>
      <trkpt lat="44.39298" lon="4.76213">
        <ele>143.37</ele>
        <time>2012-04-22T06:42:25Z</time>
      </trkpt>
      <trkpt lat="44.39277" lon="4.76207">
        <ele>140.01</ele>
        <time>2012-04-22T06:42:29Z</time>
      </trkpt>
      <trkpt lat="44.39274" lon="4.76187">
        <ele>137.61</ele>
        <time>2012-04-22T06:42:33Z</time>
      </trkpt>
      <trkpt lat="44.39286" lon="4.76167">
        <ele>135.2</ele>
        <time>2012-04-22T06:42:37Z</time>
      </trkpt>
      <trkpt lat="44.39278" lon="4.76144">
        <ele>132.8</ele>
        <time>2012-04-22T06:42:41Z</time>
      </trkpt>
      <trkpt lat="44.39255" lon="4.76148">
        <ele>129.92</ele>
        <time>2012-04-22T06:42:45Z</time>
      </trkpt>
      <trkpt lat="44.39235" lon="4.76155">
        <ele>128.47</ele>
        <time>2012-04-22T06:42:48Z</time>
      </trkpt>
      <trkpt lat="44.39212" lon="4.76162">
        <ele>127.03</ele>
        <time>2012-04-22T06:42:51Z</time>
      </trkpt>
      <trkpt lat="44.39192" lon="4.76171">
        <ele>126.55</ele>
        <time>2012-04-22T06:42:54Z</time>
      </trkpt>
      <trkpt lat="44.39176" lon="4.76186">
        <ele>125.11</ele>
        <time>2012-04-22T06:42:57Z</time>
      </trkpt>
      <trkpt lat="44.39166" lon="4.76176">
        <ele>122.71</ele>
        <time>2012-04-22T06:43:04Z</time>
      </trkpt>
      <trkpt lat="44.39166" lon="4.76147">
        <ele>120.3</ele>
        <time>2012-04-22T06:43:11Z</time>
      </trkpt>
      <trkpt lat="44.39173" lon="4.76123">
        <ele>118.86</ele>
        <time>2012-04-22T06:43:18Z</time>
      </trkpt>
      <trkpt lat="44.39179" lon="4.76098">
        <ele>117.42</ele>
        <time>2012-04-22T06:43:26Z</time>
      </trkpt>
      <trkpt lat="44.39194" lon="4.76075">
        <ele>116.46</ele>
        <time>2012-04-22T06:43:31Z</time>
      </trkpt>
      <trkpt lat="44.39203" lon="4.76057">
        <ele>114.05</ele>
        <time>2012-04-22T06:43:37Z</time>
      </trkpt>
      <trkpt lat="44.39185" lon="4.7604">
        <ele>111.17</ele>
        <time>2012-04-22T06:43:41Z</time>
      </trkpt>
      <trkpt lat="44.39161" lon="4.76035">
        <ele>109.73</ele>
        <time>2012-04-22T06:43:45Z</time>
      </trkpt>
      <trkpt lat="44.39138" lon="4.76032">
        <ele>109.25</ele>
        <time>2012-04-22T06:43:49Z</time>
      </trkpt>
      <trkpt lat="44.39125" lon="4.76057">
        <ele>109.25</ele>
        <time>2012-04-22T06:43:53Z</time>
      </trkpt>
      <trkpt lat="44.3912" lon="4.76082">
        <ele>109.73</ele>
        <time>2012-04-22T06:43:57Z</time>
      </trkpt>
      <trkpt lat="44.39112" lon="4.7611">
        <ele>110.21</ele>
        <time>2012-04-22T06:44:01Z</time>
      </trkpt>
      <trkpt lat="44.39094" lon="4.76131">
        <ele>109.25</ele>
        <time>2012-04-22T06:44:05Z</time>
      </trkpt>
      <trkpt lat="44.39079" lon="4.76149">
        <ele>107.81</ele>
        <time>2012-04-22T06:44:08Z</time>
      </trkpt>
      <trkpt lat="44.39066" lon="4.7617">
        <ele>106.84</ele>
        <time>2012-04-22T06:44:12Z</time>
      </trkpt>
      <trkpt lat="44.39065" lon="4.76195">
        <ele>106.84</ele>
        <time>2012-04-22T06:44:16Z</time>
      </trkpt>
      <trkpt lat="44.39075" lon="4.7622">
        <ele>108.77</ele>
        <time>2012-04-22T06:44:22Z</time>
      </trkpt>
      <trkpt lat="44.39083" lon="4.76245">
        <ele>110.69</ele>
        <time>2012-04-22T06:44:30Z</time>
      </trkpt>
      <trkpt lat="44.39085" lon="4.76271">
        <ele>111.65</ele>
        <time>2012-04-22T06:44:36Z</time>
      </trkpt>
      <trkpt lat="44.39088" lon="4.76299">
        <ele>111.65</ele>
        <time>2012-04-22T06:44:42Z</time>
      </trkpt>
      <trkpt lat="44.39101" lon="4.7632">
        <ele>113.09</ele>
        <time>2012-04-22T06:44:49Z</time>
      </trkpt>
      <trkpt lat="44.39113" lon="4.76343">
        <ele>114.05</ele>
        <time>2012-04-22T06:44:55Z</time>
      </trkpt>
      <trkpt lat="44.39122" lon="4.76365">
        <ele>115.01</ele>
        <time>2012-04-22T06:45:00Z</time>
      </trkpt>
      <trkpt lat="44.39132" lon="4.76387">
        <ele>116.46</ele>
        <time>2012-04-22T06:45:05Z</time>
      </trkpt>
      <trkpt lat="44.39136" lon="4.76416">
        <ele>116.94</ele>
        <time>2012-04-22T06:45:10Z</time>
      </trkpt>
      <trkpt lat="44.39135" lon="4.76444">
        <ele>115.98</ele>
        <time>2012-04-22T06:45:14Z</time>
      </trkpt>
      <trkpt lat="44.39137" lon="4.76473">
        <ele>115.5</ele>
        <time>2012-04-22T06:45:19Z</time>
      </trkpt>
      <trkpt lat="44.39125" lon="4.76493">
        <ele>114.05</ele>
        <time>2012-04-22T06:45:25Z</time>
      </trkpt>
      <trkpt lat="44.39104" lon="4.76508">
        <ele>114.53</ele>
        <time>2012-04-22T06:45:31Z</time>
      </trkpt>
      <trkpt lat="44.39083" lon="4.76504">
        <ele>115.5</ele>
        <time>2012-04-22T06:45:37Z</time>
      </trkpt>
      <trkpt lat="44.39071" lon="4.76484">
        <ele>115.98</ele>
        <time>2012-04-22T06:45:51Z</time>
      </trkpt>
      <trkpt lat="44.39068" lon="4.76455">
        <ele>115.98</ele>
        <time>2012-04-22T06:45:59Z</time>
      </trkpt>
      <trkpt lat="44.39059" lon="4.76428">
        <ele>115.01</ele>
        <time>2012-04-22T06:46:07Z</time>
      </trkpt>
      <trkpt lat="44.39039" lon="4.76441">
        <ele>117.9</ele>
        <time>2012-04-22T06:46:22Z</time>
      </trkpt>
      <trkpt lat="44.39021" lon="4.7646">
        <ele>122.71</ele>
        <time>2012-04-22T06:46:42Z</time>
      </trkpt>
      <trkpt lat="44.39014" lon="4.76483">
        <ele>126.07</ele>
        <time>2012-04-22T06:46:56Z</time>
      </trkpt>
      <trkpt lat="44.39026" lon="4.76507">
        <ele>127.03</ele>
        <time>2012-04-22T06:47:06Z</time>
      </trkpt>
      <trkpt lat="44.39022" lon="4.76532">
        <ele>128.47</ele>
        <time>2012-04-22T06:47:17Z</time>
      </trkpt>
      <trkpt lat="44.39003" lon="4.76533">
        <ele>129.43</ele>
        <time>2012-04-22T06:47:25Z</time>
      </trkpt>
      <trkpt lat="44.38984" lon="4.76528">
        <ele>130.4</ele>
        <time>2012-04-22T06:47:33Z</time>
      </trkpt>
      <trkpt lat="44.38969" lon="4.7654">
        <ele>131.84</ele>
        <time>2012-04-22T06:47:42Z</time>
      </trkpt>
      <trkpt lat="44.38976" lon="4.7657">
        <ele>132.8</ele>
        <time>2012-04-22T06:47:50Z</time>
      </trkpt>
      <trkpt lat="44.38985" lon="4.76594">
        <ele>133.76</ele>
        <time>2012-04-22T06:47:57Z</time>
      </trkpt>
      <trkpt lat="44.39" lon="4.76612">
        <ele>135.2</ele>
        <time>2012-04-22T06:48:05Z</time>
      </trkpt>
      <trkpt lat="44.39016" lon="4.76628">
        <ele>134.72</ele>
        <time>2012-04-22T06:48:11Z</time>
      </trkpt>
      <trkpt lat="44.39034" lon="4.76641">
        <ele>137.13</ele>
        <time>2012-04-22T06:48:18Z</time>
      </trkpt>
      <trkpt lat="44.39027" lon="4.76657">
        <ele>138.09</ele>
        <time>2012-04-22T06:48:29Z</time>
      </trkpt>
      <trkpt lat="44.39007" lon="4.7665">
        <ele>139.05</ele>
        <time>2012-04-22T06:48:36Z</time>
      </trkpt>
      <trkpt lat="44.38988" lon="4.76661">
        <ele>140.49</ele>
        <time>2012-04-22T06:48:43Z</time>
      </trkpt>
      <trkpt lat="44.38969" lon="4.76665">
        <ele>142.41</ele>
        <time>2012-04-22T06:48:52Z</time>
      </trkpt>
      <trkpt lat="44.38953" lon="4.76654">
        <ele>144.82</ele>
        <time>2012-04-22T06:49:02Z</time>
      </trkpt>
      <trkpt lat="44.38942" lon="4.7663">
        <ele>146.26</ele>
        <time>2012-04-22T06:49:11Z</time>
      </trkpt>
      <trkpt lat="44.38927" lon="4.76617">
        <ele>147.22</ele>
        <time>2012-04-22T06:49:20Z</time>
      </trkpt>
      <trkpt lat="44.38913" lon="4.76584">
        <ele>143.85</ele>
        <time>2012-04-22T06:49:36Z</time>
      </trkpt>
      <trkpt lat="44.38904" lon="4.76533">
        <ele>143.85</ele>
        <time>2012-04-22T06:49:44Z</time>
      </trkpt>
      <trkpt lat="44.38889" lon="4.76509">
        <ele>143.85</ele>
        <time>2012-04-22T06:49:50Z</time>
      </trkpt>
      <trkpt lat="44.38883" lon="4.76484">
        <ele>143.37</ele>
        <time>2012-04-22T06:49:55Z</time>
      </trkpt>
      <trkpt lat="44.38877" lon="4.76456">
        <ele>142.41</ele>
        <time>2012-04-22T06:50:00Z</time>
      </trkpt>
      <trkpt lat="44.38868" lon="4.76434">
        <ele>142.89</ele>
        <time>2012-04-22T06:50:05Z</time>
      </trkpt>
      <trkpt lat="44.38858" lon="4.76415">
        <ele>142.89</ele>
        <time>2012-04-22T06:50:12Z</time>
      </trkpt>
      <trkpt lat="44.38867" lon="4.76389">
        <ele>141.93</ele>
        <time>2012-04-22T06:50:19Z</time>
      </trkpt>
      <trkpt lat="44.38851" lon="4.76378">
        <ele>143.37</ele>
        <time>2012-04-22T06:50:26Z</time>
      </trkpt>
      <trkpt lat="44.38839" lon="4.76356">
        <ele>141.93</ele>
        <time>2012-04-22T06:50:32Z</time>
      </trkpt>
      <trkpt lat="44.38834" lon="4.76327">
        <ele>140.97</ele>
        <time>2012-04-22T06:50:37Z</time>
      </trkpt>
      <trkpt lat="44.38835" lon="4.76301">
        <ele>140.01</ele>
        <time>2012-04-22T06:50:43Z</time>
      </trkpt>
      <trkpt lat="44.38819" lon="4.76291">
        <ele>142.89</ele>
        <time>2012-04-22T06:50:54Z</time>
      </trkpt>
      <trkpt lat="44.38801" lon="4.76285">
        <ele>145.78</ele>
        <time>2012-04-22T06:51:05Z</time>
      </trkpt>
      <trkpt lat="44.38784" lon="4.76285">
        <ele>148.18</ele>
        <time>2012-04-22T06:51:15Z</time>
      </trkpt>
      <trkpt lat="44.38768" lon="4.76272">
        <ele>149.62</ele>
        <time>2012-04-22T06:51:25Z</time>
      </trkpt>
      <trkpt lat="44.38751" lon="4.76259">
        <ele>152.51</ele>
        <time>2012-04-22T06:51:36Z</time>
      </trkpt>
      <trkpt lat="44.38734" lon="4.76246">
        <ele>154.91</ele>
        <time>2012-04-22T06:51:47Z</time>
      </trkpt>
      <trkpt lat="44.38728" lon="4.76225">
        <ele>158.75</ele>
        <time>2012-04-22T06:52:02Z</time>
      </trkpt>
      <trkpt lat="44.3873" lon="4.76212">
        <ele>159.72</ele>
        <time>2012-04-22T06:54:43Z</time>
      </trkpt>
      <trkpt lat="44.38727" lon="4.76188">
        <ele>161.64</ele>
        <time>2012-04-22T06:54:59Z</time>
      </trkpt>
      <trkpt lat="44.38731" lon="4.76161">
        <ele>159.24</ele>
        <time>2012-04-22T06:55:35Z</time>
      </trkpt>
      <trkpt lat="44.38736" lon="4.76132">
        <ele>158.27</ele>
        <time>2012-04-22T06:55:42Z</time>
      </trkpt>
      <trkpt lat="44.38744" lon="4.76103">
        <ele>156.35</ele>
        <time>2012-04-22T06:55:48Z</time>
      </trkpt>
      <trkpt lat="44.38752" lon="4.76076">
        <ele>154.91</ele>
        <time>2012-04-22T06:55:54Z</time>
      </trkpt>
      <trkpt lat="44.38751" lon="4.76061">
        <ele>153.95</ele>
        <time>2012-04-22T06:56:02Z</time>
      </trkpt>
      <trkpt lat="44.38743" lon="4.76026">
        <ele>150.58</ele>
        <time>2012-04-22T06:56:09Z</time>
      </trkpt>
      <trkpt lat="44.38736" lon="4.75991">
        <ele>149.62</ele>
        <time>2012-04-22T06:56:14Z</time>
      </trkpt>
      <trkpt lat="44.38728" lon="4.75966">
        <ele>148.66</ele>
        <time>2012-04-22T06:56:19Z</time>
      </trkpt>
      <trkpt lat="44.38724" lon="4.7594">
        <ele>147.22</ele>
        <time>2012-04-22T06:56:26Z</time>
      </trkpt>
      <trkpt lat="44.38714" lon="4.75911">
        <ele>146.74</ele>
        <time>2012-04-22T06:56:34Z</time>
      </trkpt>
      <trkpt lat="44.38695" lon="4.75884">
        <ele>147.7</ele>
        <time>2012-04-22T06:56:39Z</time>
      </trkpt>
      <trkpt lat="44.38682" lon="4.75859">
        <ele>148.18</ele>
        <time>2012-04-22T06:56:44Z</time>
      </trkpt>
      <trkpt lat="44.38673" lon="4.75825">
        <ele>145.78</ele>
        <time>2012-04-22T06:56:49Z</time>
      </trkpt>
      <trkpt lat="44.38672" lon="4.75801">
        <ele>144.34</ele>
        <time>2012-04-22T06:56:54Z</time>
      </trkpt>
      <trkpt lat="44.38686" lon="4.75786">
        <ele>144.82</ele>
        <time>2012-04-22T06:56:59Z</time>
      </trkpt>
      <trkpt lat="44.38738" lon="4.75831">
        <ele>143.37</ele>
        <time>2012-04-22T06:57:11Z</time>
      </trkpt>
      <trkpt lat="44.38767" lon="4.75874">
        <ele>142.41</ele>
        <time>2012-04-22T06:57:17Z</time>
      </trkpt>
      <trkpt lat="44.38761" lon="4.75922">
        <ele>142.41</ele>
        <time>2012-04-22T06:57:23Z</time>
      </trkpt>
      <trkpt lat="44.38767" lon="4.75953">
        <ele>142.41</ele>
        <time>2012-04-22T06:57:28Z</time>
      </trkpt>
      <trkpt lat="44.38774" lon="4.75977">
        <ele>142.89</ele>
        <time>2012-04-22T06:57:32Z</time>
      </trkpt>
      <trkpt lat="44.38784" lon="4.76">
        <ele>142.89</ele>
        <time>2012-04-22T06:57:36Z</time>
      </trkpt>
      <trkpt lat="44.38788" lon="4.76026">
        <ele>144.34</ele>
        <time>2012-04-22T06:57:41Z</time>
      </trkpt>
      <trkpt lat="44.38793" lon="4.76045">
        <ele>143.85</ele>
        <time>2012-04-22T06:57:47Z</time>
      </trkpt>
      <trkpt lat="44.38808" lon="4.7606">
        <ele>142.89</ele>
        <time>2012-04-22T06:57:53Z</time>
      </trkpt>
      <trkpt lat="44.38826" lon="4.76051">
        <ele>138.57</ele>
        <time>2012-04-22T06:58:02Z</time>
      </trkpt>
      <trkpt lat="44.38839" lon="4.76023">
        <ele>136.64</ele>
        <time>2012-04-22T06:58:09Z</time>
      </trkpt>
      <trkpt lat="44.38861" lon="4.76021">
        <ele>134.72</ele>
        <time>2012-04-22T06:58:17Z</time>
      </trkpt>
      <trkpt lat="44.38875" lon="4.76004">
        <ele>133.28</ele>
        <time>2012-04-22T06:58:24Z</time>
      </trkpt>
      <trkpt lat="44.38894" lon="4.75986">
        <ele>132.8</ele>
        <time>2012-04-22T06:58:31Z</time>
      </trkpt>
      <trkpt lat="44.38913" lon="4.75999">
        <ele>131.84</ele>
        <time>2012-04-22T06:58:40Z</time>
      </trkpt>
      <trkpt lat="44.3892" lon="4.76039">
        <ele>129.92</ele>
        <time>2012-04-22T06:58:47Z</time>
      </trkpt>
      <trkpt lat="44.38929" lon="4.76064">
        <ele>127.99</ele>
        <time>2012-04-22T06:58:52Z</time>
      </trkpt>
      <trkpt lat="44.38922" lon="4.76095">
        <ele>129.92</ele>
        <time>2012-04-22T06:58:58Z</time>
      </trkpt>
      <trkpt lat="44.38916" lon="4.76124">
        <ele>128.95</ele>
        <time>2012-04-22T06:59:03Z</time>
      </trkpt>
      <trkpt lat="44.38916" lon="4.76148">
        <ele>127.99</ele>
        <time>2012-04-22T06:59:09Z</time>
      </trkpt>
      <trkpt lat="44.38923" lon="4.76173">
        <ele>126.07</ele>
        <time>2012-04-22T06:59:17Z</time>
      </trkpt>
      <trkpt lat="44.38939" lon="4.76197">
        <ele>123.19</ele>
        <time>2012-04-22T06:59:24Z</time>
      </trkpt>
      <trkpt lat="44.38959" lon="4.76211">
        <ele>119.82</ele>
        <time>2012-04-22T06:59:31Z</time>
      </trkpt>
      <trkpt lat="44.38976" lon="4.76232">
        <ele>117.9</ele>
        <time>2012-04-22T06:59:38Z</time>
      </trkpt>
      <trkpt lat="44.3899" lon="4.76254">
        <ele>116.94</ele>
        <time>2012-04-22T06:59:43Z</time>
      </trkpt>
      <trkpt lat="44.38997" lon="4.76268">
        <ele>117.42</ele>
        <time>2012-04-22T06:59:49Z</time>
      </trkpt>
      <trkpt lat="44.38993" lon="4.7627">
        <ele>112.61</ele>
        <time>2012-04-22T07:00:09Z</time>
      </trkpt>
      <trkpt lat="44.38998" lon="4.76225">
        <ele>107.32</ele>
        <time>2012-04-22T07:00:21Z</time>
      </trkpt>
      <trkpt lat="44.39002" lon="4.76188">
        <ele>107.81</ele>
        <time>2012-04-22T07:00:27Z</time>
      </trkpt>
      <trkpt lat="44.39007" lon="4.76151">
        <ele>106.36</ele>
        <time>2012-04-22T07:00:32Z</time>
      </trkpt>
      <trkpt lat="44.39013" lon="4.76118">
        <ele>107.32</ele>
        <time>2012-04-22T07:00:37Z</time>
      </trkpt>
      <trkpt lat="44.39016" lon="4.76085">
        <ele>107.32</ele>
        <time>2012-04-22T07:00:42Z</time>
      </trkpt>
      <trkpt lat="44.39023" lon="4.76057">
        <ele>106.36</ele>
        <time>2012-04-22T07:00:47Z</time>
      </trkpt>
      <trkpt lat="44.39027" lon="4.76027">
        <ele>105.4</ele>
        <time>2012-04-22T07:00:52Z</time>
      </trkpt>
      <trkpt lat="44.39026" lon="4.75993">
        <ele>104.44</ele>
        <time>2012-04-22T07:00:57Z</time>
      </trkpt>
      <trkpt lat="44.3902" lon="4.75966">
        <ele>103.96</ele>
        <time>2012-04-22T07:01:01Z</time>
      </trkpt>
      <trkpt lat="44.3901" lon="4.75933">
        <ele>103.48</ele>
        <time>2012-04-22T07:01:06Z</time>
      </trkpt>
      <trkpt lat="44.38998" lon="4.7591">
        <ele>103.48</ele>
        <time>2012-04-22T07:01:12Z</time>
      </trkpt>
      <trkpt lat="44.38981" lon="4.75887">
        <ele>105.4</ele>
        <time>2012-04-22T07:01:18Z</time>
      </trkpt>
      <trkpt lat="44.38959" lon="4.75883">
        <ele>106.36</ele>
        <time>2012-04-22T07:01:23Z</time>
      </trkpt>
      <trkpt lat="44.38934" lon="4.75885">
        <ele>109.73</ele>
        <time>2012-04-22T07:01:29Z</time>
      </trkpt>
      <trkpt lat="44.38916" lon="4.75876">
        <ele>110.21</ele>
        <time>2012-04-22T07:01:35Z</time>
      </trkpt>
      <trkpt lat="44.38903" lon="4.75852">
        <ele>107.32</ele>
        <time>2012-04-22T07:01:41Z</time>
      </trkpt>
      <trkpt lat="44.38905" lon="4.75813">
        <ele>105.4</ele>
        <time>2012-04-22T07:01:46Z</time>
      </trkpt>
      <trkpt lat="44.38899" lon="4.75791">
        <ele>105.88</ele>
        <time>2012-04-22T07:01:54Z</time>
      </trkpt>
      <trkpt lat="44.38884" lon="4.75781">
        <ele>107.81</ele>
        <time>2012-04-22T07:02:04Z</time>
      </trkpt>
      <trkpt lat="44.3888" lon="4.75754">
        <ele>106.36</ele>
        <time>2012-04-22T07:02:09Z</time>
      </trkpt>
      <trkpt lat="44.38874" lon="4.75726">
        <ele>106.84</ele>
        <time>2012-04-22T07:02:14Z</time>
      </trkpt>
      <trkpt lat="44.38868" lon="4.75701">
        <ele>106.36</ele>
        <time>2012-04-22T07:02:19Z</time>
      </trkpt>
      <trkpt lat="44.38862" lon="4.75674">
        <ele>105.88</ele>
        <time>2012-04-22T07:02:25Z</time>
      </trkpt>
      <trkpt lat="44.38856" lon="4.75647">
        <ele>106.36</ele>
        <time>2012-04-22T07:02:32Z</time>
      </trkpt>
      <trkpt lat="44.38846" lon="4.75625">
        <ele>108.29</ele>
        <time>2012-04-22T07:02:37Z</time>
      </trkpt>
      <trkpt lat="44.38834" lon="4.75601">
        <ele>106.84</ele>
        <time>2012-04-22T07:02:42Z</time>
      </trkpt>
      <trkpt lat="44.38815" lon="4.75586">
        <ele>107.81</ele>
        <time>2012-04-22T07:02:47Z</time>
      </trkpt>
      <trkpt lat="44.388" lon="4.75572">
        <ele>107.32</ele>
        <time>2012-04-22T07:02:51Z</time>
      </trkpt>
      <trkpt lat="44.38783" lon="4.75559">
        <ele>107.81</ele>
        <time>2012-04-22T07:02:56Z</time>
      </trkpt>
      <trkpt lat="44.38763" lon="4.75556">
        <ele>108.77</ele>
        <time>2012-04-22T07:03:01Z</time>
      </trkpt>
      <trkpt lat="44.38748" lon="4.75561">
        <ele>111.17</ele>
        <time>2012-04-22T07:03:09Z</time>
      </trkpt>
      <trkpt lat="44.38729" lon="4.75555">
        <ele>114.53</ele>
        <time>2012-04-22T07:03:17Z</time>
      </trkpt>
      <trkpt lat="44.38711" lon="4.75563">
        <ele>116.94</ele>
        <time>2012-04-22T07:03:26Z</time>
      </trkpt>
      <trkpt lat="44.38693" lon="4.75563">
        <ele>117.42</ele>
        <time>2012-04-22T07:03:33Z</time>
      </trkpt>
      <trkpt lat="44.38672" lon="4.75565">
        <ele>117.9</ele>
        <time>2012-04-22T07:03:40Z</time>
      </trkpt>
      <trkpt lat="44.38657" lon="4.75575">
        <ele>117.9</ele>
        <time>2012-04-22T07:03:46Z</time>
      </trkpt>
      <trkpt lat="44.38649" lon="4.75596">
        <ele>119.82</ele>
        <time>2012-04-22T07:03:54Z</time>
      </trkpt>
      <trkpt lat="44.38647" lon="4.75607">
        <ele>120.3</ele>
        <time>2012-04-22T07:07:16Z</time>
      </trkpt>
      <trkpt lat="44.38662" lon="4.75615">
        <ele>121.26</ele>
        <time>2012-04-22T07:07:29Z</time>
      </trkpt>
      <trkpt lat="44.38681" lon="4.75608">
        <ele>124.63</ele>
        <time>2012-04-22T07:07:48Z</time>
      </trkpt>
      <trkpt lat="44.38688" lon="4.75618">
        <ele>127.99</ele>
        <time>2012-04-22T07:08:01Z</time>
      </trkpt>
      <trkpt lat="44.38683" lon="4.75642">
        <ele>129.92</ele>
        <time>2012-04-22T07:08:14Z</time>
      </trkpt>
      <trkpt lat="44.38681" lon="4.75667">
        <ele>130.4</ele>
        <time>2012-04-22T07:08:25Z</time>
      </trkpt>
      <trkpt lat="44.38698" lon="4.75673">
        <ele>133.28</ele>
        <time>2012-04-22T07:08:37Z</time>
      </trkpt>
      <trkpt lat="44.38709" lon="4.7565">
        <ele>133.28</ele>
        <time>2012-04-22T07:08:45Z</time>
      </trkpt>
      <trkpt lat="44.38726" lon="4.75639">
        <ele>131.84</ele>
        <time>2012-04-22T07:08:51Z</time>
      </trkpt>
      <trkpt lat="44.38746" lon="4.75642">
        <ele>130.4</ele>
        <time>2012-04-22T07:08:59Z</time>
      </trkpt>
      <trkpt lat="44.38759" lon="4.75662">
        <ele>131.36</ele>
        <time>2012-04-22T07:09:07Z</time>
      </trkpt>
      <trkpt lat="44.38763" lon="4.75687">
        <ele>133.28</ele>
        <time>2012-04-22T07:09:14Z</time>
      </trkpt>
      <trkpt lat="44.38762" lon="4.75711">
        <ele>133.76</ele>
        <time>2012-04-22T07:09:22Z</time>
      </trkpt>
      <trkpt lat="44.38774" lon="4.75731">
        <ele>129.43</ele>
        <time>2012-04-22T07:09:30Z</time>
      </trkpt>
      <trkpt lat="44.38796" lon="4.75723">
        <ele>125.59</ele>
        <time>2012-04-22T07:09:41Z</time>
      </trkpt>
      <trkpt lat="44.38818" lon="4.75722">
        <ele>121.74</ele>
        <time>2012-04-22T07:09:50Z</time>
      </trkpt>
      <trkpt lat="44.38831" lon="4.75747">
        <ele>123.19</ele>
        <time>2012-04-22T07:10:00Z</time>
      </trkpt>
      <trkpt lat="44.38831" lon="4.75777">
        <ele>125.11</ele>
        <time>2012-04-22T07:10:08Z</time>
      </trkpt>
      <trkpt lat="44.38835" lon="4.75804">
        <ele>125.59</ele>
        <time>2012-04-22T07:10:16Z</time>
      </trkpt>
      <trkpt lat="44.38819" lon="4.75804">
        <ele>128.47</ele>
        <time>2012-04-22T07:10:26Z</time>
      </trkpt>
      <trkpt lat="44.38807" lon="4.75784">
        <ele>127.99</ele>
        <time>2012-04-22T07:10:36Z</time>
      </trkpt>
      <trkpt lat="44.38795" lon="4.75766">
        <ele>129.92</ele>
        <time>2012-04-22T07:10:55Z</time>
      </trkpt>
      <trkpt lat="44.38782" lon="4.7575">
        <ele>130.88</ele>
        <time>2012-04-22T07:11:26Z</time>
      </trkpt>
      <trkpt lat="44.38764" lon="4.75746">
        <ele>133.76</ele>
        <time>2012-04-22T07:11:39Z</time>
      </trkpt>
      <trkpt lat="44.38752" lon="4.75764">
        <ele>137.61</ele>
        <time>2012-04-22T07:11:57Z</time>
      </trkpt>
      <trkpt lat="44.38733" lon="4.75763">
        <ele>138.57</ele>
        <time>2012-04-22T07:12:08Z</time>
      </trkpt>
      <trkpt lat="44.38715" lon="4.75766">
        <ele>140.49</ele>
        <time>2012-04-22T07:12:19Z</time>
      </trkpt>
      <trkpt lat="44.38696" lon="4.75759">
        <ele>139.53</ele>
        <time>2012-04-22T07:12:26Z</time>
      </trkpt>
      <trkpt lat="44.38676" lon="4.75753">
        <ele>139.53</ele>
        <time>2012-04-22T07:12:34Z</time>
      </trkpt>
      <trkpt lat="44.3866" lon="4.75764">
        <ele>142.41</ele>
        <time>2012-04-22T07:12:44Z</time>
      </trkpt>
      <trkpt lat="44.3865" lon="4.75789">
        <ele>144.34</ele>
        <time>2012-04-22T07:12:58Z</time>
      </trkpt>
      <trkpt lat="44.38639" lon="4.75802">
        <ele>145.3</ele>
        <time>2012-04-22T07:13:10Z</time>
      </trkpt>
      <trkpt lat="44.38622" lon="4.75791">
        <ele>146.26</ele>
        <time>2012-04-22T07:13:17Z</time>
      </trkpt>
      <trkpt lat="44.38602" lon="4.75771">
        <ele>142.89</ele>
        <time>2012-04-22T07:13:23Z</time>
      </trkpt>
      <trkpt lat="44.38581" lon="4.75757">
        <ele>142.41</ele>
        <time>2012-04-22T07:13:28Z</time>
      </trkpt>
      <trkpt lat="44.38573" lon="4.75776">
        <ele>145.78</ele>
        <time>2012-04-22T07:13:37Z</time>
      </trkpt>
      <trkpt lat="44.38558" lon="4.75794">
        <ele>147.22</ele>
        <time>2012-04-22T07:13:48Z</time>
      </trkpt>
      <trkpt lat="44.38539" lon="4.75811">
        <ele>147.7</ele>
        <time>2012-04-22T07:13:57Z</time>
      </trkpt>
      <trkpt lat="44.38521" lon="4.75816">
        <ele>147.22</ele>
        <time>2012-04-22T07:14:04Z</time>
      </trkpt>
      <trkpt lat="44.38503" lon="4.75823">
        <ele>146.74</ele>
        <time>2012-04-22T07:14:10Z</time>
      </trkpt>
      <trkpt lat="44.38486" lon="4.75837">
        <ele>145.78</ele>
        <time>2012-04-22T07:14:16Z</time>
      </trkpt>
      <trkpt lat="44.38466" lon="4.75833">
        <ele>146.26</ele>
        <time>2012-04-22T07:14:22Z</time>
      </trkpt>
      <trkpt lat="44.38451" lon="4.75819">
        <ele>145.78</ele>
        <time>2012-04-22T07:14:27Z</time>
      </trkpt>
      <trkpt lat="44.38432" lon="4.75801">
        <ele>141.45</ele>
        <time>2012-04-22T07:14:33Z</time>
      </trkpt>
      <trkpt lat="44.38415" lon="4.75773">
        <ele>138.09</ele>
        <time>2012-04-22T07:14:38Z</time>
      </trkpt>
      <trkpt lat="44.38407" lon="4.75761">
        <ele>134.24</ele>
        <time>2012-04-22T07:14:49Z</time>
      </trkpt>
      <trkpt lat="44.38409" lon="4.75732">
        <ele>133.28</ele>
        <time>2012-04-22T07:14:55Z</time>
      </trkpt>
      <trkpt lat="44.38424" lon="4.75713">
        <ele>133.76</ele>
        <time>2012-04-22T07:15:02Z</time>
      </trkpt>
      <trkpt lat="44.38439" lon="4.75699">
        <ele>133.76</ele>
        <time>2012-04-22T07:15:07Z</time>
      </trkpt>
      <trkpt lat="44.3845" lon="4.75678">
        <ele>133.28</ele>
        <time>2012-04-22T07:15:13Z</time>
      </trkpt>
      <trkpt lat="44.38464" lon="4.7566">
        <ele>133.76</ele>
        <time>2012-04-22T07:15:21Z</time>
      </trkpt>
      <trkpt lat="44.38461" lon="4.75638">
        <ele>130.88</ele>
        <time>2012-04-22T07:15:32Z</time>
      </trkpt>
      <trkpt lat="44.3846" lon="4.75613">
        <ele>128.47</ele>
        <time>2012-04-22T07:15:38Z</time>
      </trkpt>
      <trkpt lat="44.38471" lon="4.75592">
        <ele>126.07</ele>
        <time>2012-04-22T07:15:45Z</time>
      </trkpt>
      <trkpt lat="44.38488" lon="4.75578">
        <ele>124.63</ele>
        <time>2012-04-22T07:15:53Z</time>
      </trkpt>
      <trkpt lat="44.38504" lon="4.75562">
        <ele>122.22</ele>
        <time>2012-04-22T07:15:59Z</time>
      </trkpt>
      <trkpt lat="44.38522" lon="4.75557">
        <ele>120.3</ele>
        <time>2012-04-22T07:16:05Z</time>
      </trkpt>
      <trkpt lat="44.3854" lon="4.75554">
        <ele>118.86</ele>
        <time>2012-04-22T07:16:12Z</time>
      </trkpt>
      <trkpt lat="44.38546" lon="4.75532">
        <ele>115.5</ele>
        <time>2012-04-22T07:16:18Z</time>
      </trkpt>
      <trkpt lat="44.38543" lon="4.75506">
        <ele>111.65</ele>
        <time>2012-04-22T07:16:28Z</time>
      </trkpt>
      <trkpt lat="44.38549" lon="4.7548">
        <ele>108.77</ele>
        <time>2012-04-22T07:16:34Z</time>
      </trkpt>
      <trkpt lat="44.38548" lon="4.75449">
        <ele>105.4</ele>
        <time>2012-04-22T07:16:39Z</time>
      </trkpt>
      <trkpt lat="44.38543" lon="4.75422">
        <ele>101.56</ele>
        <time>2012-04-22T07:16:43Z</time>
      </trkpt>
      <trkpt lat="44.38526" lon="4.7542">
        <ele>97.71</ele>
        <time>2012-04-22T07:16:49Z</time>
      </trkpt>
      <trkpt lat="44.38516" lon="4.75401">
        <ele>92.9</ele>
        <time>2012-04-22T07:16:55Z</time>
      </trkpt>
      <trkpt lat="44.38504" lon="4.75386">
        <ele>90.02</ele>
        <time>2012-04-22T07:17:01Z</time>
      </trkpt>
      <trkpt lat="44.38486" lon="4.75392">
        <ele>90.5</ele>
        <time>2012-04-22T07:17:14Z</time>
      </trkpt>
      <trkpt lat="44.38469" lon="4.7539">
        <ele>89.06</ele>
        <time>2012-04-22T07:17:20Z</time>
      </trkpt>
      <trkpt lat="44.38456" lon="4.75408">
        <ele>90.98</ele>
        <time>2012-04-22T07:17:38Z</time>
      </trkpt>
      <trkpt lat="44.38445" lon="4.75427">
        <ele>92.42</ele>
        <time>2012-04-22T07:17:47Z</time>
      </trkpt>
      <trkpt lat="44.38428" lon="4.75437">
        <ele>92.42</ele>
        <time>2012-04-22T07:17:53Z</time>
      </trkpt>
      <trkpt lat="44.38418" lon="4.7546">
        <ele>93.87</ele>
        <time>2012-04-22T07:18:00Z</time>
      </trkpt>
      <trkpt lat="44.38405" lon="4.75477">
        <ele>94.83</ele>
        <time>2012-04-22T07:18:06Z</time>
      </trkpt>
      <trkpt lat="44.38395" lon="4.75499">
        <ele>96.75</ele>
        <time>2012-04-22T07:18:14Z</time>
      </trkpt>
      <trkpt lat="44.38383" lon="4.75517">
        <ele>100.6</ele>
        <time>2012-04-22T07:18:25Z</time>
      </trkpt>
      <trkpt lat="44.38365" lon="4.75531">
        <ele>102.04</ele>
        <time>2012-04-22T07:18:34Z</time>
      </trkpt>
      <trkpt lat="44.3835" lon="4.75549">
        <ele>102.52</ele>
        <time>2012-04-22T07:18:41Z</time>
      </trkpt>
      <trkpt lat="44.38342" lon="4.75575">
        <ele>103.96</ele>
        <time>2012-04-22T07:18:48Z</time>
      </trkpt>
      <trkpt lat="44.38327" lon="4.75594">
        <ele>104.44</ele>
        <time>2012-04-22T07:18:55Z</time>
      </trkpt>
      <trkpt lat="44.38316" lon="4.75617">
        <ele>105.4</ele>
        <time>2012-04-22T07:19:02Z</time>
      </trkpt>
      <trkpt lat="44.38311" lon="4.75643">
        <ele>106.84</ele>
        <time>2012-04-22T07:19:10Z</time>
      </trkpt>
      <trkpt lat="44.383" lon="4.75666">
        <ele>107.32</ele>
        <time>2012-04-22T07:19:17Z</time>
      </trkpt>
      <trkpt lat="44.38289" lon="4.7569">
        <ele>108.29</ele>
        <time>2012-04-22T07:19:24Z</time>
      </trkpt>
      <trkpt lat="44.38284" lon="4.75714">
        <ele>110.21</ele>
        <time>2012-04-22T07:19:30Z</time>
      </trkpt>
      <trkpt lat="44.38281" lon="4.75741">
        <ele>110.21</ele>
        <time>2012-04-22T07:19:36Z</time>
      </trkpt>
      <trkpt lat="44.38282" lon="4.75766">
        <ele>110.69</ele>
        <time>2012-04-22T07:19:42Z</time>
      </trkpt>
      <trkpt lat="44.38281" lon="4.75795">
        <ele>110.69</ele>
        <time>2012-04-22T07:19:48Z</time>
      </trkpt>
      <trkpt lat="44.38278" lon="4.75822">
        <ele>111.65</ele>
        <time>2012-04-22T07:19:53Z</time>
      </trkpt>
      <trkpt lat="44.38277" lon="4.75849">
        <ele>110.69</ele>
        <time>2012-04-22T07:19:57Z</time>
      </trkpt>
      <trkpt lat="44.3828" lon="4.75876">
        <ele>110.21</ele>
        <time>2012-04-22T07:20:01Z</time>
      </trkpt>
      <trkpt lat="44.38282" lon="4.75903">
        <ele>109.73</ele>
        <time>2012-04-22T07:20:05Z</time>
      </trkpt>
      <trkpt lat="44.38285" lon="4.75934">
        <ele>110.21</ele>
        <time>2012-04-22T07:20:10Z</time>
      </trkpt>
      <trkpt lat="44.38286" lon="4.7596">
        <ele>111.17</ele>
        <time>2012-04-22T07:20:15Z</time>
      </trkpt>
      <trkpt lat="44.38285" lon="4.75986">
        <ele>112.13</ele>
        <time>2012-04-22T07:20:21Z</time>
      </trkpt>
      <trkpt lat="44.38298" lon="4.75997">
        <ele>112.13</ele>
        <time>2012-04-22T07:20:29Z</time>
      </trkpt>
      <trkpt lat="44.38317" lon="4.76">
        <ele>114.53</ele>
        <time>2012-04-22T07:20:36Z</time>
      </trkpt>
      <trkpt lat="44.38337" lon="4.76001">
        <ele>113.57</ele>
        <time>2012-04-22T07:20:43Z</time>
      </trkpt>
      <trkpt lat="44.38356" lon="4.76001">
        <ele>116.46</ele>
        <time>2012-04-22T07:20:51Z</time>
      </trkpt>
      <trkpt lat="44.38375" lon="4.76003">
        <ele>118.86</ele>
        <time>2012-04-22T07:21:01Z</time>
      </trkpt>
      <trkpt lat="44.38393" lon="4.76006">
        <ele>122.71</ele>
        <time>2012-04-22T07:21:14Z</time>
      </trkpt>
      <trkpt lat="44.38411" lon="4.76007">
        <ele>127.03</ele>
        <time>2012-04-22T07:21:28Z</time>
      </trkpt>
      <trkpt lat="44.38429" lon="4.76017">
        <ele>129.43</ele>
        <time>2012-04-22T07:21:40Z</time>
      </trkpt>
      <trkpt lat="44.38444" lon="4.76034">
        <ele>130.88</ele>
        <time>2012-04-22T07:21:51Z</time>
      </trkpt>
      <trkpt lat="44.38459" lon="4.7605">
        <ele>131.84</ele>
        <time>2012-04-22T07:22:01Z</time>
      </trkpt>
      <trkpt lat="44.38474" lon="4.76065">
        <ele>133.76</ele>
        <time>2012-04-22T07:22:11Z</time>
      </trkpt>
      <trkpt lat="44.38488" lon="4.76081">
        <ele>135.2</ele>
        <time>2012-04-22T07:22:21Z</time>
      </trkpt>
      <trkpt lat="44.38501" lon="4.76102">
        <ele>137.13</ele>
        <time>2012-04-22T07:22:32Z</time>
      </trkpt>
      <trkpt lat="44.38513" lon="4.76122">
        <ele>138.57</ele>
        <time>2012-04-22T07:22:42Z</time>
      </trkpt>
      <trkpt lat="44.3853" lon="4.76132">
        <ele>141.93</ele>
        <time>2012-04-22T07:22:52Z</time>
      </trkpt>
      <trkpt lat="44.38548" lon="4.7614">
        <ele>143.85</ele>
        <time>2012-04-22T07:23:03Z</time>
      </trkpt>
      <trkpt lat="44.38566" lon="4.7614">
        <ele>144.82</ele>
        <time>2012-04-22T07:23:15Z</time>
      </trkpt>
      <trkpt lat="44.38583" lon="4.76129">
        <ele>147.7</ele>
        <time>2012-04-22T07:23:27Z</time>
      </trkpt>
      <trkpt lat="44.38596" lon="4.76111">
        <ele>151.54</ele>
        <time>2012-04-22T07:23:43Z</time>
      </trkpt>
      <trkpt lat="44.38599" lon="4.76088">
        <ele>154.91</ele>
        <time>2012-04-22T07:23:59Z</time>
      </trkpt>
      <trkpt lat="44.38605" lon="4.76064">
        <ele>156.35</ele>
        <time>2012-04-22T07:24:15Z</time>
      </trkpt>
      <trkpt lat="44.38607" lon="4.76036">
        <ele>158.75</ele>
        <time>2012-04-22T07:24:27Z</time>
      </trkpt>
      <trkpt lat="44.38618" lon="4.76016">
        <ele>160.68</ele>
        <time>2012-04-22T07:24:41Z</time>
      </trkpt>
      <trkpt lat="44.38628" lon="4.76027">
        <ele>161.16</ele>
        <time>2012-04-22T07:24:56Z</time>
      </trkpt>
      <trkpt lat="44.38627" lon="4.76053">
        <ele>163.08</ele>
        <time>2012-04-22T07:25:05Z</time>
      </trkpt>
      <trkpt lat="44.38627" lon="4.76081">
        <ele>163.56</ele>
        <time>2012-04-22T07:25:14Z</time>
      </trkpt>
      <trkpt lat="44.38634" lon="4.76106">
        <ele>164.52</ele>
        <time>2012-04-22T07:25:24Z</time>
      </trkpt>
      <trkpt lat="44.38644" lon="4.76131">
        <ele>165.48</ele>
        <time>2012-04-22T07:25:32Z</time>
      </trkpt>
      <trkpt lat="44.38655" lon="4.76154">
        <ele>165.48</ele>
        <time>2012-04-22T07:25:38Z</time>
      </trkpt>
      <trkpt lat="44.38668" lon="4.76173">
        <ele>164.04</ele>
        <time>2012-04-22T07:25:44Z</time>
      </trkpt>
      <trkpt lat="44.3868" lon="4.76194">
        <ele>164.04</ele>
        <time>2012-04-22T07:25:52Z</time>
      </trkpt>
      <trkpt lat="44.38696" lon="4.76211">
        <ele>160.68</ele>
        <time>2012-04-22T07:25:57Z</time>
      </trkpt>
      <trkpt lat="44.38701" lon="4.76238">
        <ele>156.83</ele>
        <time>2012-04-22T07:26:04Z</time>
      </trkpt>
      <trkpt lat="44.38708" lon="4.76262">
        <ele>155.39</ele>
        <time>2012-04-22T07:26:11Z</time>
      </trkpt>
      <trkpt lat="44.38707" lon="4.76293">
        <ele>154.91</ele>
        <time>2012-04-22T07:26:16Z</time>
      </trkpt>
      <trkpt lat="44.3871" lon="4.76322">
        <ele>153.47</ele>
        <time>2012-04-22T07:26:20Z</time>
      </trkpt>
      <trkpt lat="44.38714" lon="4.76355">
        <ele>153.95</ele>
        <time>2012-04-22T07:26:24Z</time>
      </trkpt>
      <trkpt lat="44.38715" lon="4.76388">
        <ele>152.03</ele>
        <time>2012-04-22T07:26:28Z</time>
      </trkpt>
      <trkpt lat="44.3872" lon="4.76419">
        <ele>151.06</ele>
        <time>2012-04-22T07:26:32Z</time>
      </trkpt>
      <trkpt lat="44.38725" lon="4.76445">
        <ele>150.58</ele>
        <time>2012-04-22T07:26:35Z</time>
      </trkpt>
      <trkpt lat="44.38731" lon="4.76479">
        <ele>149.62</ele>
        <time>2012-04-22T07:26:39Z</time>
      </trkpt>
      <trkpt lat="44.38738" lon="4.76512">
        <ele>149.62</ele>
        <time>2012-04-22T07:26:43Z</time>
      </trkpt>
      <trkpt lat="44.38741" lon="4.76538">
        <ele>148.66</ele>
        <time>2012-04-22T07:26:46Z</time>
      </trkpt>
      <trkpt lat="44.38749" lon="4.76569">
        <ele>148.18</ele>
        <time>2012-04-22T07:26:50Z</time>
      </trkpt>
      <trkpt lat="44.38758" lon="4.76593">
        <ele>149.14</ele>
        <time>2012-04-22T07:26:54Z</time>
      </trkpt>
      <trkpt lat="44.38764" lon="4.76617">
        <ele>148.66</ele>
        <time>2012-04-22T07:26:58Z</time>
      </trkpt>
      <trkpt lat="44.38769" lon="4.76637">
        <ele>150.58</ele>
        <time>2012-04-22T07:27:28Z</time>
      </trkpt>
      <trkpt lat="44.38775" lon="4.7666">
        <ele>151.54</ele>
        <time>2012-04-22T07:27:39Z</time>
      </trkpt>
      <trkpt lat="44.38785" lon="4.76678">
        <ele>154.91</ele>
        <time>2012-04-22T07:28:19Z</time>
      </trkpt>
      <trkpt lat="44.38785" lon="4.76705">
        <ele>157.31</ele>
        <time>2012-04-22T07:28:29Z</time>
      </trkpt>
      <trkpt lat="44.38787" lon="4.76732">
        <ele>159.24</ele>
        <time>2012-04-22T07:28:40Z</time>
      </trkpt>
      <trkpt lat="44.38793" lon="4.7674">
        <ele>163.08</ele>
        <time>2012-04-22T07:28:58Z</time>
      </trkpt>
      <trkpt lat="44.38801" lon="4.7672">
        <ele>164.52</ele>
        <time>2012-04-22T07:29:11Z</time>
      </trkpt>
      <trkpt lat="44.38814" lon="4.76698">
        <ele>166.93</ele>
        <time>2012-04-22T07:29:36Z</time>
      </trkpt>
      <trkpt lat="44.38812" lon="4.76668">
        <ele>164.52</ele>
        <time>2012-04-22T07:30:00Z</time>
      </trkpt>
      <trkpt lat="44.38799" lon="4.7664">
        <ele>158.75</ele>
        <time>2012-04-22T07:30:08Z</time>
      </trkpt>
      <trkpt lat="44.38788" lon="4.76618">
        <ele>156.83</ele>
        <time>2012-04-22T07:30:13Z</time>
      </trkpt>
      <trkpt lat="44.38775" lon="4.76594">
        <ele>154.43</ele>
        <time>2012-04-22T07:30:19Z</time>
      </trkpt>
      <trkpt lat="44.38769" lon="4.76571">
        <ele>154.43</ele>
        <time>2012-04-22T07:30:28Z</time>
      </trkpt>
      <trkpt lat="44.38764" lon="4.76547">
        <ele>156.35</ele>
        <time>2012-04-22T07:30:37Z</time>
      </trkpt>
      <trkpt lat="44.38762" lon="4.76521">
        <ele>156.83</ele>
        <time>2012-04-22T07:30:47Z</time>
      </trkpt>
      <trkpt lat="44.38754" lon="4.76496">
        <ele>158.27</ele>
        <time>2012-04-22T07:30:56Z</time>
      </trkpt>
      <trkpt lat="44.38751" lon="4.76471">
        <ele>159.24</ele>
        <time>2012-04-22T07:31:07Z</time>
      </trkpt>
      <trkpt lat="44.3875" lon="4.76446">
        <ele>162.6</ele>
        <time>2012-04-22T07:31:22Z</time>
      </trkpt>
      <trkpt lat="44.38768" lon="4.76449">
        <ele>167.89</ele>
        <time>2012-04-22T07:31:36Z</time>
      </trkpt>
      <trkpt lat="44.38778" lon="4.76471">
        <ele>169.81</ele>
        <time>2012-04-22T07:31:49Z</time>
      </trkpt>
      <trkpt lat="44.38788" lon="4.76494">
        <ele>171.25</ele>
        <time>2012-04-22T07:32:00Z</time>
      </trkpt>
      <trkpt lat="44.38796" lon="4.76521">
        <ele>171.25</ele>
        <time>2012-04-22T07:32:09Z</time>
      </trkpt>
      <trkpt lat="44.38799" lon="4.76546">
        <ele>170.29</ele>
        <time>2012-04-22T07:32:16Z</time>
      </trkpt>
      <trkpt lat="44.38807" lon="4.7657">
        <ele>171.25</ele>
        <time>2012-04-22T07:32:23Z</time>
      </trkpt>
      <trkpt lat="44.38816" lon="4.7659">
        <ele>173.17</ele>
        <time>2012-04-22T07:32:31Z</time>
      </trkpt>
      <trkpt lat="44.38822" lon="4.76617">
        <ele>173.17</ele>
        <time>2012-04-22T07:32:39Z</time>
      </trkpt>
      <trkpt lat="44.3883" lon="4.76644">
        <ele>171.73</ele>
        <time>2012-04-22T07:32:47Z</time>
      </trkpt>
      <trkpt lat="44.38833" lon="4.76666">
        <ele>172.69</ele>
        <time>2012-04-22T07:32:59Z</time>
      </trkpt>
      <trkpt lat="44.38835" lon="4.76693">
        <ele>173.66</ele>
        <time>2012-04-22T07:33:09Z</time>
      </trkpt>
      <trkpt lat="44.38824" lon="4.76712">
        <ele>173.17</ele>
        <time>2012-04-22T07:33:17Z</time>
      </trkpt>
      <trkpt lat="44.38813" lon="4.76733">
        <ele>174.62</ele>
        <time>2012-04-22T07:33:25Z</time>
      </trkpt>
      <trkpt lat="44.3881" lon="4.76759">
        <ele>174.62</ele>
        <time>2012-04-22T07:33:54Z</time>
      </trkpt>
      <trkpt lat="44.38811" lon="4.76785">
        <ele>175.1</ele>
        <time>2012-04-22T07:34:05Z</time>
      </trkpt>
      <trkpt lat="44.38821" lon="4.76805">
        <ele>175.1</ele>
        <time>2012-04-22T07:34:13Z</time>
      </trkpt>
      <trkpt lat="44.38827" lon="4.76831">
        <ele>174.62</ele>
        <time>2012-04-22T07:34:19Z</time>
      </trkpt>
      <trkpt lat="44.38834" lon="4.76857">
        <ele>175.58</ele>
        <time>2012-04-22T07:34:24Z</time>
      </trkpt>
      <trkpt lat="44.38852" lon="4.76874">
        <ele>174.14</ele>
        <time>2012-04-22T07:34:29Z</time>
      </trkpt>
      <trkpt lat="44.38871" lon="4.7688">
        <ele>173.17</ele>
        <time>2012-04-22T07:34:33Z</time>
      </trkpt>
      <trkpt lat="44.3889" lon="4.76884">
        <ele>172.69</ele>
        <time>2012-04-22T07:34:37Z</time>
      </trkpt>
      <trkpt lat="44.38908" lon="4.76895">
        <ele>173.17</ele>
        <time>2012-04-22T07:34:42Z</time>
      </trkpt>
      <trkpt lat="44.38913" lon="4.76921">
        <ele>173.66</ele>
        <time>2012-04-22T07:34:50Z</time>
      </trkpt>
      <trkpt lat="44.38904" lon="4.76956">
        <ele>173.66</ele>
        <time>2012-04-22T07:34:57Z</time>
      </trkpt>
      <trkpt lat="44.38853" lon="4.77011">
        <ele>173.66</ele>
        <time>2012-04-22T07:35:06Z</time>
      </trkpt>
      <trkpt lat="44.38873" lon="4.77026">
        <ele>173.66</ele>
        <time>2012-04-22T07:35:13Z</time>
      </trkpt>
      <trkpt lat="44.3889" lon="4.77036">
        <ele>174.14</ele>
        <time>2012-04-22T07:35:18Z</time>
      </trkpt>
      <trkpt lat="44.38909" lon="4.77045">
        <ele>175.1</ele>
        <time>2012-04-22T07:35:24Z</time>
      </trkpt>
      <trkpt lat="44.38927" lon="4.77053">
        <ele>175.1</ele>
        <time>2012-04-22T07:35:31Z</time>
      </trkpt>
      <trkpt lat="44.38948" lon="4.77046">
        <ele>173.66</ele>
        <time>2012-04-22T07:35:38Z</time>
      </trkpt>
      <trkpt lat="44.38968" lon="4.77035">
        <ele>173.17</ele>
        <time>2012-04-22T07:35:44Z</time>
      </trkpt>
      <trkpt lat="44.38984" lon="4.77017">
        <ele>172.69</ele>
        <time>2012-04-22T07:35:50Z</time>
      </trkpt>
      <trkpt lat="44.39001" lon="4.77006">
        <ele>172.69</ele>
        <time>2012-04-22T07:35:54Z</time>
      </trkpt>
      <trkpt lat="44.39011" lon="4.77018">
        <ele>171.25</ele>
        <time>2012-04-22T07:36:00Z</time>
      </trkpt>
      <trkpt lat="44.39017" lon="4.77045">
        <ele>171.25</ele>
        <time>2012-04-22T07:36:06Z</time>
      </trkpt>
      <trkpt lat="44.39021" lon="4.77071">
        <ele>171.25</ele>
        <time>2012-04-22T07:36:12Z</time>
      </trkpt>
      <trkpt lat="44.39026" lon="4.77097">
        <ele>172.21</ele>
        <time>2012-04-22T07:36:18Z</time>
      </trkpt>
      <trkpt lat="44.39025" lon="4.77123">
        <ele>172.21</ele>
        <time>2012-04-22T07:36:24Z</time>
      </trkpt>
      <trkpt lat="44.39023" lon="4.77151">
        <ele>172.21</ele>
        <time>2012-04-22T07:36:31Z</time>
      </trkpt>
      <trkpt lat="44.39015" lon="4.77177">
        <ele>173.17</ele>
        <time>2012-04-22T07:36:39Z</time>
      </trkpt>
      <trkpt lat="44.39009" lon="4.77201">
        <ele>173.66</ele>
        <time>2012-04-22T07:36:45Z</time>
      </trkpt>
      <trkpt lat="44.39007" lon="4.77231">
        <ele>173.66</ele>
        <time>2012-04-22T07:36:51Z</time>
      </trkpt>
      <trkpt lat="44.39007" lon="4.77257">
        <ele>174.14</ele>
        <time>2012-04-22T07:36:56Z</time>
      </trkpt>
      <trkpt lat="44.39002" lon="4.77288">
        <ele>172.69</ele>
        <time>2012-04-22T07:37:02Z</time>
      </trkpt>
      <trkpt lat="44.38998" lon="4.77316">
        <ele>173.66</ele>
        <time>2012-04-22T07:37:07Z</time>
      </trkpt>
      <trkpt lat="44.38993" lon="4.77341">
        <ele>173.17</ele>
        <time>2012-04-22T07:37:12Z</time>
      </trkpt>
      <trkpt lat="44.3899" lon="4.77367">
        <ele>172.21</ele>
        <time>2012-04-22T07:37:18Z</time>
      </trkpt>
      <trkpt lat="44.38987" lon="4.7739">
        <ele>172.69</ele>
        <time>2012-04-22T07:37:29Z</time>
      </trkpt>
      <trkpt lat="44.38971" lon="4.77377">
        <ele>172.69</ele>
        <time>2012-04-22T07:37:38Z</time>
      </trkpt>
      <trkpt lat="44.38953" lon="4.77367">
        <ele>173.66</ele>
        <time>2012-04-22T07:37:43Z</time>
      </trkpt>
      <trkpt lat="44.38934" lon="4.77357">
        <ele>174.14</ele>
        <time>2012-04-22T07:37:48Z</time>
      </trkpt>
      <trkpt lat="44.38917" lon="4.77342">
        <ele>175.1</ele>
        <time>2012-04-22T07:37:53Z</time>
      </trkpt>
      <trkpt lat="44.38899" lon="4.77325">
        <ele>175.58</ele>
        <time>2012-04-22T07:37:58Z</time>
      </trkpt>
      <trkpt lat="44.38883" lon="4.77308">
        <ele>174.62</ele>
        <time>2012-04-22T07:38:03Z</time>
      </trkpt>
      <trkpt lat="44.38866" lon="4.77288">
        <ele>176.06</ele>
        <time>2012-04-22T07:38:08Z</time>
      </trkpt>
      <trkpt lat="44.38852" lon="4.77269">
        <ele>175.58</ele>
        <time>2012-04-22T07:38:12Z</time>
      </trkpt>
      <trkpt lat="44.38837" lon="4.77252">
        <ele>175.1</ele>
        <time>2012-04-22T07:38:16Z</time>
      </trkpt>
      <trkpt lat="44.38831" lon="4.77226">
        <ele>176.06</ele>
        <time>2012-04-22T07:38:20Z</time>
      </trkpt>
      <trkpt lat="44.38825" lon="4.77196">
        <ele>176.54</ele>
        <time>2012-04-22T07:38:24Z</time>
      </trkpt>
      <trkpt lat="44.38817" lon="4.77167">
        <ele>176.54</ele>
        <time>2012-04-22T07:38:28Z</time>
      </trkpt>
      <trkpt lat="44.38809" lon="4.77139">
        <ele>176.54</ele>
        <time>2012-04-22T07:38:32Z</time>
      </trkpt>
      <trkpt lat="44.38802" lon="4.7711">
        <ele>176.54</ele>
        <time>2012-04-22T07:38:36Z</time>
      </trkpt>
      <trkpt lat="44.38798" lon="4.77088">
        <ele>176.54</ele>
        <time>2012-04-22T07:38:41Z</time>
      </trkpt>
      <trkpt lat="44.38779" lon="4.77097">
        <ele>177.02</ele>
        <time>2012-04-22T07:38:48Z</time>
      </trkpt>
      <trkpt lat="44.38778" lon="4.77122">
        <ele>177.5</ele>
        <time>2012-04-22T07:38:57Z</time>
      </trkpt>
      <trkpt lat="44.3878" lon="4.77147">
        <ele>176.06</ele>
        <time>2012-04-22T07:39:04Z</time>
      </trkpt>
      <trkpt lat="44.38761" lon="4.7715">
        <ele>168.37</ele>
        <time>2012-04-22T07:39:12Z</time>
      </trkpt>
      <trkpt lat="44.38745" lon="4.77162">
        <ele>162.12</ele>
        <time>2012-04-22T07:39:18Z</time>
      </trkpt>
      <trkpt lat="44.3875" lon="4.77186">
        <ele>163.56</ele>
        <time>2012-04-22T07:39:25Z</time>
      </trkpt>
      <trkpt lat="44.3876" lon="4.77208">
        <ele>163.56</ele>
        <time>2012-04-22T07:39:31Z</time>
      </trkpt>
      <trkpt lat="44.3877" lon="4.77231">
        <ele>162.6</ele>
        <time>2012-04-22T07:39:37Z</time>
      </trkpt>
      <trkpt lat="44.38773" lon="4.77259">
        <ele>160.2</ele>
        <time>2012-04-22T07:39:43Z</time>
      </trkpt>
      <trkpt lat="44.38788" lon="4.77279">
        <ele>160.2</ele>
        <time>2012-04-22T07:39:49Z</time>
      </trkpt>
      <trkpt lat="44.38804" lon="4.77293">
        <ele>161.16</ele>
        <time>2012-04-22T07:39:54Z</time>
      </trkpt>
      <trkpt lat="44.38821" lon="4.77306">
        <ele>162.12</ele>
        <time>2012-04-22T07:39:59Z</time>
      </trkpt>
      <trkpt lat="44.38838" lon="4.77322">
        <ele>163.08</ele>
        <time>2012-04-22T07:40:05Z</time>
      </trkpt>
      <trkpt lat="44.38853" lon="4.77343">
        <ele>163.56</ele>
        <time>2012-04-22T07:40:11Z</time>
      </trkpt>
      <trkpt lat="44.38867" lon="4.77362">
        <ele>164.04</ele>
        <time>2012-04-22T07:40:16Z</time>
      </trkpt>
      <trkpt lat="44.38881" lon="4.77379">
        <ele>164.04</ele>
        <time>2012-04-22T07:40:22Z</time>
      </trkpt>
      <trkpt lat="44.38846" lon="4.77355">
        <ele>157.79</ele>
        <time>2012-04-22T07:40:36Z</time>
      </trkpt>
      <trkpt lat="44.388" lon="4.77318">
        <ele>152.99</ele>
        <time>2012-04-22T07:40:43Z</time>
      </trkpt>
      <trkpt lat="44.38763" lon="4.77305">
        <ele>151.06</ele>
        <time>2012-04-22T07:40:48Z</time>
      </trkpt>
      <trkpt lat="44.38739" lon="4.77293">
        <ele>149.62</ele>
        <time>2012-04-22T07:40:52Z</time>
      </trkpt>
      <trkpt lat="44.38717" lon="4.77283">
        <ele>148.18</ele>
        <time>2012-04-22T07:40:56Z</time>
      </trkpt>
      <trkpt lat="44.38696" lon="4.77275">
        <ele>146.74</ele>
        <time>2012-04-22T07:41:01Z</time>
      </trkpt>
      <trkpt lat="44.38674" lon="4.77271">
        <ele>144.34</ele>
        <time>2012-04-22T07:41:06Z</time>
      </trkpt>
      <trkpt lat="44.38657" lon="4.77256">
        <ele>144.34</ele>
        <time>2012-04-22T07:41:10Z</time>
      </trkpt>
      <trkpt lat="44.38641" lon="4.7724">
        <ele>141.45</ele>
        <time>2012-04-22T07:41:15Z</time>
      </trkpt>
      <trkpt lat="44.3864" lon="4.77256">
        <ele>140.01</ele>
        <time>2012-04-22T07:41:25Z</time>
      </trkpt>
      <trkpt lat="44.38652" lon="4.77276">
        <ele>141.45</ele>
        <time>2012-04-22T07:41:40Z</time>
      </trkpt>
      <trkpt lat="44.38666" lon="4.77292">
        <ele>142.41</ele>
        <time>2012-04-22T07:41:55Z</time>
      </trkpt>
      <trkpt lat="44.38683" lon="4.77303">
        <ele>142.89</ele>
        <time>2012-04-22T07:42:07Z</time>
      </trkpt>
      <trkpt lat="44.38703" lon="4.77313">
        <ele>144.34</ele>
        <time>2012-04-22T07:42:16Z</time>
      </trkpt>
      <trkpt lat="44.38721" lon="4.77318">
        <ele>145.3</ele>
        <time>2012-04-22T07:42:24Z</time>
      </trkpt>
      <trkpt lat="44.38741" lon="4.77324">
        <ele>147.22</ele>
        <time>2012-04-22T07:42:33Z</time>
      </trkpt>
      <trkpt lat="44.3876" lon="4.77331">
        <ele>148.66</ele>
        <time>2012-04-22T07:42:42Z</time>
      </trkpt>
      <trkpt lat="44.38779" lon="4.77338">
        <ele>150.1</ele>
        <time>2012-04-22T07:42:50Z</time>
      </trkpt>
      <trkpt lat="44.38798" lon="4.77345">
        <ele>152.51</ele>
        <time>2012-04-22T07:42:59Z</time>
      </trkpt>
      <trkpt lat="44.38815" lon="4.77355">
        <ele>153.47</ele>
        <time>2012-04-22T07:43:08Z</time>
      </trkpt>
      <trkpt lat="44.38833" lon="4.7737">
        <ele>155.39</ele>
        <time>2012-04-22T07:43:18Z</time>
      </trkpt>
      <trkpt lat="44.3885" lon="4.77383">
        <ele>157.31</ele>
        <time>2012-04-22T07:43:27Z</time>
      </trkpt>
      <trkpt lat="44.38868" lon="4.77394">
        <ele>159.72</ele>
        <time>2012-04-22T07:43:39Z</time>
      </trkpt>
      <trkpt lat="44.38888" lon="4.77404">
        <ele>163.08</ele>
        <time>2012-04-22T07:43:51Z</time>
      </trkpt>
      <trkpt lat="44.38905" lon="4.77413">
        <ele>165.48</ele>
        <time>2012-04-22T07:44:02Z</time>
      </trkpt>
      <trkpt lat="44.38923" lon="4.77424">
        <ele>165.48</ele>
        <time>2012-04-22T07:44:12Z</time>
      </trkpt>
      <trkpt lat="44.38939" lon="4.77442">
        <ele>165.96</ele>
        <time>2012-04-22T07:44:17Z</time>
      </trkpt>
      <trkpt lat="44.38954" lon="4.77459">
        <ele>164.52</ele>
        <time>2012-04-22T07:44:22Z</time>
      </trkpt>
      <trkpt lat="44.38966" lon="4.77478">
        <ele>165.48</ele>
        <time>2012-04-22T07:44:28Z</time>
      </trkpt>
      <trkpt lat="44.38955" lon="4.7751">
        <ele>161.64</ele>
        <time>2012-04-22T07:44:36Z</time>
      </trkpt>
      <trkpt lat="44.38941" lon="4.77544">
        <ele>160.68</ele>
        <time>2012-04-22T07:44:41Z</time>
      </trkpt>
      <trkpt lat="44.3894" lon="4.77577">
        <ele>159.72</ele>
        <time>2012-04-22T07:44:46Z</time>
      </trkpt>
      <trkpt lat="44.38942" lon="4.77608">
        <ele>158.75</ele>
        <time>2012-04-22T07:44:51Z</time>
      </trkpt>
      <trkpt lat="44.38943" lon="4.77635">
        <ele>156.83</ele>
        <time>2012-04-22T07:44:55Z</time>
      </trkpt>
      <trkpt lat="44.38943" lon="4.77662">
        <ele>156.35</ele>
        <time>2012-04-22T07:44:59Z</time>
      </trkpt>
      <trkpt lat="44.3895" lon="4.77689">
        <ele>157.79</ele>
        <time>2012-04-22T07:45:04Z</time>
      </trkpt>
      <trkpt lat="44.38957" lon="4.77718">
        <ele>157.79</ele>
        <time>2012-04-22T07:45:10Z</time>
      </trkpt>
      <trkpt lat="44.3896" lon="4.77746">
        <ele>158.27</ele>
        <time>2012-04-22T07:45:15Z</time>
      </trkpt>
      <trkpt lat="44.3897" lon="4.77768">
        <ele>158.27</ele>
        <time>2012-04-22T07:45:20Z</time>
      </trkpt>
      <trkpt lat="44.38985" lon="4.77783">
        <ele>160.68</ele>
        <time>2012-04-22T07:45:28Z</time>
      </trkpt>
      <trkpt lat="44.38992" lon="4.77806">
        <ele>161.16</ele>
        <time>2012-04-22T07:45:36Z</time>
      </trkpt>
      <trkpt lat="44.3901" lon="4.77803">
        <ele>164.04</ele>
        <time>2012-04-22T07:45:47Z</time>
      </trkpt>
      <trkpt lat="44.39029" lon="4.77806">
        <ele>168.37</ele>
        <time>2012-04-22T07:46:07Z</time>
      </trkpt>
      <trkpt lat="44.39044" lon="4.77792">
        <ele>169.81</ele>
        <time>2012-04-22T07:46:28Z</time>
      </trkpt>
      <trkpt lat="44.39063" lon="4.77793">
        <ele>170.29</ele>
        <time>2012-04-22T07:46:36Z</time>
      </trkpt>
      <trkpt lat="44.39085" lon="4.77789">
        <ele>169.81</ele>
        <time>2012-04-22T07:46:43Z</time>
      </trkpt>
      <trkpt lat="44.39107" lon="4.77784">
        <ele>170.29</ele>
        <time>2012-04-22T07:46:49Z</time>
      </trkpt>
      <trkpt lat="44.39129" lon="4.77792">
        <ele>170.29</ele>
        <time>2012-04-22T07:46:55Z</time>
      </trkpt>
      <trkpt lat="44.39146" lon="4.77811">
        <ele>171.25</ele>
        <time>2012-04-22T07:47:01Z</time>
      </trkpt>
      <trkpt lat="44.39155" lon="4.77839">
        <ele>170.29</ele>
        <time>2012-04-22T07:47:06Z</time>
      </trkpt>
      <trkpt lat="44.39163" lon="4.77863">
        <ele>170.29</ele>
        <time>2012-04-22T07:47:10Z</time>
      </trkpt>
      <trkpt lat="44.39161" lon="4.77888">
        <ele>169.33</ele>
        <time>2012-04-22T07:47:15Z</time>
      </trkpt>
      <trkpt lat="44.39137" lon="4.77901">
        <ele>165.48</ele>
        <time>2012-04-22T07:47:22Z</time>
      </trkpt>
      <trkpt lat="44.39099" lon="4.779">
        <ele>162.6</ele>
        <time>2012-04-22T07:47:27Z</time>
      </trkpt>
      <trkpt lat="44.39075" lon="4.7791">
        <ele>159.72</ele>
        <time>2012-04-22T07:47:31Z</time>
      </trkpt>
      <trkpt lat="44.39051" lon="4.77926">
        <ele>158.75</ele>
        <time>2012-04-22T07:47:35Z</time>
      </trkpt>
      <trkpt lat="44.39031" lon="4.77947">
        <ele>156.83</ele>
        <time>2012-04-22T07:47:39Z</time>
      </trkpt>
      <trkpt lat="44.39025" lon="4.77971">
        <ele>154.43</ele>
        <time>2012-04-22T07:47:49Z</time>
      </trkpt>
      <trkpt lat="44.39022" lon="4.77997">
        <ele>153.47</ele>
        <time>2012-04-22T07:47:53Z</time>
      </trkpt>
      <trkpt lat="44.3901" lon="4.78019">
        <ele>154.43</ele>
        <time>2012-04-22T07:47:58Z</time>
      </trkpt>
      <trkpt lat="44.39011" lon="4.78039">
        <ele>155.87</ele>
        <time>2012-04-22T07:48:09Z</time>
      </trkpt>
      <trkpt lat="44.3902" lon="4.78059">
        <ele>155.87</ele>
        <time>2012-04-22T07:48:17Z</time>
      </trkpt>
      <trkpt lat="44.39034" lon="4.78075">
        <ele>156.35</ele>
        <time>2012-04-22T07:48:24Z</time>
      </trkpt>
      <trkpt lat="44.39034" lon="4.78101">
        <ele>155.87</ele>
        <time>2012-04-22T07:48:30Z</time>
      </trkpt>
      <trkpt lat="44.39028" lon="4.78128">
        <ele>156.35</ele>
        <time>2012-04-22T07:48:36Z</time>
      </trkpt>
      <trkpt lat="44.3904" lon="4.78149">
        <ele>158.27</ele>
        <time>2012-04-22T07:48:43Z</time>
      </trkpt>
      <trkpt lat="44.3905" lon="4.78174">
        <ele>158.27</ele>
        <time>2012-04-22T07:48:49Z</time>
      </trkpt>
      <trkpt lat="44.3906" lon="4.78193">
        <ele>158.75</ele>
        <time>2012-04-22T07:48:56Z</time>
      </trkpt>
      <trkpt lat="44.39076" lon="4.78213">
        <ele>161.64</ele>
        <time>2012-04-22T07:49:04Z</time>
      </trkpt>
      <trkpt lat="44.39093" lon="4.78224">
        <ele>162.12</ele>
        <time>2012-04-22T07:49:10Z</time>
      </trkpt>
      <trkpt lat="44.39112" lon="4.78229">
        <ele>160.68</ele>
        <time>2012-04-22T07:49:15Z</time>
      </trkpt>
      <trkpt lat="44.39133" lon="4.78229">
        <ele>161.16</ele>
        <time>2012-04-22T07:49:21Z</time>
      </trkpt>
      <trkpt lat="44.39153" lon="4.78238">
        <ele>159.72</ele>
        <time>2012-04-22T07:49:28Z</time>
      </trkpt>
      <trkpt lat="44.39166" lon="4.78258">
        <ele>155.87</ele>
        <time>2012-04-22T07:49:36Z</time>
      </trkpt>
      <trkpt lat="44.3918" lon="4.78291">
        <ele>151.06</ele>
        <time>2012-04-22T07:49:42Z</time>
      </trkpt>
      <trkpt lat="44.39196" lon="4.78326">
        <ele>148.18</ele>
        <time>2012-04-22T07:49:47Z</time>
      </trkpt>
      <trkpt lat="44.39214" lon="4.78343">
        <ele>148.66</ele>
        <time>2012-04-22T07:49:52Z</time>
      </trkpt>
      <trkpt lat="44.39234" lon="4.78356">
        <ele>149.14</ele>
        <time>2012-04-22T07:49:58Z</time>
      </trkpt>
      <trkpt lat="44.39252" lon="4.78359">
        <ele>149.14</ele>
        <time>2012-04-22T07:50:03Z</time>
      </trkpt>
      <trkpt lat="44.3927" lon="4.78369">
        <ele>148.66</ele>
        <time>2012-04-22T07:50:09Z</time>
      </trkpt>
      <trkpt lat="44.39283" lon="4.78387">
        <ele>149.62</ele>
        <time>2012-04-22T07:50:18Z</time>
      </trkpt>
      <trkpt lat="44.39294" lon="4.78409">
        <ele>150.58</ele>
        <time>2012-04-22T07:50:25Z</time>
      </trkpt>
      <trkpt lat="44.39299" lon="4.78433">
        <ele>148.66</ele>
        <time>2012-04-22T07:50:32Z</time>
      </trkpt>
      <trkpt lat="44.39299" lon="4.78451">
        <ele>148.18</ele>
        <time>2012-04-22T07:50:49Z</time>
      </trkpt>
      <trkpt lat="44.3928" lon="4.78465">
        <ele>150.1</ele>
        <time>2012-04-22T07:51:12Z</time>
      </trkpt>
      <trkpt lat="44.39279" lon="4.78486">
        <ele>152.03</ele>
        <time>2012-04-22T07:51:26Z</time>
      </trkpt>
      <trkpt lat="44.39282" lon="4.78509">
        <ele>154.91</ele>
        <time>2012-04-22T07:51:41Z</time>
      </trkpt>
      <trkpt lat="44.39265" lon="4.78523">
        <ele>156.35</ele>
        <time>2012-04-22T07:51:52Z</time>
      </trkpt>
      <trkpt lat="44.39255" lon="4.78542">
        <ele>158.75</ele>
        <time>2012-04-22T07:52:05Z</time>
      </trkpt>
      <trkpt lat="44.39256" lon="4.78557">
        <ele>161.64</ele>
        <time>2012-04-22T07:53:42Z</time>
      </trkpt>
      <trkpt lat="44.39246" lon="4.78564">
        <ele>161.64</ele>
        <time>2012-04-22T07:54:19Z</time>
      </trkpt>
      <trkpt lat="44.3923" lon="4.78575">
        <ele>162.6</ele>
        <time>2012-04-22T07:54:46Z</time>
      </trkpt>
      <trkpt lat="44.39214" lon="4.78564">
        <ele>161.64</ele>
        <time>2012-04-22T07:54:56Z</time>
      </trkpt>
      <trkpt lat="44.39212" lon="4.78536">
        <ele>159.72</ele>
        <time>2012-04-22T07:55:02Z</time>
      </trkpt>
      <trkpt lat="44.39222" lon="4.78514">
        <ele>157.31</ele>
        <time>2012-04-22T07:55:07Z</time>
      </trkpt>
      <trkpt lat="44.3924" lon="4.78501">
        <ele>155.39</ele>
        <time>2012-04-22T07:55:13Z</time>
      </trkpt>
      <trkpt lat="44.39212" lon="4.78491">
        <ele>150.58</ele>
        <time>2012-04-22T07:55:24Z</time>
      </trkpt>
      <trkpt lat="44.39121" lon="4.78477">
        <ele>142.41</ele>
        <time>2012-04-22T07:55:37Z</time>
      </trkpt>
      <trkpt lat="44.39087" lon="4.78475">
        <ele>138.09</ele>
        <time>2012-04-22T07:55:42Z</time>
      </trkpt>
      <trkpt lat="44.39059" lon="4.78473">
        <ele>134.72</ele>
        <time>2012-04-22T07:55:46Z</time>
      </trkpt>
      <trkpt lat="44.39039" lon="4.78477">
        <ele>132.8</ele>
        <time>2012-04-22T07:55:50Z</time>
      </trkpt>
      <trkpt lat="44.39022" lon="4.78482">
        <ele>134.72</ele>
        <time>2012-04-22T07:55:57Z</time>
      </trkpt>
      <trkpt lat="44.39005" lon="4.78498">
        <ele>134.24</ele>
        <time>2012-04-22T07:56:05Z</time>
      </trkpt>
      <trkpt lat="44.3899" lon="4.78515">
        <ele>135.68</ele>
        <time>2012-04-22T07:56:11Z</time>
      </trkpt>
      <trkpt lat="44.38974" lon="4.78535">
        <ele>135.68</ele>
        <time>2012-04-22T07:56:17Z</time>
      </trkpt>
      <trkpt lat="44.3896" lon="4.78553">
        <ele>134.72</ele>
        <time>2012-04-22T07:56:22Z</time>
      </trkpt>
      <trkpt lat="44.38944" lon="4.78573">
        <ele>135.2</ele>
        <time>2012-04-22T07:56:27Z</time>
      </trkpt>
      <trkpt lat="44.38928" lon="4.78593">
        <ele>135.2</ele>
        <time>2012-04-22T07:56:31Z</time>
      </trkpt>
      <trkpt lat="44.3891" lon="4.78613">
        <ele>134.24</ele>
        <time>2012-04-22T07:56:35Z</time>
      </trkpt>
      <trkpt lat="44.38894" lon="4.78635">
        <ele>135.2</ele>
        <time>2012-04-22T07:56:39Z</time>
      </trkpt>
      <trkpt lat="44.38881" lon="4.78657">
        <ele>136.16</ele>
        <time>2012-04-22T07:56:44Z</time>
      </trkpt>
      <trkpt lat="44.38878" lon="4.78683">
        <ele>138.09</ele>
        <time>2012-04-22T07:56:52Z</time>
      </trkpt>
      <trkpt lat="44.38866" lon="4.787">
        <ele>140.01</ele>
        <time>2012-04-22T07:57:00Z</time>
      </trkpt>
      <trkpt lat="44.38846" lon="4.78705">
        <ele>138.57</ele>
        <time>2012-04-22T07:57:06Z</time>
      </trkpt>
      <trkpt lat="44.38828" lon="4.78704">
        <ele>136.64</ele>
        <time>2012-04-22T07:57:10Z</time>
      </trkpt>
      <trkpt lat="44.3881" lon="4.78699">
        <ele>133.76</ele>
        <time>2012-04-22T07:57:14Z</time>
      </trkpt>
      <trkpt lat="44.38789" lon="4.787">
        <ele>130.4</ele>
        <time>2012-04-22T07:57:20Z</time>
      </trkpt>
      <trkpt lat="44.3877" lon="4.78706">
        <ele>127.99</ele>
        <time>2012-04-22T07:57:28Z</time>
      </trkpt>
      <trkpt lat="44.38751" lon="4.78713">
        <ele>124.63</ele>
        <time>2012-04-22T07:57:34Z</time>
      </trkpt>
      <trkpt lat="44.38731" lon="4.78707">
        <ele>120.78</ele>
        <time>2012-04-22T07:57:44Z</time>
      </trkpt>
      <trkpt lat="44.38711" lon="4.78709">
        <ele>120.78</ele>
        <time>2012-04-22T07:57:51Z</time>
      </trkpt>
      <trkpt lat="44.38691" lon="4.78711">
        <ele>118.86</ele>
        <time>2012-04-22T07:57:57Z</time>
      </trkpt>
      <trkpt lat="44.38674" lon="4.78711">
        <ele>118.38</ele>
        <time>2012-04-22T07:58:04Z</time>
      </trkpt>
      <trkpt lat="44.38661" lon="4.78726">
        <ele>117.42</ele>
        <time>2012-04-22T07:58:12Z</time>
      </trkpt>
      <trkpt lat="44.38644" lon="4.78737">
        <ele>116.94</ele>
        <time>2012-04-22T07:58:19Z</time>
      </trkpt>
      <trkpt lat="44.38626" lon="4.78737">
        <ele>115.5</ele>
        <time>2012-04-22T07:58:26Z</time>
      </trkpt>
      <trkpt lat="44.38622" lon="4.78762">
        <ele>117.42</ele>
        <time>2012-04-22T07:58:37Z</time>
      </trkpt>
      <trkpt lat="44.38637" lon="4.78776">
        <ele>120.78</ele>
        <time>2012-04-22T07:58:49Z</time>
      </trkpt>
      <trkpt lat="44.38649" lon="4.78784">
        <ele>121.74</ele>
        <time>2012-04-22T07:59:01Z</time>
      </trkpt>
      <trkpt lat="44.38628" lon="4.78794">
        <ele>119.82</ele>
        <time>2012-04-22T07:59:09Z</time>
      </trkpt>
      <trkpt lat="44.38614" lon="4.78813">
        <ele>117.42</ele>
        <time>2012-04-22T07:59:17Z</time>
      </trkpt>
      <trkpt lat="44.38618" lon="4.78845">
        <ele>117.42</ele>
        <time>2012-04-22T07:59:24Z</time>
      </trkpt>
      <trkpt lat="44.38632" lon="4.78869">
        <ele>118.38</ele>
        <time>2012-04-22T07:59:31Z</time>
      </trkpt>
      <trkpt lat="44.38649" lon="4.7888">
        <ele>120.78</ele>
        <time>2012-04-22T07:59:40Z</time>
      </trkpt>
      <trkpt lat="44.38663" lon="4.78898">
        <ele>122.71</ele>
        <time>2012-04-22T07:59:49Z</time>
      </trkpt>
      <trkpt lat="44.38678" lon="4.78911">
        <ele>124.15</ele>
        <time>2012-04-22T07:59:59Z</time>
      </trkpt>
      <trkpt lat="44.38697" lon="4.78912">
        <ele>126.07</ele>
        <time>2012-04-22T08:00:10Z</time>
      </trkpt>
      <trkpt lat="44.38715" lon="4.78912">
        <ele>127.03</ele>
        <time>2012-04-22T08:00:20Z</time>
      </trkpt>
      <trkpt lat="44.38734" lon="4.78912">
        <ele>128.95</ele>
        <time>2012-04-22T08:00:30Z</time>
      </trkpt>
      <trkpt lat="44.38752" lon="4.78912">
        <ele>130.88</ele>
        <time>2012-04-22T08:00:40Z</time>
      </trkpt>
      <trkpt lat="44.38763" lon="4.78929">
        <ele>131.36</ele>
        <time>2012-04-22T08:00:50Z</time>
      </trkpt>
      <trkpt lat="44.38765" lon="4.78957">
        <ele>131.84</ele>
        <time>2012-04-22T08:00:56Z</time>
      </trkpt>
      <trkpt lat="44.38768" lon="4.78983">
        <ele>130.88</ele>
        <time>2012-04-22T08:01:02Z</time>
      </trkpt>
      <trkpt lat="44.38773" lon="4.79011">
        <ele>130.88</ele>
        <time>2012-04-22T08:01:08Z</time>
      </trkpt>
      <trkpt lat="44.38778" lon="4.79038">
        <ele>131.84</ele>
        <time>2012-04-22T08:01:14Z</time>
      </trkpt>
      <trkpt lat="44.38782" lon="4.79065">
        <ele>131.36</ele>
        <time>2012-04-22T08:01:20Z</time>
      </trkpt>
      <trkpt lat="44.38795" lon="4.79084">
        <ele>133.28</ele>
        <time>2012-04-22T08:01:28Z</time>
      </trkpt>
      <trkpt lat="44.38819" lon="4.79076">
        <ele>134.24</ele>
        <time>2012-04-22T08:01:35Z</time>
      </trkpt>
      <trkpt lat="44.3884" lon="4.79072">
        <ele>135.2</ele>
        <time>2012-04-22T08:01:43Z</time>
      </trkpt>
      <trkpt lat="44.38858" lon="4.79076">
        <ele>137.61</ele>
        <time>2012-04-22T08:01:52Z</time>
      </trkpt>
      <trkpt lat="44.38877" lon="4.79074">
        <ele>138.09</ele>
        <time>2012-04-22T08:02:00Z</time>
      </trkpt>
      <trkpt lat="44.38897" lon="4.79075">
        <ele>138.09</ele>
        <time>2012-04-22T08:02:07Z</time>
      </trkpt>
      <trkpt lat="44.38918" lon="4.79076">
        <ele>138.09</ele>
        <time>2012-04-22T08:02:13Z</time>
      </trkpt>
      <trkpt lat="44.38936" lon="4.79077">
        <ele>137.61</ele>
        <time>2012-04-22T08:02:20Z</time>
      </trkpt>
      <trkpt lat="44.38937" lon="4.79045">
        <ele>139.53</ele>
        <time>2012-04-22T08:02:28Z</time>
      </trkpt>
      <trkpt lat="44.38937" lon="4.79016">
        <ele>141.93</ele>
        <time>2012-04-22T08:02:36Z</time>
      </trkpt>
      <trkpt lat="44.38926" lon="4.78996">
        <ele>143.37</ele>
        <time>2012-04-22T08:02:44Z</time>
      </trkpt>
      <trkpt lat="44.38912" lon="4.78975">
        <ele>145.3</ele>
        <time>2012-04-22T08:02:53Z</time>
      </trkpt>
      <trkpt lat="44.38911" lon="4.78945">
        <ele>147.22</ele>
        <time>2012-04-22T08:03:00Z</time>
      </trkpt>
      <trkpt lat="44.38911" lon="4.78916">
        <ele>146.74</ele>
        <time>2012-04-22T08:03:06Z</time>
      </trkpt>
      <trkpt lat="44.38912" lon="4.7889">
        <ele>148.18</ele>
        <time>2012-04-22T08:03:11Z</time>
      </trkpt>
      <trkpt lat="44.38912" lon="4.78863">
        <ele>147.22</ele>
        <time>2012-04-22T08:03:16Z</time>
      </trkpt>
      <trkpt lat="44.38927" lon="4.78847">
        <ele>147.7</ele>
        <time>2012-04-22T08:03:23Z</time>
      </trkpt>
      <trkpt lat="44.3895" lon="4.78847">
        <ele>148.66</ele>
        <time>2012-04-22T08:03:29Z</time>
      </trkpt>
      <trkpt lat="44.38963" lon="4.78829">
        <ele>148.66</ele>
        <time>2012-04-22T08:03:35Z</time>
      </trkpt>
      <trkpt lat="44.38958" lon="4.78802">
        <ele>150.58</ele>
        <time>2012-04-22T08:03:42Z</time>
      </trkpt>
      <trkpt lat="44.38951" lon="4.78774">
        <ele>152.99</ele>
        <time>2012-04-22T08:03:49Z</time>
      </trkpt>
      <trkpt lat="44.38956" lon="4.78745">
        <ele>153.47</ele>
        <time>2012-04-22T08:03:56Z</time>
      </trkpt>
      <trkpt lat="44.38964" lon="4.78721">
        <ele>153.95</ele>
        <time>2012-04-22T08:04:03Z</time>
      </trkpt>
      <trkpt lat="44.38977" lon="4.78699">
        <ele>154.91</ele>
        <time>2012-04-22T08:04:10Z</time>
      </trkpt>
      <trkpt lat="44.38992" lon="4.78682">
        <ele>156.83</ele>
        <time>2012-04-22T08:04:17Z</time>
      </trkpt>
      <trkpt lat="44.3901" lon="4.78672">
        <ele>156.83</ele>
        <time>2012-04-22T08:04:25Z</time>
      </trkpt>
      <trkpt lat="44.39026" lon="4.78657">
        <ele>158.27</ele>
        <time>2012-04-22T08:04:34Z</time>
      </trkpt>
      <trkpt lat="44.39042" lon="4.78654">
        <ele>160.2</ele>
        <time>2012-04-22T08:04:43Z</time>
      </trkpt>
      <trkpt lat="44.3905" lon="4.78676">
        <ele>163.08</ele>
        <time>2012-04-22T08:04:54Z</time>
      </trkpt>
      <trkpt lat="44.39058" lon="4.78695">
        <ele>165.48</ele>
        <time>2012-04-22T08:05:04Z</time>
      </trkpt>
      <trkpt lat="44.39077" lon="4.78706">
        <ele>165.48</ele>
        <time>2012-04-22T08:05:14Z</time>
      </trkpt>
      <trkpt lat="44.39097" lon="4.78711">
        <ele>165.96</ele>
        <time>2012-04-22T08:05:22Z</time>
      </trkpt>
      <trkpt lat="44.39117" lon="4.78715">
        <ele>167.41</ele>
        <time>2012-04-22T08:05:29Z</time>
      </trkpt>
      <trkpt lat="44.39134" lon="4.78725">
        <ele>168.37</ele>
        <time>2012-04-22T08:05:36Z</time>
      </trkpt>
      <trkpt lat="44.39151" lon="4.78728">
        <ele>168.85</ele>
        <time>2012-04-22T08:05:43Z</time>
      </trkpt>
      <trkpt lat="44.39169" lon="4.78722">
        <ele>169.33</ele>
        <time>2012-04-22T08:05:50Z</time>
      </trkpt>
      <trkpt lat="44.39187" lon="4.78729">
        <ele>173.17</ele>
        <time>2012-04-22T08:05:58Z</time>
      </trkpt>
      <trkpt lat="44.39195" lon="4.78742">
        <ele>173.66</ele>
        <time>2012-04-22T08:06:11Z</time>
      </trkpt>
      <trkpt lat="44.39201" lon="4.78765">
        <ele>176.06</ele>
        <time>2012-04-22T08:06:23Z</time>
      </trkpt>
      <trkpt lat="44.39208" lon="4.78787">
        <ele>177.02</ele>
        <time>2012-04-22T08:06:35Z</time>
      </trkpt>
      <trkpt lat="44.39224" lon="4.78795">
        <ele>180.38</ele>
        <time>2012-04-22T08:06:47Z</time>
      </trkpt>
      <trkpt lat="44.39239" lon="4.78787">
        <ele>182.31</ele>
        <time>2012-04-22T08:07:05Z</time>
      </trkpt>
      <trkpt lat="44.39256" lon="4.7879">
        <ele>184.23</ele>
        <time>2012-04-22T08:07:18Z</time>
      </trkpt>
      <trkpt lat="44.39274" lon="4.78788">
        <ele>187.59</ele>
        <time>2012-04-22T08:07:31Z</time>
      </trkpt>
      <trkpt lat="44.39293" lon="4.78784">
        <ele>187.59</ele>
        <time>2012-04-22T08:07:44Z</time>
      </trkpt>
      <trkpt lat="44.3931" lon="4.78774">
        <ele>188.56</ele>
        <time>2012-04-22T08:07:54Z</time>
      </trkpt>
      <trkpt lat="44.39328" lon="4.78772">
        <ele>191.92</ele>
        <time>2012-04-22T08:08:06Z</time>
      </trkpt>
      <trkpt lat="44.39345" lon="4.78767">
        <ele>194.32</ele>
        <time>2012-04-22T08:08:23Z</time>
      </trkpt>
      <trkpt lat="44.39362" lon="4.78758">
        <ele>194.8</ele>
        <time>2012-04-22T08:08:36Z</time>
      </trkpt>
      <trkpt lat="44.39382" lon="4.78748">
        <ele>195.28</ele>
        <time>2012-04-22T08:08:49Z</time>
      </trkpt>
      <trkpt lat="44.39401" lon="4.78734">
        <ele>194.8</ele>
        <time>2012-04-22T08:08:57Z</time>
      </trkpt>
      <trkpt lat="44.39418" lon="4.78724">
        <ele>196.25</ele>
        <time>2012-04-22T08:09:07Z</time>
      </trkpt>
      <trkpt lat="44.39434" lon="4.78727">
        <ele>198.65</ele>
        <time>2012-04-22T08:09:19Z</time>
      </trkpt>
      <trkpt lat="44.3945" lon="4.78711">
        <ele>200.09</ele>
        <time>2012-04-22T08:09:29Z</time>
      </trkpt>
      <trkpt lat="44.39465" lon="4.78696">
        <ele>199.61</ele>
        <time>2012-04-22T08:09:37Z</time>
      </trkpt>
      <trkpt lat="44.39484" lon="4.7869">
        <ele>200.09</ele>
        <time>2012-04-22T08:09:44Z</time>
      </trkpt>
      <trkpt lat="44.39503" lon="4.78695">
        <ele>201.05</ele>
        <time>2012-04-22T08:09:52Z</time>
      </trkpt>
      <trkpt lat="44.39522" lon="4.78695">
        <ele>201.05</ele>
        <time>2012-04-22T08:09:59Z</time>
      </trkpt>
      <trkpt lat="44.39539" lon="4.78681">
        <ele>200.09</ele>
        <time>2012-04-22T08:10:06Z</time>
      </trkpt>
      <trkpt lat="44.39544" lon="4.78652">
        <ele>199.61</ele>
        <time>2012-04-22T08:10:15Z</time>
      </trkpt>
      <trkpt lat="44.39555" lon="4.78641">
        <ele>202.01</ele>
        <time>2012-04-22T08:10:45Z</time>
      </trkpt>
      <trkpt lat="44.3955" lon="4.78607">
        <ele>199.61</ele>
        <time>2012-04-22T08:10:51Z</time>
      </trkpt>
      <trkpt lat="44.39541" lon="4.78572">
        <ele>194.8</ele>
        <time>2012-04-22T08:10:55Z</time>
      </trkpt>
      <trkpt lat="44.39536" lon="4.78534">
        <ele>192.88</ele>
        <time>2012-04-22T08:10:58Z</time>
      </trkpt>
      <trkpt lat="44.39529" lon="4.78506">
        <ele>190.96</ele>
        <time>2012-04-22T08:11:02Z</time>
      </trkpt>
      <trkpt lat="44.39521" lon="4.78482">
        <ele>190.96</ele>
        <time>2012-04-22T08:11:07Z</time>
      </trkpt>
      <trkpt lat="44.39507" lon="4.78455">
        <ele>190</ele>
        <time>2012-04-22T08:11:12Z</time>
      </trkpt>
      <trkpt lat="44.39497" lon="4.78432">
        <ele>187.59</ele>
        <time>2012-04-22T08:11:18Z</time>
      </trkpt>
      <trkpt lat="44.39489" lon="4.78404">
        <ele>186.15</ele>
        <time>2012-04-22T08:11:23Z</time>
      </trkpt>
      <trkpt lat="44.39482" lon="4.78377">
        <ele>185.19</ele>
        <time>2012-04-22T08:11:27Z</time>
      </trkpt>
      <trkpt lat="44.39473" lon="4.78351">
        <ele>183.75</ele>
        <time>2012-04-22T08:11:31Z</time>
      </trkpt>
      <trkpt lat="44.39461" lon="4.78328">
        <ele>183.27</ele>
        <time>2012-04-22T08:11:35Z</time>
      </trkpt>
      <trkpt lat="44.39451" lon="4.78305">
        <ele>181.83</ele>
        <time>2012-04-22T08:11:39Z</time>
      </trkpt>
      <trkpt lat="44.39432" lon="4.78292">
        <ele>177.5</ele>
        <time>2012-04-22T08:11:46Z</time>
      </trkpt>
      <trkpt lat="44.39418" lon="4.78271">
        <ele>176.06</ele>
        <time>2012-04-22T08:11:52Z</time>
      </trkpt>
      <trkpt lat="44.394" lon="4.78252">
        <ele>175.1</ele>
        <time>2012-04-22T08:11:58Z</time>
      </trkpt>
      <trkpt lat="44.39391" lon="4.78229">
        <ele>174.62</ele>
        <time>2012-04-22T08:12:03Z</time>
      </trkpt>
      <trkpt lat="44.39382" lon="4.78208">
        <ele>175.58</ele>
        <time>2012-04-22T08:12:11Z</time>
      </trkpt>
      <trkpt lat="44.39367" lon="4.78191">
        <ele>176.06</ele>
        <time>2012-04-22T08:12:17Z</time>
      </trkpt>
      <trkpt lat="44.3936" lon="4.78161">
        <ele>174.14</ele>
        <time>2012-04-22T08:12:22Z</time>
      </trkpt>
      <trkpt lat="44.39352" lon="4.78133">
        <ele>173.66</ele>
        <time>2012-04-22T08:12:26Z</time>
      </trkpt>
      <trkpt lat="44.39342" lon="4.78106">
        <ele>172.69</ele>
        <time>2012-04-22T08:12:30Z</time>
      </trkpt>
      <trkpt lat="44.39331" lon="4.78081">
        <ele>173.17</ele>
        <time>2012-04-22T08:12:34Z</time>
      </trkpt>
      <trkpt lat="44.39322" lon="4.78054">
        <ele>171.73</ele>
        <time>2012-04-22T08:12:38Z</time>
      </trkpt>
      <trkpt lat="44.39319" lon="4.78029">
        <ele>170.77</ele>
        <time>2012-04-22T08:12:41Z</time>
      </trkpt>
      <trkpt lat="44.39316" lon="4.78002">
        <ele>170.77</ele>
        <time>2012-04-22T08:12:44Z</time>
      </trkpt>
      <trkpt lat="44.39313" lon="4.77976">
        <ele>169.81</ele>
        <time>2012-04-22T08:12:47Z</time>
      </trkpt>
      <trkpt lat="44.39308" lon="4.7795">
        <ele>169.81</ele>
        <time>2012-04-22T08:12:51Z</time>
      </trkpt>
      <trkpt lat="44.39304" lon="4.77923">
        <ele>169.81</ele>
        <time>2012-04-22T08:12:55Z</time>
      </trkpt>
      <trkpt lat="44.39298" lon="4.77896">
        <ele>171.25</ele>
        <time>2012-04-22T08:13:00Z</time>
      </trkpt>
      <trkpt lat="44.3929" lon="4.77869">
        <ele>171.73</ele>
        <time>2012-04-22T08:13:06Z</time>
      </trkpt>
      <trkpt lat="44.39275" lon="4.7785">
        <ele>171.25</ele>
        <time>2012-04-22T08:13:11Z</time>
      </trkpt>
      <trkpt lat="44.39257" lon="4.77832">
        <ele>170.29</ele>
        <time>2012-04-22T08:13:15Z</time>
      </trkpt>
      <trkpt lat="44.39241" lon="4.77822">
        <ele>170.77</ele>
        <time>2012-04-22T08:13:19Z</time>
      </trkpt>
      <trkpt lat="44.39224" lon="4.77805">
        <ele>170.29</ele>
        <time>2012-04-22T08:13:24Z</time>
      </trkpt>
      <trkpt lat="44.39209" lon="4.77784">
        <ele>170.77</ele>
        <time>2012-04-22T08:13:30Z</time>
      </trkpt>
      <trkpt lat="44.39219" lon="4.77759">
        <ele>170.77</ele>
        <time>2012-04-22T08:13:37Z</time>
      </trkpt>
      <trkpt lat="44.3923" lon="4.77737">
        <ele>170.29</ele>
        <time>2012-04-22T08:13:42Z</time>
      </trkpt>
      <trkpt lat="44.39249" lon="4.77725">
        <ele>169.81</ele>
        <time>2012-04-22T08:13:47Z</time>
      </trkpt>
      <trkpt lat="44.39267" lon="4.77717">
        <ele>169.33</ele>
        <time>2012-04-22T08:13:51Z</time>
      </trkpt>
      <trkpt lat="44.39285" lon="4.77702">
        <ele>167.41</ele>
        <time>2012-04-22T08:13:58Z</time>
      </trkpt>
      <trkpt lat="44.39298" lon="4.77674">
        <ele>166.45</ele>
        <time>2012-04-22T08:14:05Z</time>
      </trkpt>
      <trkpt lat="44.39297" lon="4.77644">
        <ele>165.96</ele>
        <time>2012-04-22T08:14:09Z</time>
      </trkpt>
      <trkpt lat="44.393" lon="4.77615">
        <ele>165</ele>
        <time>2012-04-22T08:14:13Z</time>
      </trkpt>
      <trkpt lat="44.39295" lon="4.77592">
        <ele>164.52</ele>
        <time>2012-04-22T08:14:18Z</time>
      </trkpt>
      <trkpt lat="44.39277" lon="4.77593">
        <ele>165.96</ele>
        <time>2012-04-22T08:14:26Z</time>
      </trkpt>
      <trkpt lat="44.39259" lon="4.77596">
        <ele>167.41</ele>
        <time>2012-04-22T08:14:33Z</time>
      </trkpt>
      <trkpt lat="44.39241" lon="4.77591">
        <ele>168.37</ele>
        <time>2012-04-22T08:14:39Z</time>
      </trkpt>
      <trkpt lat="44.39223" lon="4.77575">
        <ele>168.85</ele>
        <time>2012-04-22T08:14:45Z</time>
      </trkpt>
      <trkpt lat="44.39204" lon="4.77572">
        <ele>168.85</ele>
        <time>2012-04-22T08:14:50Z</time>
      </trkpt>
      <trkpt lat="44.39186" lon="4.77583">
        <ele>168.85</ele>
        <time>2012-04-22T08:14:55Z</time>
      </trkpt>
      <trkpt lat="44.39169" lon="4.77592">
        <ele>168.37</ele>
        <time>2012-04-22T08:15:00Z</time>
      </trkpt>
      <trkpt lat="44.39162" lon="4.77618">
        <ele>169.33</ele>
        <time>2012-04-22T08:15:06Z</time>
      </trkpt>
      <trkpt lat="44.39152" lon="4.77639">
        <ele>169.81</ele>
        <time>2012-04-22T08:15:12Z</time>
      </trkpt>
      <trkpt lat="44.39141" lon="4.77665">
        <ele>170.29</ele>
        <time>2012-04-22T08:15:18Z</time>
      </trkpt>
      <trkpt lat="44.39133" lon="4.7769">
        <ele>171.25</ele>
        <time>2012-04-22T08:15:24Z</time>
      </trkpt>
      <trkpt lat="44.39117" lon="4.77697">
        <ele>172.21</ele>
        <time>2012-04-22T08:15:32Z</time>
      </trkpt>
      <trkpt lat="44.3909" lon="4.77671">
        <ele>172.69</ele>
        <time>2012-04-22T08:15:40Z</time>
      </trkpt>
      <trkpt lat="44.39072" lon="4.77652">
        <ele>173.17</ele>
        <time>2012-04-22T08:15:45Z</time>
      </trkpt>
      <trkpt lat="44.39061" lon="4.77625">
        <ele>172.69</ele>
        <time>2012-04-22T08:15:50Z</time>
      </trkpt>
      <trkpt lat="44.39046" lon="4.77603">
        <ele>172.69</ele>
        <time>2012-04-22T08:15:55Z</time>
      </trkpt>
      <trkpt lat="44.3903" lon="4.77589">
        <ele>172.21</ele>
        <time>2012-04-22T08:15:59Z</time>
      </trkpt>
      <trkpt lat="44.39014" lon="4.77572">
        <ele>171.73</ele>
        <time>2012-04-22T08:16:03Z</time>
      </trkpt>
      <trkpt lat="44.38998" lon="4.77548">
        <ele>169.81</ele>
        <time>2012-04-22T08:16:07Z</time>
      </trkpt>
      <trkpt lat="44.38984" lon="4.77526">
        <ele>168.85</ele>
        <time>2012-04-22T08:16:12Z</time>
      </trkpt>
      <trkpt lat="44.38994" lon="4.77517">
        <ele>168.85</ele>
        <time>2012-04-22T08:16:20Z</time>
      </trkpt>
      <trkpt lat="44.39012" lon="4.77507">
        <ele>169.81</ele>
        <time>2012-04-22T08:16:25Z</time>
      </trkpt>
      <trkpt lat="44.39026" lon="4.77492">
        <ele>170.77</ele>
        <time>2012-04-22T08:16:30Z</time>
      </trkpt>
      <trkpt lat="44.39048" lon="4.77491">
        <ele>170.77</ele>
        <time>2012-04-22T08:16:35Z</time>
      </trkpt>
      <trkpt lat="44.39069" lon="4.77493">
        <ele>170.29</ele>
        <time>2012-04-22T08:16:39Z</time>
      </trkpt>
      <trkpt lat="44.39091" lon="4.77496">
        <ele>170.77</ele>
        <time>2012-04-22T08:16:43Z</time>
      </trkpt>
      <trkpt lat="44.39114" lon="4.7749">
        <ele>169.81</ele>
        <time>2012-04-22T08:16:47Z</time>
      </trkpt>
      <trkpt lat="44.39135" lon="4.77475">
        <ele>169.33</ele>
        <time>2012-04-22T08:16:51Z</time>
      </trkpt>
      <trkpt lat="44.39158" lon="4.77464">
        <ele>167.89</ele>
        <time>2012-04-22T08:16:55Z</time>
      </trkpt>
      <trkpt lat="44.39179" lon="4.77456">
        <ele>167.41</ele>
        <time>2012-04-22T08:16:59Z</time>
      </trkpt>
      <trkpt lat="44.392" lon="4.77454">
        <ele>166.93</ele>
        <time>2012-04-22T08:17:03Z</time>
      </trkpt>
      <trkpt lat="44.39221" lon="4.77454">
        <ele>166.93</ele>
        <time>2012-04-22T08:17:07Z</time>
      </trkpt>
      <trkpt lat="44.39244" lon="4.77459">
        <ele>165.48</ele>
        <time>2012-04-22T08:17:11Z</time>
      </trkpt>
      <trkpt lat="44.39265" lon="4.77452">
        <ele>163.56</ele>
        <time>2012-04-22T08:17:16Z</time>
      </trkpt>
      <trkpt lat="44.39286" lon="4.77443">
        <ele>163.56</ele>
        <time>2012-04-22T08:17:22Z</time>
      </trkpt>
      <trkpt lat="44.39306" lon="4.77435">
        <ele>163.56</ele>
        <time>2012-04-22T08:17:29Z</time>
      </trkpt>
      <trkpt lat="44.39324" lon="4.77422">
        <ele>163.08</ele>
        <time>2012-04-22T08:17:37Z</time>
      </trkpt>
      <trkpt lat="44.39343" lon="4.77412">
        <ele>163.08</ele>
        <time>2012-04-22T08:17:42Z</time>
      </trkpt>
      <trkpt lat="44.39354" lon="4.77434">
        <ele>163.08</ele>
        <time>2012-04-22T08:17:49Z</time>
      </trkpt>
      <trkpt lat="44.39358" lon="4.7746">
        <ele>163.08</ele>
        <time>2012-04-22T08:17:55Z</time>
      </trkpt>
      <trkpt lat="44.39361" lon="4.77485">
        <ele>162.6</ele>
        <time>2012-04-22T08:18:00Z</time>
      </trkpt>
      <trkpt lat="44.3937" lon="4.77502">
        <ele>161.16</ele>
        <time>2012-04-22T08:18:10Z</time>
      </trkpt>
      <trkpt lat="44.3939" lon="4.77497">
        <ele>155.39</ele>
        <time>2012-04-22T08:18:33Z</time>
      </trkpt>
      <trkpt lat="44.39409" lon="4.77519">
        <ele>152.03</ele>
        <time>2012-04-22T08:18:45Z</time>
      </trkpt>
      <trkpt lat="44.3942" lon="4.77536">
        <ele>152.99</ele>
        <time>2012-04-22T08:18:56Z</time>
      </trkpt>
      <trkpt lat="44.39428" lon="4.77514">
        <ele>151.06</ele>
        <time>2012-04-22T08:19:11Z</time>
      </trkpt>
      <trkpt lat="44.39436" lon="4.77515">
        <ele>151.06</ele>
        <time>2012-04-22T08:20:08Z</time>
      </trkpt>
      <trkpt lat="44.39445" lon="4.77503">
        <ele>152.99</ele>
        <time>2012-04-22T08:20:55Z</time>
      </trkpt>
      <trkpt lat="44.39447" lon="4.77513">
        <ele>152.99</ele>
        <time>2012-04-22T08:28:01Z</time>
      </trkpt>
      <trkpt lat="44.39449" lon="4.77502">
        <ele>154.43</ele>
        <time>2012-04-22T08:32:22Z</time>
      </trkpt>
      <trkpt lat="44.39457" lon="4.77493">
        <ele>154.43</ele>
        <time>2012-04-22T08:33:12Z</time>
      </trkpt>
      <trkpt lat="44.39474" lon="4.7747">
        <ele>155.39</ele>
        <time>2012-04-22T08:33:19Z</time>
      </trkpt>
      <trkpt lat="44.39488" lon="4.77449">
        <ele>157.79</ele>
        <time>2012-04-22T08:33:27Z</time>
      </trkpt>
      <trkpt lat="44.39488" lon="4.77459">
        <ele>158.75</ele>
        <time>2012-04-22T08:33:40Z</time>
      </trkpt>
      <trkpt lat="44.3948" lon="4.77483">
        <ele>159.72</ele>
        <time>2012-04-22T08:33:48Z</time>
      </trkpt>
      <trkpt lat="44.39475" lon="4.77507">
        <ele>162.12</ele>
        <time>2012-04-22T08:33:57Z</time>
      </trkpt>
      <trkpt lat="44.39467" lon="4.77532">
        <ele>164.52</ele>
        <time>2012-04-22T08:34:07Z</time>
      </trkpt>
      <trkpt lat="44.39478" lon="4.77527">
        <ele>165.96</ele>
        <time>2012-04-22T08:34:19Z</time>
      </trkpt>
      <trkpt lat="44.39482" lon="4.77502">
        <ele>165</ele>
        <time>2012-04-22T08:34:31Z</time>
      </trkpt>
      <trkpt lat="44.39495" lon="4.77483">
        <ele>164.52</ele>
        <time>2012-04-22T08:34:38Z</time>
      </trkpt>
      <trkpt lat="44.39504" lon="4.77462">
        <ele>164.52</ele>
        <time>2012-04-22T08:34:48Z</time>
      </trkpt>
      <trkpt lat="44.39511" lon="4.77437">
        <ele>165.96</ele>
        <time>2012-04-22T08:34:59Z</time>
      </trkpt>
      <trkpt lat="44.39507" lon="4.77412">
        <ele>166.45</ele>
        <time>2012-04-22T08:35:07Z</time>
      </trkpt>
      <trkpt lat="44.39513" lon="4.77384">
        <ele>164.04</ele>
        <time>2012-04-22T08:35:14Z</time>
      </trkpt>
      <trkpt lat="44.39525" lon="4.77367">
        <ele>165.48</ele>
        <time>2012-04-22T08:35:21Z</time>
      </trkpt>
      <trkpt lat="44.39542" lon="4.77349">
        <ele>165</ele>
        <time>2012-04-22T08:35:27Z</time>
      </trkpt>
      <trkpt lat="44.39552" lon="4.77328">
        <ele>165.48</ele>
        <time>2012-04-22T08:35:32Z</time>
      </trkpt>
      <trkpt lat="44.39569" lon="4.77315">
        <ele>166.45</ele>
        <time>2012-04-22T08:35:38Z</time>
      </trkpt>
      <trkpt lat="44.39587" lon="4.77305">
        <ele>166.93</ele>
        <time>2012-04-22T08:35:43Z</time>
      </trkpt>
      <trkpt lat="44.39608" lon="4.77306">
        <ele>168.37</ele>
        <time>2012-04-22T08:35:49Z</time>
      </trkpt>
      <trkpt lat="44.39626" lon="4.77303">
        <ele>164.04</ele>
        <time>2012-04-22T08:35:56Z</time>
      </trkpt>
      <trkpt lat="44.39629" lon="4.77285">
        <ele>165.48</ele>
        <time>2012-04-22T08:36:08Z</time>
      </trkpt>
      <trkpt lat="44.3962" lon="4.77261">
        <ele>166.45</ele>
        <time>2012-04-22T08:36:28Z</time>
      </trkpt>
      <trkpt lat="44.39612" lon="4.77239">
        <ele>167.41</ele>
        <time>2012-04-22T08:36:41Z</time>
      </trkpt>
      <trkpt lat="44.39601" lon="4.77216">
        <ele>167.41</ele>
        <time>2012-04-22T08:36:51Z</time>
      </trkpt>
      <trkpt lat="44.39584" lon="4.772">
        <ele>166.45</ele>
        <time>2012-04-22T08:36:58Z</time>
      </trkpt>
      <trkpt lat="44.39567" lon="4.77188">
        <ele>167.41</ele>
        <time>2012-04-22T08:37:05Z</time>
      </trkpt>
      <trkpt lat="44.39556" lon="4.77172">
        <ele>166.93</ele>
        <time>2012-04-22T08:37:14Z</time>
      </trkpt>
      <trkpt lat="44.39541" lon="4.77159">
        <ele>167.41</ele>
        <time>2012-04-22T08:37:22Z</time>
      </trkpt>
      <trkpt lat="44.39518" lon="4.77154">
        <ele>167.89</ele>
        <time>2012-04-22T08:37:29Z</time>
      </trkpt>
      <trkpt lat="44.39502" lon="4.77136">
        <ele>166.93</ele>
        <time>2012-04-22T08:37:36Z</time>
      </trkpt>
      <trkpt lat="44.39482" lon="4.77127">
        <ele>167.89</ele>
        <time>2012-04-22T08:37:42Z</time>
      </trkpt>
      <trkpt lat="44.39465" lon="4.77114">
        <ele>167.41</ele>
        <time>2012-04-22T08:37:48Z</time>
      </trkpt>
      <trkpt lat="44.39459" lon="4.77086">
        <ele>167.89</ele>
        <time>2012-04-22T08:37:55Z</time>
      </trkpt>
      <trkpt lat="44.39451" lon="4.7706">
        <ele>168.37</ele>
        <time>2012-04-22T08:38:01Z</time>
      </trkpt>
      <trkpt lat="44.39444" lon="4.7704">
        <ele>168.37</ele>
        <time>2012-04-22T08:38:07Z</time>
      </trkpt>
      <trkpt lat="44.39441" lon="4.77019">
        <ele>168.37</ele>
        <time>2012-04-22T08:38:14Z</time>
      </trkpt>
      <trkpt lat="44.39433" lon="4.77">
        <ele>168.85</ele>
        <time>2012-04-22T08:38:20Z</time>
      </trkpt>
      <trkpt lat="44.39425" lon="4.76974">
        <ele>169.33</ele>
        <time>2012-04-22T08:38:26Z</time>
      </trkpt>
      <trkpt lat="44.39424" lon="4.7695">
        <ele>169.33</ele>
        <time>2012-04-22T08:38:33Z</time>
      </trkpt>
      <trkpt lat="44.39447" lon="4.76934">
        <ele>171.25</ele>
        <time>2012-04-22T08:38:42Z</time>
      </trkpt>
      <trkpt lat="44.39465" lon="4.76923">
        <ele>170.77</ele>
        <time>2012-04-22T08:38:49Z</time>
      </trkpt>
      <trkpt lat="44.39471" lon="4.76895">
        <ele>169.81</ele>
        <time>2012-04-22T08:38:56Z</time>
      </trkpt>
      <trkpt lat="44.39473" lon="4.76866">
        <ele>170.77</ele>
        <time>2012-04-22T08:39:03Z</time>
      </trkpt>
      <trkpt lat="44.39483" lon="4.76844">
        <ele>171.25</ele>
        <time>2012-04-22T08:39:10Z</time>
      </trkpt>
      <trkpt lat="44.39481" lon="4.76817">
        <ele>170.77</ele>
        <time>2012-04-22T08:39:18Z</time>
      </trkpt>
      <trkpt lat="44.39457" lon="4.76824">
        <ele>170.77</ele>
        <time>2012-04-22T08:39:27Z</time>
      </trkpt>
      <trkpt lat="44.39439" lon="4.76829">
        <ele>169.33</ele>
        <time>2012-04-22T08:39:32Z</time>
      </trkpt>
      <trkpt lat="44.39421" lon="4.76828">
        <ele>166.93</ele>
        <time>2012-04-22T08:39:37Z</time>
      </trkpt>
      <trkpt lat="44.39422" lon="4.76802">
        <ele>170.29</ele>
        <time>2012-04-22T08:39:46Z</time>
      </trkpt>
      <trkpt lat="44.39424" lon="4.76775">
        <ele>171.73</ele>
        <time>2012-04-22T08:39:55Z</time>
      </trkpt>
      <trkpt lat="44.39418" lon="4.7675">
        <ele>170.29</ele>
        <time>2012-04-22T08:40:05Z</time>
      </trkpt>
      <trkpt lat="44.39417" lon="4.76724">
        <ele>171.25</ele>
        <time>2012-04-22T08:40:16Z</time>
      </trkpt>
      <trkpt lat="44.39418" lon="4.76698">
        <ele>172.21</ele>
        <time>2012-04-22T08:40:24Z</time>
      </trkpt>
      <trkpt lat="44.39429" lon="4.76678">
        <ele>171.73</ele>
        <time>2012-04-22T08:40:32Z</time>
      </trkpt>
      <trkpt lat="44.39434" lon="4.76648">
        <ele>171.73</ele>
        <time>2012-04-22T08:40:38Z</time>
      </trkpt>
      <trkpt lat="44.39431" lon="4.76619">
        <ele>172.21</ele>
        <time>2012-04-22T08:40:44Z</time>
      </trkpt>
      <trkpt lat="44.39431" lon="4.76591">
        <ele>172.69</ele>
        <time>2012-04-22T08:40:51Z</time>
      </trkpt>
      <trkpt lat="44.39447" lon="4.76602">
        <ele>172.69</ele>
        <time>2012-04-22T08:41:01Z</time>
      </trkpt>
      <trkpt lat="44.39452" lon="4.76627">
        <ele>172.69</ele>
        <time>2012-04-22T08:41:07Z</time>
      </trkpt>
      <trkpt lat="44.39452" lon="4.76657">
        <ele>171.73</ele>
        <time>2012-04-22T08:41:13Z</time>
      </trkpt>
      <trkpt lat="44.39454" lon="4.76681">
        <ele>172.21</ele>
        <time>2012-04-22T08:41:19Z</time>
      </trkpt>
      <trkpt lat="44.39462" lon="4.76708">
        <ele>172.21</ele>
        <time>2012-04-22T08:41:25Z</time>
      </trkpt>
      <trkpt lat="44.3947" lon="4.76732">
        <ele>171.73</ele>
        <time>2012-04-22T08:41:31Z</time>
      </trkpt>
      <trkpt lat="44.39481" lon="4.76756">
        <ele>172.21</ele>
        <time>2012-04-22T08:41:38Z</time>
      </trkpt>
      <trkpt lat="44.39489" lon="4.76781">
        <ele>171.73</ele>
        <time>2012-04-22T08:41:45Z</time>
      </trkpt>
      <trkpt lat="44.39504" lon="4.76798">
        <ele>172.21</ele>
        <time>2012-04-22T08:41:52Z</time>
      </trkpt>
      <trkpt lat="44.39522" lon="4.76803">
        <ele>173.17</ele>
        <time>2012-04-22T08:41:58Z</time>
      </trkpt>
      <trkpt lat="44.39541" lon="4.76807">
        <ele>172.21</ele>
        <time>2012-04-22T08:42:04Z</time>
      </trkpt>
      <trkpt lat="44.39561" lon="4.76812">
        <ele>173.66</ele>
        <time>2012-04-22T08:42:10Z</time>
      </trkpt>
      <trkpt lat="44.3958" lon="4.76817">
        <ele>173.17</ele>
        <time>2012-04-22T08:42:16Z</time>
      </trkpt>
      <trkpt lat="44.396" lon="4.7682">
        <ele>174.62</ele>
        <time>2012-04-22T08:42:22Z</time>
      </trkpt>
      <trkpt lat="44.39618" lon="4.76824">
        <ele>175.58</ele>
        <time>2012-04-22T08:42:28Z</time>
      </trkpt>
      <trkpt lat="44.39637" lon="4.76828">
        <ele>175.58</ele>
        <time>2012-04-22T08:42:34Z</time>
      </trkpt>
      <trkpt lat="44.39655" lon="4.76833">
        <ele>176.54</ele>
        <time>2012-04-22T08:42:40Z</time>
      </trkpt>
      <trkpt lat="44.39672" lon="4.7684">
        <ele>177.5</ele>
        <time>2012-04-22T08:42:46Z</time>
      </trkpt>
      <trkpt lat="44.3969" lon="4.76845">
        <ele>178.46</ele>
        <time>2012-04-22T08:42:52Z</time>
      </trkpt>
      <trkpt lat="44.39705" lon="4.76856">
        <ele>177.98</ele>
        <time>2012-04-22T08:42:59Z</time>
      </trkpt>
      <trkpt lat="44.39718" lon="4.76879">
        <ele>178.94</ele>
        <time>2012-04-22T08:43:05Z</time>
      </trkpt>
      <trkpt lat="44.39729" lon="4.769">
        <ele>179.42</ele>
        <time>2012-04-22T08:43:10Z</time>
      </trkpt>
      <trkpt lat="44.3974" lon="4.76921">
        <ele>179.42</ele>
        <time>2012-04-22T08:43:15Z</time>
      </trkpt>
      <trkpt lat="44.39753" lon="4.7694">
        <ele>179.42</ele>
        <time>2012-04-22T08:43:20Z</time>
      </trkpt>
      <trkpt lat="44.39772" lon="4.76949">
        <ele>180.87</ele>
        <time>2012-04-22T08:43:27Z</time>
      </trkpt>
      <trkpt lat="44.39785" lon="4.76966">
        <ele>181.35</ele>
        <time>2012-04-22T08:43:33Z</time>
      </trkpt>
      <trkpt lat="44.398" lon="4.76985">
        <ele>182.31</ele>
        <time>2012-04-22T08:43:38Z</time>
      </trkpt>
      <trkpt lat="44.39814" lon="4.77006">
        <ele>181.35</ele>
        <time>2012-04-22T08:43:43Z</time>
      </trkpt>
      <trkpt lat="44.39829" lon="4.77029">
        <ele>181.83</ele>
        <time>2012-04-22T08:43:48Z</time>
      </trkpt>
      <trkpt lat="44.39843" lon="4.77045">
        <ele>182.31</ele>
        <time>2012-04-22T08:43:52Z</time>
      </trkpt>
      <trkpt lat="44.39859" lon="4.77066">
        <ele>183.27</ele>
        <time>2012-04-22T08:43:57Z</time>
      </trkpt>
      <trkpt lat="44.39878" lon="4.77078">
        <ele>184.23</ele>
        <time>2012-04-22T08:44:02Z</time>
      </trkpt>
      <trkpt lat="44.39894" lon="4.77095">
        <ele>183.75</ele>
        <time>2012-04-22T08:44:07Z</time>
      </trkpt>
      <trkpt lat="44.39913" lon="4.77109">
        <ele>184.23</ele>
        <time>2012-04-22T08:44:12Z</time>
      </trkpt>
      <trkpt lat="44.39931" lon="4.7712">
        <ele>185.19</ele>
        <time>2012-04-22T08:44:17Z</time>
      </trkpt>
      <trkpt lat="44.39948" lon="4.77131">
        <ele>186.15</ele>
        <time>2012-04-22T08:44:22Z</time>
      </trkpt>
      <trkpt lat="44.39962" lon="4.77146">
        <ele>186.63</ele>
        <time>2012-04-22T08:44:27Z</time>
      </trkpt>
      <trkpt lat="44.3998" lon="4.7716">
        <ele>187.11</ele>
        <time>2012-04-22T08:44:32Z</time>
      </trkpt>
      <trkpt lat="44.39999" lon="4.77172">
        <ele>187.11</ele>
        <time>2012-04-22T08:44:37Z</time>
      </trkpt>
      <trkpt lat="44.40015" lon="4.77185">
        <ele>188.56</ele>
        <time>2012-04-22T08:44:42Z</time>
      </trkpt>
      <trkpt lat="44.40034" lon="4.77199">
        <ele>190</ele>
        <time>2012-04-22T08:44:48Z</time>
      </trkpt>
      <trkpt lat="44.40049" lon="4.77219">
        <ele>190.48</ele>
        <time>2012-04-22T08:44:53Z</time>
      </trkpt>
      <trkpt lat="44.40065" lon="4.77237">
        <ele>191.44</ele>
        <time>2012-04-22T08:44:58Z</time>
      </trkpt>
      <trkpt lat="44.40079" lon="4.77256">
        <ele>191.92</ele>
        <time>2012-04-22T08:45:03Z</time>
      </trkpt>
      <trkpt lat="44.4009" lon="4.77277">
        <ele>190.96</ele>
        <time>2012-04-22T08:45:07Z</time>
      </trkpt>
      <trkpt lat="44.40103" lon="4.77299">
        <ele>191.92</ele>
        <time>2012-04-22T08:45:11Z</time>
      </trkpt>
      <trkpt lat="44.40117" lon="4.7732">
        <ele>191.44</ele>
        <time>2012-04-22T08:45:15Z</time>
      </trkpt>
      <trkpt lat="44.40131" lon="4.7734">
        <ele>190.96</ele>
        <time>2012-04-22T08:45:19Z</time>
      </trkpt>
      <trkpt lat="44.40148" lon="4.77357">
        <ele>190.96</ele>
        <time>2012-04-22T08:45:23Z</time>
      </trkpt>
      <trkpt lat="44.40166" lon="4.77375">
        <ele>192.4</ele>
        <time>2012-04-22T08:45:28Z</time>
      </trkpt>
      <trkpt lat="44.40182" lon="4.77398">
        <ele>191.92</ele>
        <time>2012-04-22T08:45:33Z</time>
      </trkpt>
      <trkpt lat="44.402" lon="4.77413">
        <ele>192.4</ele>
        <time>2012-04-22T08:45:37Z</time>
      </trkpt>
      <trkpt lat="44.4022" lon="4.77407">
        <ele>192.4</ele>
        <time>2012-04-22T08:45:41Z</time>
      </trkpt>
      <trkpt lat="44.40241" lon="4.77397">
        <ele>190.48</ele>
        <time>2012-04-22T08:45:45Z</time>
      </trkpt>
      <trkpt lat="44.40252" lon="4.77407">
        <ele>190.48</ele>
        <time>2012-04-22T08:45:51Z</time>
      </trkpt>
      <trkpt lat="44.40244" lon="4.77433">
        <ele>187.59</ele>
        <time>2012-04-22T08:45:55Z</time>
      </trkpt>
      <trkpt lat="44.40239" lon="4.77457">
        <ele>185.67</ele>
        <time>2012-04-22T08:45:59Z</time>
      </trkpt>
      <trkpt lat="44.40221" lon="4.77472">
        <ele>184.71</ele>
        <time>2012-04-22T08:46:03Z</time>
      </trkpt>
      <trkpt lat="44.40202" lon="4.77493">
        <ele>182.79</ele>
        <time>2012-04-22T08:46:07Z</time>
      </trkpt>
      <trkpt lat="44.40189" lon="4.77516">
        <ele>180.38</ele>
        <time>2012-04-22T08:46:10Z</time>
      </trkpt>
      <trkpt lat="44.40183" lon="4.77545">
        <ele>179.42</ele>
        <time>2012-04-22T08:46:13Z</time>
      </trkpt>
      <trkpt lat="44.40172" lon="4.77569">
        <ele>178.46</ele>
        <time>2012-04-22T08:46:16Z</time>
      </trkpt>
      <trkpt lat="44.40154" lon="4.77583">
        <ele>177.98</ele>
        <time>2012-04-22T08:46:19Z</time>
      </trkpt>
      <trkpt lat="44.4014" lon="4.77601">
        <ele>176.54</ele>
        <time>2012-04-22T08:46:22Z</time>
      </trkpt>
      <trkpt lat="44.40127" lon="4.77622">
        <ele>175.58</ele>
        <time>2012-04-22T08:46:25Z</time>
      </trkpt>
      <trkpt lat="44.40111" lon="4.77641">
        <ele>174.62</ele>
        <time>2012-04-22T08:46:28Z</time>
      </trkpt>
      <trkpt lat="44.40094" lon="4.77658">
        <ele>175.1</ele>
        <time>2012-04-22T08:46:31Z</time>
      </trkpt>
      <trkpt lat="44.40077" lon="4.77677">
        <ele>174.62</ele>
        <time>2012-04-22T08:46:34Z</time>
      </trkpt>
      <trkpt lat="44.4006" lon="4.77697">
        <ele>173.66</ele>
        <time>2012-04-22T08:46:37Z</time>
      </trkpt>
      <trkpt lat="44.40043" lon="4.77716">
        <ele>173.66</ele>
        <time>2012-04-22T08:46:40Z</time>
      </trkpt>
      <trkpt lat="44.4003" lon="4.77739">
        <ele>173.66</ele>
        <time>2012-04-22T08:46:43Z</time>
      </trkpt>
      <trkpt lat="44.40016" lon="4.77755">
        <ele>173.17</ele>
        <time>2012-04-22T08:46:46Z</time>
      </trkpt>
      <trkpt lat="44.39996" lon="4.77765">
        <ele>173.17</ele>
        <time>2012-04-22T08:46:49Z</time>
      </trkpt>
      <trkpt lat="44.39976" lon="4.77776">
        <ele>172.69</ele>
        <time>2012-04-22T08:46:52Z</time>
      </trkpt>
      <trkpt lat="44.39982" lon="4.77792">
        <ele>172.69</ele>
        <time>2012-04-22T08:46:58Z</time>
      </trkpt>
      <trkpt lat="44.39995" lon="4.77805">
        <ele>173.66</ele>
        <time>2012-04-22T08:47:03Z</time>
      </trkpt>
      <trkpt lat="44.40012" lon="4.77819">
        <ele>172.21</ele>
        <time>2012-04-22T08:47:08Z</time>
      </trkpt>
      <trkpt lat="44.40029" lon="4.77829">
        <ele>174.14</ele>
        <time>2012-04-22T08:47:13Z</time>
      </trkpt>
      <trkpt lat="44.40048" lon="4.77838">
        <ele>175.1</ele>
        <time>2012-04-22T08:47:18Z</time>
      </trkpt>
      <trkpt lat="44.40067" lon="4.77845">
        <ele>173.17</ele>
        <time>2012-04-22T08:47:23Z</time>
      </trkpt>
      <trkpt lat="44.40086" lon="4.77849">
        <ele>175.1</ele>
        <time>2012-04-22T08:47:28Z</time>
      </trkpt>
      <trkpt lat="44.40108" lon="4.77849">
        <ele>175.1</ele>
        <time>2012-04-22T08:47:33Z</time>
      </trkpt>
      <trkpt lat="44.40127" lon="4.77852">
        <ele>174.62</ele>
        <time>2012-04-22T08:47:38Z</time>
      </trkpt>
      <trkpt lat="44.40133" lon="4.77878">
        <ele>174.14</ele>
        <time>2012-04-22T08:47:43Z</time>
      </trkpt>
      <trkpt lat="44.40139" lon="4.77906">
        <ele>174.62</ele>
        <time>2012-04-22T08:47:48Z</time>
      </trkpt>
      <trkpt lat="44.40144" lon="4.77934">
        <ele>176.06</ele>
        <time>2012-04-22T08:47:53Z</time>
      </trkpt>
      <trkpt lat="44.40147" lon="4.77961">
        <ele>177.98</ele>
        <time>2012-04-22T08:47:58Z</time>
      </trkpt>
      <trkpt lat="44.40151" lon="4.77987">
        <ele>177.98</ele>
        <time>2012-04-22T08:48:03Z</time>
      </trkpt>
      <trkpt lat="44.40155" lon="4.78012">
        <ele>178.94</ele>
        <time>2012-04-22T08:48:08Z</time>
      </trkpt>
      <trkpt lat="44.40157" lon="4.78037">
        <ele>178.94</ele>
        <time>2012-04-22T08:48:14Z</time>
      </trkpt>
      <trkpt lat="44.40164" lon="4.78065">
        <ele>181.35</ele>
        <time>2012-04-22T08:48:21Z</time>
      </trkpt>
      <trkpt lat="44.40163" lon="4.78091">
        <ele>180.87</ele>
        <time>2012-04-22T08:48:29Z</time>
      </trkpt>
      <trkpt lat="44.40147" lon="4.78107">
        <ele>181.35</ele>
        <time>2012-04-22T08:48:35Z</time>
      </trkpt>
      <trkpt lat="44.40127" lon="4.78122">
        <ele>182.31</ele>
        <time>2012-04-22T08:48:42Z</time>
      </trkpt>
      <trkpt lat="44.40107" lon="4.78128">
        <ele>183.75</ele>
        <time>2012-04-22T08:48:48Z</time>
      </trkpt>
      <trkpt lat="44.40085" lon="4.78121">
        <ele>181.83</ele>
        <time>2012-04-22T08:48:54Z</time>
      </trkpt>
      <trkpt lat="44.40064" lon="4.78117">
        <ele>182.79</ele>
        <time>2012-04-22T08:48:59Z</time>
      </trkpt>
      <trkpt lat="44.40043" lon="4.78114">
        <ele>183.27</ele>
        <time>2012-04-22T08:49:04Z</time>
      </trkpt>
      <trkpt lat="44.4002" lon="4.78109">
        <ele>182.31</ele>
        <time>2012-04-22T08:49:09Z</time>
      </trkpt>
      <trkpt lat="44.40004" lon="4.78098">
        <ele>181.83</ele>
        <time>2012-04-22T08:49:13Z</time>
      </trkpt>
      <trkpt lat="44.39983" lon="4.7809">
        <ele>182.79</ele>
        <time>2012-04-22T08:49:18Z</time>
      </trkpt>
      <trkpt lat="44.39963" lon="4.7808">
        <ele>184.23</ele>
        <time>2012-04-22T08:49:24Z</time>
      </trkpt>
      <trkpt lat="44.39941" lon="4.78072">
        <ele>184.23</ele>
        <time>2012-04-22T08:49:30Z</time>
      </trkpt>
      <trkpt lat="44.39917" lon="4.78071">
        <ele>183.27</ele>
        <time>2012-04-22T08:49:35Z</time>
      </trkpt>
      <trkpt lat="44.39897" lon="4.78072">
        <ele>184.71</ele>
        <time>2012-04-22T08:49:39Z</time>
      </trkpt>
      <trkpt lat="44.39882" lon="4.7808">
        <ele>186.15</ele>
        <time>2012-04-22T08:49:44Z</time>
      </trkpt>
      <trkpt lat="44.39889" lon="4.78114">
        <ele>190</ele>
        <time>2012-04-22T08:49:56Z</time>
      </trkpt>
      <trkpt lat="44.39888" lon="4.78144">
        <ele>192.4</ele>
        <time>2012-04-22T08:50:11Z</time>
      </trkpt>
      <trkpt lat="44.3988" lon="4.78171">
        <ele>198.17</ele>
        <time>2012-04-22T08:50:29Z</time>
      </trkpt>
      <trkpt lat="44.39869" lon="4.78197">
        <ele>201.05</ele>
        <time>2012-04-22T08:50:46Z</time>
      </trkpt>
      <trkpt lat="44.39862" lon="4.78222">
        <ele>203.94</ele>
        <time>2012-04-22T08:51:03Z</time>
      </trkpt>
      <trkpt lat="44.39857" lon="4.78249">
        <ele>206.82</ele>
        <time>2012-04-22T08:51:28Z</time>
      </trkpt>
      <trkpt lat="44.39852" lon="4.78278">
        <ele>208.74</ele>
        <time>2012-04-22T08:51:41Z</time>
      </trkpt>
      <trkpt lat="44.39843" lon="4.78301">
        <ele>208.26</ele>
        <time>2012-04-22T08:51:52Z</time>
      </trkpt>
      <trkpt lat="44.39828" lon="4.7832">
        <ele>210.19</ele>
        <time>2012-04-22T08:52:06Z</time>
      </trkpt>
      <trkpt lat="44.39816" lon="4.78341">
        <ele>210.19</ele>
        <time>2012-04-22T08:52:17Z</time>
      </trkpt>
      <trkpt lat="44.39796" lon="4.78347">
        <ele>211.63</ele>
        <time>2012-04-22T08:52:28Z</time>
      </trkpt>
      <trkpt lat="44.39778" lon="4.78352">
        <ele>212.59</ele>
        <time>2012-04-22T08:52:38Z</time>
      </trkpt>
      <trkpt lat="44.39759" lon="4.78351">
        <ele>213.07</ele>
        <time>2012-04-22T08:52:47Z</time>
      </trkpt>
      <trkpt lat="44.3974" lon="4.7835">
        <ele>213.55</ele>
        <time>2012-04-22T08:52:56Z</time>
      </trkpt>
      <trkpt lat="44.39723" lon="4.78342">
        <ele>213.07</ele>
        <time>2012-04-22T08:53:04Z</time>
      </trkpt>
      <trkpt lat="44.39705" lon="4.78342">
        <ele>213.07</ele>
        <time>2012-04-22T08:53:12Z</time>
      </trkpt>
      <trkpt lat="44.39687" lon="4.78339">
        <ele>213.07</ele>
        <time>2012-04-22T08:53:19Z</time>
      </trkpt>
      <trkpt lat="44.39666" lon="4.78343">
        <ele>213.07</ele>
        <time>2012-04-22T08:53:27Z</time>
      </trkpt>
      <trkpt lat="44.39651" lon="4.78358">
        <ele>213.07</ele>
        <time>2012-04-22T08:53:34Z</time>
      </trkpt>
      <trkpt lat="44.39636" lon="4.78379">
        <ele>213.07</ele>
        <time>2012-04-22T08:53:42Z</time>
      </trkpt>
      <trkpt lat="44.39619" lon="4.78399">
        <ele>212.11</ele>
        <time>2012-04-22T08:53:49Z</time>
      </trkpt>
      <trkpt lat="44.39615" lon="4.78425">
        <ele>212.59</ele>
        <time>2012-04-22T08:53:59Z</time>
      </trkpt>
      <trkpt lat="44.39632" lon="4.78446">
        <ele>213.07</ele>
        <time>2012-04-22T08:54:05Z</time>
      </trkpt>
      <trkpt lat="44.39647" lon="4.78463">
        <ele>212.59</ele>
        <time>2012-04-22T08:54:09Z</time>
      </trkpt>
      <trkpt lat="44.39663" lon="4.78481">
        <ele>214.03</ele>
        <time>2012-04-22T08:54:13Z</time>
      </trkpt>
      <trkpt lat="44.39676" lon="4.785">
        <ele>214.99</ele>
        <time>2012-04-22T08:54:19Z</time>
      </trkpt>
      <trkpt lat="44.39657" lon="4.78513">
        <ele>214.03</ele>
        <time>2012-04-22T08:54:24Z</time>
      </trkpt>
      <trkpt lat="44.3964" lon="4.78522">
        <ele>212.59</ele>
        <time>2012-04-22T08:54:27Z</time>
      </trkpt>
      <trkpt lat="44.39619" lon="4.78529">
        <ele>210.19</ele>
        <time>2012-04-22T08:54:30Z</time>
      </trkpt>
      <trkpt lat="44.396" lon="4.78539">
        <ele>208.74</ele>
        <time>2012-04-22T08:54:34Z</time>
      </trkpt>
      <trkpt lat="44.3959" lon="4.7856">
        <ele>209.22</ele>
        <time>2012-04-22T08:54:39Z</time>
      </trkpt>
      <trkpt lat="44.39583" lon="4.78585">
        <ele>211.15</ele>
        <time>2012-04-22T08:54:47Z</time>
      </trkpt>
      <trkpt lat="44.39587" lon="4.78608">
        <ele>212.59</ele>
        <time>2012-04-22T08:54:58Z</time>
      </trkpt>
      <trkpt lat="44.39577" lon="4.78631">
        <ele>212.11</ele>
        <time>2012-04-22T08:55:05Z</time>
      </trkpt>
      <trkpt lat="44.39574" lon="4.78658">
        <ele>212.59</ele>
        <time>2012-04-22T08:55:12Z</time>
      </trkpt>
      <trkpt lat="44.39578" lon="4.78684">
        <ele>214.51</ele>
        <time>2012-04-22T08:55:20Z</time>
      </trkpt>
      <trkpt lat="44.39579" lon="4.78712">
        <ele>215.47</ele>
        <time>2012-04-22T08:55:30Z</time>
      </trkpt>
      <trkpt lat="44.39589" lon="4.78736">
        <ele>215.95</ele>
        <time>2012-04-22T08:55:41Z</time>
      </trkpt>
      <trkpt lat="44.39603" lon="4.78754">
        <ele>216.43</ele>
        <time>2012-04-22T08:56:05Z</time>
      </trkpt>
      <trkpt lat="44.3962" lon="4.78766">
        <ele>214.51</ele>
        <time>2012-04-22T08:56:10Z</time>
      </trkpt>
      <trkpt lat="44.39625" lon="4.78777">
        <ele>214.03</ele>
        <time>2012-04-22T08:56:17Z</time>
      </trkpt>
      <trkpt lat="44.39585" lon="4.78757">
        <ele>214.51</ele>
        <time>2012-04-22T08:56:28Z</time>
      </trkpt>
      <trkpt lat="44.39565" lon="4.78769">
        <ele>215.95</ele>
        <time>2012-04-22T08:56:35Z</time>
      </trkpt>
      <trkpt lat="44.39561" lon="4.78796">
        <ele>217.88</ele>
        <time>2012-04-22T08:56:45Z</time>
      </trkpt>
      <trkpt lat="44.39544" lon="4.78809">
        <ele>218.84</ele>
        <time>2012-04-22T08:56:53Z</time>
      </trkpt>
      <trkpt lat="44.39526" lon="4.78814">
        <ele>218.84</ele>
        <time>2012-04-22T08:56:58Z</time>
      </trkpt>
      <trkpt lat="44.39508" lon="4.78823">
        <ele>218.84</ele>
        <time>2012-04-22T08:57:02Z</time>
      </trkpt>
      <trkpt lat="44.39488" lon="4.78832">
        <ele>217.88</ele>
        <time>2012-04-22T08:57:06Z</time>
      </trkpt>
      <trkpt lat="44.39468" lon="4.78836">
        <ele>216.91</ele>
        <time>2012-04-22T08:57:10Z</time>
      </trkpt>
      <trkpt lat="44.39447" lon="4.78845">
        <ele>217.88</ele>
        <time>2012-04-22T08:57:14Z</time>
      </trkpt>
      <trkpt lat="44.39424" lon="4.78853">
        <ele>216.91</ele>
        <time>2012-04-22T08:57:18Z</time>
      </trkpt>
      <trkpt lat="44.39407" lon="4.78859">
        <ele>216.43</ele>
        <time>2012-04-22T08:57:21Z</time>
      </trkpt>
      <trkpt lat="44.39389" lon="4.78869">
        <ele>216.43</ele>
        <time>2012-04-22T08:57:24Z</time>
      </trkpt>
      <trkpt lat="44.3937" lon="4.78874">
        <ele>215.95</ele>
        <time>2012-04-22T08:57:27Z</time>
      </trkpt>
      <trkpt lat="44.39348" lon="4.7887">
        <ele>214.99</ele>
        <time>2012-04-22T08:57:31Z</time>
      </trkpt>
      <trkpt lat="44.39331" lon="4.78858">
        <ele>213.07</ele>
        <time>2012-04-22T08:57:35Z</time>
      </trkpt>
      <trkpt lat="44.39315" lon="4.78857">
        <ele>209.7</ele>
        <time>2012-04-22T08:57:41Z</time>
      </trkpt>
      <trkpt lat="44.39298" lon="4.78843">
        <ele>206.82</ele>
        <time>2012-04-22T08:57:47Z</time>
      </trkpt>
      <trkpt lat="44.3929" lon="4.78863">
        <ele>204.42</ele>
        <time>2012-04-22T08:57:55Z</time>
      </trkpt>
      <trkpt lat="44.3929" lon="4.78891">
        <ele>200.09</ele>
        <time>2012-04-22T08:58:01Z</time>
      </trkpt>
      <trkpt lat="44.39292" lon="4.78919">
        <ele>196.73</ele>
        <time>2012-04-22T08:58:09Z</time>
      </trkpt>
      <trkpt lat="44.39302" lon="4.78943">
        <ele>194.8</ele>
        <time>2012-04-22T08:58:15Z</time>
      </trkpt>
      <trkpt lat="44.39302" lon="4.78972">
        <ele>187.59</ele>
        <time>2012-04-22T08:58:22Z</time>
      </trkpt>
      <trkpt lat="44.39308" lon="4.78997">
        <ele>187.11</ele>
        <time>2012-04-22T08:58:28Z</time>
      </trkpt>
      <trkpt lat="44.39306" lon="4.79018">
        <ele>184.23</ele>
        <time>2012-04-22T08:58:34Z</time>
      </trkpt>
      <trkpt lat="44.39294" lon="4.79036">
        <ele>178.46</ele>
        <time>2012-04-22T08:58:43Z</time>
      </trkpt>
      <trkpt lat="44.39293" lon="4.79076">
        <ele>178.46</ele>
        <time>2012-04-22T08:58:53Z</time>
      </trkpt>
      <trkpt lat="44.39279" lon="4.79094">
        <ele>174.14</ele>
        <time>2012-04-22T08:58:58Z</time>
      </trkpt>
      <trkpt lat="44.3926" lon="4.79104">
        <ele>169.33</ele>
        <time>2012-04-22T08:59:04Z</time>
      </trkpt>
      <trkpt lat="44.39243" lon="4.79117">
        <ele>167.89</ele>
        <time>2012-04-22T08:59:08Z</time>
      </trkpt>
      <trkpt lat="44.39238" lon="4.79146">
        <ele>165.48</ele>
        <time>2012-04-22T08:59:12Z</time>
      </trkpt>
      <trkpt lat="44.39249" lon="4.79179">
        <ele>164.04</ele>
        <time>2012-04-22T08:59:16Z</time>
      </trkpt>
      <trkpt lat="44.39259" lon="4.79204">
        <ele>163.08</ele>
        <time>2012-04-22T08:59:20Z</time>
      </trkpt>
      <trkpt lat="44.39269" lon="4.79228">
        <ele>161.64</ele>
        <time>2012-04-22T08:59:25Z</time>
      </trkpt>
      <trkpt lat="44.39286" lon="4.79241">
        <ele>161.64</ele>
        <time>2012-04-22T08:59:29Z</time>
      </trkpt>
      <trkpt lat="44.39303" lon="4.79255">
        <ele>161.16</ele>
        <time>2012-04-22T08:59:32Z</time>
      </trkpt>
      <trkpt lat="44.39321" lon="4.79274">
        <ele>159.72</ele>
        <time>2012-04-22T08:59:36Z</time>
      </trkpt>
      <trkpt lat="44.39336" lon="4.79294">
        <ele>159.72</ele>
        <time>2012-04-22T08:59:40Z</time>
      </trkpt>
      <trkpt lat="44.3935" lon="4.79314">
        <ele>157.31</ele>
        <time>2012-04-22T08:59:43Z</time>
      </trkpt>
      <trkpt lat="44.39364" lon="4.79336">
        <ele>156.35</ele>
        <time>2012-04-22T08:59:46Z</time>
      </trkpt>
      <trkpt lat="44.39379" lon="4.79355">
        <ele>154.91</ele>
        <time>2012-04-22T08:59:49Z</time>
      </trkpt>
      <trkpt lat="44.39395" lon="4.79366">
        <ele>152.03</ele>
        <time>2012-04-22T08:59:52Z</time>
      </trkpt>
      <trkpt lat="44.39415" lon="4.79381">
        <ele>148.18</ele>
        <time>2012-04-22T08:59:57Z</time>
      </trkpt>
      <trkpt lat="44.39425" lon="4.79403">
        <ele>143.85</ele>
        <time>2012-04-22T09:00:01Z</time>
      </trkpt>
      <trkpt lat="44.3944" lon="4.79421">
        <ele>142.89</ele>
        <time>2012-04-22T09:00:05Z</time>
      </trkpt>
      <trkpt lat="44.39439" lon="4.79449">
        <ele>141.45</ele>
        <time>2012-04-22T09:00:09Z</time>
      </trkpt>
      <trkpt lat="44.39434" lon="4.79483">
        <ele>140.01</ele>
        <time>2012-04-22T09:00:13Z</time>
      </trkpt>
      <trkpt lat="44.39428" lon="4.79507">
        <ele>139.53</ele>
        <time>2012-04-22T09:00:16Z</time>
      </trkpt>
      <trkpt lat="44.39438" lon="4.79526">
        <ele>138.09</ele>
        <time>2012-04-22T09:00:20Z</time>
      </trkpt>
      <trkpt lat="44.39459" lon="4.79523">
        <ele>137.13</ele>
        <time>2012-04-22T09:00:26Z</time>
      </trkpt>
      <trkpt lat="44.39478" lon="4.79523">
        <ele>137.61</ele>
        <time>2012-04-22T09:00:33Z</time>
      </trkpt>
      <trkpt lat="44.39496" lon="4.79522">
        <ele>139.05</ele>
        <time>2012-04-22T09:00:40Z</time>
      </trkpt>
      <trkpt lat="44.39516" lon="4.79523">
        <ele>139.53</ele>
        <time>2012-04-22T09:00:48Z</time>
      </trkpt>
      <trkpt lat="44.39535" lon="4.7953">
        <ele>139.05</ele>
        <time>2012-04-22T09:00:55Z</time>
      </trkpt>
      <trkpt lat="44.39553" lon="4.79538">
        <ele>140.01</ele>
        <time>2012-04-22T09:01:03Z</time>
      </trkpt>
      <trkpt lat="44.39572" lon="4.79548">
        <ele>140.49</ele>
        <time>2012-04-22T09:01:11Z</time>
      </trkpt>
      <trkpt lat="44.39592" lon="4.79557">
        <ele>140.97</ele>
        <time>2012-04-22T09:01:18Z</time>
      </trkpt>
      <trkpt lat="44.3961" lon="4.79567">
        <ele>141.93</ele>
        <time>2012-04-22T09:01:24Z</time>
      </trkpt>
      <trkpt lat="44.39629" lon="4.79577">
        <ele>141.93</ele>
        <time>2012-04-22T09:01:30Z</time>
      </trkpt>
      <trkpt lat="44.39647" lon="4.79588">
        <ele>143.37</ele>
        <time>2012-04-22T09:01:36Z</time>
      </trkpt>
      <trkpt lat="44.39665" lon="4.79596">
        <ele>143.37</ele>
        <time>2012-04-22T09:01:42Z</time>
      </trkpt>
      <trkpt lat="44.39682" lon="4.79605">
        <ele>143.85</ele>
        <time>2012-04-22T09:01:48Z</time>
      </trkpt>
      <trkpt lat="44.39699" lon="4.79618">
        <ele>145.78</ele>
        <time>2012-04-22T09:01:55Z</time>
      </trkpt>
      <trkpt lat="44.39713" lon="4.79634">
        <ele>146.74</ele>
        <time>2012-04-22T09:02:02Z</time>
      </trkpt>
      <trkpt lat="44.39728" lon="4.7965">
        <ele>147.7</ele>
        <time>2012-04-22T09:02:09Z</time>
      </trkpt>
      <trkpt lat="44.39742" lon="4.79669">
        <ele>150.58</ele>
        <time>2012-04-22T09:02:16Z</time>
      </trkpt>
      <trkpt lat="44.39757" lon="4.79687">
        <ele>151.54</ele>
        <time>2012-04-22T09:02:24Z</time>
      </trkpt>
      <trkpt lat="44.39771" lon="4.79703">
        <ele>153.95</ele>
        <time>2012-04-22T09:02:33Z</time>
      </trkpt>
      <trkpt lat="44.39788" lon="4.79715">
        <ele>154.43</ele>
        <time>2012-04-22T09:02:42Z</time>
      </trkpt>
      <trkpt lat="44.39805" lon="4.79726">
        <ele>156.83</ele>
        <time>2012-04-22T09:02:51Z</time>
      </trkpt>
      <trkpt lat="44.39823" lon="4.79734">
        <ele>157.31</ele>
        <time>2012-04-22T09:03:00Z</time>
      </trkpt>
      <trkpt lat="44.39842" lon="4.79739">
        <ele>159.72</ele>
        <time>2012-04-22T09:03:09Z</time>
      </trkpt>
      <trkpt lat="44.39861" lon="4.79743">
        <ele>160.68</ele>
        <time>2012-04-22T09:03:18Z</time>
      </trkpt>
      <trkpt lat="44.39881" lon="4.79748">
        <ele>161.64</ele>
        <time>2012-04-22T09:03:25Z</time>
      </trkpt>
      <trkpt lat="44.39902" lon="4.79752">
        <ele>160.2</ele>
        <time>2012-04-22T09:03:31Z</time>
      </trkpt>
      <trkpt lat="44.39918" lon="4.79737">
        <ele>159.72</ele>
        <time>2012-04-22T09:03:38Z</time>
      </trkpt>
      <trkpt lat="44.3993" lon="4.79722">
        <ele>160.68</ele>
        <time>2012-04-22T09:03:47Z</time>
      </trkpt>
      <trkpt lat="44.39926" lon="4.79699">
        <ele>164.04</ele>
        <time>2012-04-22T09:03:59Z</time>
      </trkpt>
      <trkpt lat="44.39913" lon="4.79679">
        <ele>166.45</ele>
        <time>2012-04-22T09:04:10Z</time>
      </trkpt>
      <trkpt lat="44.39912" lon="4.79656">
        <ele>168.85</ele>
        <time>2012-04-22T09:04:21Z</time>
      </trkpt>
      <trkpt lat="44.3993" lon="4.79654">
        <ele>169.33</ele>
        <time>2012-04-22T09:04:35Z</time>
      </trkpt>
      <trkpt lat="44.39941" lon="4.79639">
        <ele>170.77</ele>
        <time>2012-04-22T09:04:48Z</time>
      </trkpt>
      <trkpt lat="44.39939" lon="4.79617">
        <ele>173.17</ele>
        <time>2012-04-22T09:05:02Z</time>
      </trkpt>
      <trkpt lat="44.39921" lon="4.79607">
        <ele>174.14</ele>
        <time>2012-04-22T09:05:13Z</time>
      </trkpt>
      <trkpt lat="44.39906" lon="4.79594">
        <ele>177.5</ele>
        <time>2012-04-22T09:05:24Z</time>
      </trkpt>
      <trkpt lat="44.39898" lon="4.79573">
        <ele>180.87</ele>
        <time>2012-04-22T09:05:39Z</time>
      </trkpt>
      <trkpt lat="44.39877" lon="4.79565">
        <ele>178.46</ele>
        <time>2012-04-22T09:05:48Z</time>
      </trkpt>
      <trkpt lat="44.39855" lon="4.79576">
        <ele>173.17</ele>
        <time>2012-04-22T09:05:55Z</time>
      </trkpt>
      <trkpt lat="44.39845" lon="4.79579">
        <ele>174.14</ele>
        <time>2012-04-22T09:06:01Z</time>
      </trkpt>
      <trkpt lat="44.39842" lon="4.79565">
        <ele>174.62</ele>
        <time>2012-04-22T09:06:12Z</time>
      </trkpt>
      <trkpt lat="44.39832" lon="4.79542">
        <ele>176.54</ele>
        <time>2012-04-22T09:06:24Z</time>
      </trkpt>
      <trkpt lat="44.39825" lon="4.79519">
        <ele>176.54</ele>
        <time>2012-04-22T09:06:34Z</time>
      </trkpt>
      <trkpt lat="44.39822" lon="4.79493">
        <ele>178.46</ele>
        <time>2012-04-22T09:06:43Z</time>
      </trkpt>
      <trkpt lat="44.39823" lon="4.79467">
        <ele>179.9</ele>
        <time>2012-04-22T09:06:52Z</time>
      </trkpt>
      <trkpt lat="44.39827" lon="4.79442">
        <ele>179.9</ele>
        <time>2012-04-22T09:07:02Z</time>
      </trkpt>
      <trkpt lat="44.39831" lon="4.79416">
        <ele>181.83</ele>
        <time>2012-04-22T09:07:17Z</time>
      </trkpt>
      <trkpt lat="44.39831" lon="4.7939">
        <ele>182.79</ele>
        <time>2012-04-22T09:07:28Z</time>
      </trkpt>
      <trkpt lat="44.39824" lon="4.79364">
        <ele>184.23</ele>
        <time>2012-04-22T09:07:39Z</time>
      </trkpt>
      <trkpt lat="44.39814" lon="4.79341">
        <ele>185.67</ele>
        <time>2012-04-22T09:07:49Z</time>
      </trkpt>
      <trkpt lat="44.39804" lon="4.7932">
        <ele>187.59</ele>
        <time>2012-04-22T09:07:58Z</time>
      </trkpt>
      <trkpt lat="44.39795" lon="4.79298">
        <ele>189.04</ele>
        <time>2012-04-22T09:08:07Z</time>
      </trkpt>
      <trkpt lat="44.39788" lon="4.79274">
        <ele>189.52</ele>
        <time>2012-04-22T09:08:17Z</time>
      </trkpt>
      <trkpt lat="44.398" lon="4.79276">
        <ele>191.44</ele>
        <time>2012-04-22T09:08:28Z</time>
      </trkpt>
      <trkpt lat="44.39816" lon="4.79296">
        <ele>191.44</ele>
        <time>2012-04-22T09:08:35Z</time>
      </trkpt>
      <trkpt lat="44.39832" lon="4.79308">
        <ele>192.4</ele>
        <time>2012-04-22T09:08:42Z</time>
      </trkpt>
      <trkpt lat="44.39842" lon="4.79288">
        <ele>195.77</ele>
        <time>2012-04-22T09:08:53Z</time>
      </trkpt>
      <trkpt lat="44.39842" lon="4.79262">
        <ele>198.65</ele>
        <time>2012-04-22T09:09:06Z</time>
      </trkpt>
      <trkpt lat="44.39843" lon="4.79236">
        <ele>200.57</ele>
        <time>2012-04-22T09:09:18Z</time>
      </trkpt>
      <trkpt lat="44.3985" lon="4.79208">
        <ele>201.05</ele>
        <time>2012-04-22T09:09:26Z</time>
      </trkpt>
      <trkpt lat="44.39866" lon="4.79203">
        <ele>201.53</ele>
        <time>2012-04-22T09:09:34Z</time>
      </trkpt>
      <trkpt lat="44.39862" lon="4.79247">
        <ele>202.49</ele>
        <time>2012-04-22T09:09:48Z</time>
      </trkpt>
      <trkpt lat="44.39869" lon="4.79277">
        <ele>202.98</ele>
        <time>2012-04-22T09:09:56Z</time>
      </trkpt>
      <trkpt lat="44.39888" lon="4.79294">
        <ele>203.94</ele>
        <time>2012-04-22T09:10:05Z</time>
      </trkpt>
      <trkpt lat="44.39912" lon="4.79306">
        <ele>205.86</ele>
        <time>2012-04-22T09:10:13Z</time>
      </trkpt>
      <trkpt lat="44.39934" lon="4.79314">
        <ele>205.38</ele>
        <time>2012-04-22T09:10:20Z</time>
      </trkpt>
      <trkpt lat="44.39955" lon="4.79311">
        <ele>205.86</ele>
        <time>2012-04-22T09:10:27Z</time>
      </trkpt>
      <trkpt lat="44.39975" lon="4.79302">
        <ele>207.3</ele>
        <time>2012-04-22T09:10:34Z</time>
      </trkpt>
      <trkpt lat="44.39999" lon="4.79304">
        <ele>207.3</ele>
        <time>2012-04-22T09:10:42Z</time>
      </trkpt>
      <trkpt lat="44.40005" lon="4.79265">
        <ele>206.82</ele>
        <time>2012-04-22T09:10:49Z</time>
      </trkpt>
      <trkpt lat="44.4001" lon="4.79234">
        <ele>206.34</ele>
        <time>2012-04-22T09:10:54Z</time>
      </trkpt>
      <trkpt lat="44.40011" lon="4.79206">
        <ele>204.9</ele>
        <time>2012-04-22T09:10:58Z</time>
      </trkpt>
      <trkpt lat="44.40002" lon="4.79183">
        <ele>203.94</ele>
        <time>2012-04-22T09:11:02Z</time>
      </trkpt>
      <trkpt lat="44.40007" lon="4.79157">
        <ele>203.94</ele>
        <time>2012-04-22T09:11:07Z</time>
      </trkpt>
      <trkpt lat="44.40021" lon="4.79138">
        <ele>204.9</ele>
        <time>2012-04-22T09:11:12Z</time>
      </trkpt>
      <trkpt lat="44.40039" lon="4.7912">
        <ele>207.3</ele>
        <time>2012-04-22T09:11:19Z</time>
      </trkpt>
      <trkpt lat="44.40058" lon="4.79116">
        <ele>208.74</ele>
        <time>2012-04-22T09:11:27Z</time>
      </trkpt>
      <trkpt lat="44.40076" lon="4.79105">
        <ele>211.15</ele>
        <time>2012-04-22T09:11:38Z</time>
      </trkpt>
      <trkpt lat="44.40091" lon="4.79087">
        <ele>212.11</ele>
        <time>2012-04-22T09:11:52Z</time>
      </trkpt>
      <trkpt lat="44.40114" lon="4.79095">
        <ele>210.19</ele>
        <time>2012-04-22T09:12:19Z</time>
      </trkpt>
      <trkpt lat="44.40137" lon="4.79095">
        <ele>214.51</ele>
        <time>2012-04-22T09:12:35Z</time>
      </trkpt>
      <trkpt lat="44.40157" lon="4.79098">
        <ele>214.99</ele>
        <time>2012-04-22T09:12:46Z</time>
      </trkpt>
      <trkpt lat="44.40177" lon="4.79102">
        <ele>214.99</ele>
        <time>2012-04-22T09:12:55Z</time>
      </trkpt>
      <trkpt lat="44.40199" lon="4.79087">
        <ele>217.4</ele>
        <time>2012-04-22T09:13:05Z</time>
      </trkpt>
      <trkpt lat="44.40219" lon="4.79084">
        <ele>216.91</ele>
        <time>2012-04-22T09:13:12Z</time>
      </trkpt>
      <trkpt lat="44.40237" lon="4.79088">
        <ele>217.4</ele>
        <time>2012-04-22T09:13:19Z</time>
      </trkpt>
      <trkpt lat="44.40257" lon="4.7909">
        <ele>218.84</ele>
        <time>2012-04-22T09:13:27Z</time>
      </trkpt>
      <trkpt lat="44.40274" lon="4.7909">
        <ele>219.32</ele>
        <time>2012-04-22T09:13:35Z</time>
      </trkpt>
      <trkpt lat="44.40294" lon="4.79096">
        <ele>220.76</ele>
        <time>2012-04-22T09:13:42Z</time>
      </trkpt>
      <trkpt lat="44.40311" lon="4.791">
        <ele>220.28</ele>
        <time>2012-04-22T09:13:48Z</time>
      </trkpt>
      <trkpt lat="44.40329" lon="4.79109">
        <ele>221.72</ele>
        <time>2012-04-22T09:13:55Z</time>
      </trkpt>
      <trkpt lat="44.40347" lon="4.79112">
        <ele>222.68</ele>
        <time>2012-04-22T09:14:02Z</time>
      </trkpt>
      <trkpt lat="44.40366" lon="4.79108">
        <ele>223.16</ele>
        <time>2012-04-22T09:14:12Z</time>
      </trkpt>
      <trkpt lat="44.40384" lon="4.79105">
        <ele>225.09</ele>
        <time>2012-04-22T09:14:19Z</time>
      </trkpt>
      <trkpt lat="44.40405" lon="4.79108">
        <ele>225.09</ele>
        <time>2012-04-22T09:14:26Z</time>
      </trkpt>
      <trkpt lat="44.40422" lon="4.7911">
        <ele>225.57</ele>
        <time>2012-04-22T09:14:33Z</time>
      </trkpt>
      <trkpt lat="44.4044" lon="4.79115">
        <ele>226.05</ele>
        <time>2012-04-22T09:14:40Z</time>
      </trkpt>
      <trkpt lat="44.4046" lon="4.79114">
        <ele>226.05</ele>
        <time>2012-04-22T09:14:48Z</time>
      </trkpt>
      <trkpt lat="44.40479" lon="4.79117">
        <ele>227.49</ele>
        <time>2012-04-22T09:14:56Z</time>
      </trkpt>
      <trkpt lat="44.40499" lon="4.79125">
        <ele>227.97</ele>
        <time>2012-04-22T09:15:03Z</time>
      </trkpt>
      <trkpt lat="44.40517" lon="4.7913">
        <ele>229.41</ele>
        <time>2012-04-22T09:15:11Z</time>
      </trkpt>
      <trkpt lat="44.40517" lon="4.79105">
        <ele>231.33</ele>
        <time>2012-04-22T09:15:24Z</time>
      </trkpt>
      <trkpt lat="44.40504" lon="4.79086">
        <ele>233.26</ele>
        <time>2012-04-22T09:15:36Z</time>
      </trkpt>
      <trkpt lat="44.40496" lon="4.79065">
        <ele>236.62</ele>
        <time>2012-04-22T09:15:49Z</time>
      </trkpt>
      <trkpt lat="44.40508" lon="4.79045">
        <ele>240.47</ele>
        <time>2012-04-22T09:16:12Z</time>
      </trkpt>
      <trkpt lat="44.40498" lon="4.79028">
        <ele>241.91</ele>
        <time>2012-04-22T09:18:08Z</time>
      </trkpt>
      <trkpt lat="44.4048" lon="4.79024">
        <ele>241.91</ele>
        <time>2012-04-22T09:18:17Z</time>
      </trkpt>
      <trkpt lat="44.40461" lon="4.79016">
        <ele>242.87</ele>
        <time>2012-04-22T09:18:24Z</time>
      </trkpt>
      <trkpt lat="44.40441" lon="4.79008">
        <ele>242.87</ele>
        <time>2012-04-22T09:18:31Z</time>
      </trkpt>
      <trkpt lat="44.40423" lon="4.78996">
        <ele>243.35</ele>
        <time>2012-04-22T09:18:38Z</time>
      </trkpt>
      <trkpt lat="44.40406" lon="4.78988">
        <ele>243.83</ele>
        <time>2012-04-22T09:18:44Z</time>
      </trkpt>
      <trkpt lat="44.40386" lon="4.78982">
        <ele>243.35</ele>
        <time>2012-04-22T09:18:50Z</time>
      </trkpt>
      <trkpt lat="44.40367" lon="4.78969">
        <ele>244.31</ele>
        <time>2012-04-22T09:18:56Z</time>
      </trkpt>
      <trkpt lat="44.40349" lon="4.78958">
        <ele>243.83</ele>
        <time>2012-04-22T09:19:02Z</time>
      </trkpt>
      <trkpt lat="44.40331" lon="4.78954">
        <ele>243.83</ele>
        <time>2012-04-22T09:19:07Z</time>
      </trkpt>
      <trkpt lat="44.40313" lon="4.78953">
        <ele>243.83</ele>
        <time>2012-04-22T09:19:12Z</time>
      </trkpt>
      <trkpt lat="44.40292" lon="4.7895">
        <ele>242.87</ele>
        <time>2012-04-22T09:19:17Z</time>
      </trkpt>
      <trkpt lat="44.40274" lon="4.78944">
        <ele>242.39</ele>
        <time>2012-04-22T09:19:22Z</time>
      </trkpt>
      <trkpt lat="44.40255" lon="4.78931">
        <ele>241.91</ele>
        <time>2012-04-22T09:19:27Z</time>
      </trkpt>
      <trkpt lat="44.40237" lon="4.78924">
        <ele>239.99</ele>
        <time>2012-04-22T09:19:31Z</time>
      </trkpt>
      <trkpt lat="44.40228" lon="4.78907">
        <ele>239.51</ele>
        <time>2012-04-22T09:19:38Z</time>
      </trkpt>
      <trkpt lat="44.40256" lon="4.78893">
        <ele>240.47</ele>
        <time>2012-04-22T09:19:47Z</time>
      </trkpt>
      <trkpt lat="44.40275" lon="4.78884">
        <ele>240.95</ele>
        <time>2012-04-22T09:19:53Z</time>
      </trkpt>
      <trkpt lat="44.40294" lon="4.78874">
        <ele>240.95</ele>
        <time>2012-04-22T09:19:58Z</time>
      </trkpt>
      <trkpt lat="44.40313" lon="4.78864">
        <ele>241.43</ele>
        <time>2012-04-22T09:20:03Z</time>
      </trkpt>
      <trkpt lat="44.4033" lon="4.78854">
        <ele>240.47</ele>
        <time>2012-04-22T09:20:08Z</time>
      </trkpt>
      <trkpt lat="44.40341" lon="4.78834">
        <ele>240.47</ele>
        <time>2012-04-22T09:20:15Z</time>
      </trkpt>
      <trkpt lat="44.4029" lon="4.78829">
        <ele>239.99</ele>
        <time>2012-04-22T09:20:25Z</time>
      </trkpt>
      <trkpt lat="44.40245" lon="4.78831">
        <ele>238.06</ele>
        <time>2012-04-22T09:20:32Z</time>
      </trkpt>
      <trkpt lat="44.40218" lon="4.78824">
        <ele>237.58</ele>
        <time>2012-04-22T09:20:36Z</time>
      </trkpt>
      <trkpt lat="44.40199" lon="4.78809">
        <ele>236.62</ele>
        <time>2012-04-22T09:20:39Z</time>
      </trkpt>
      <trkpt lat="44.4018" lon="4.78794">
        <ele>235.18</ele>
        <time>2012-04-22T09:20:42Z</time>
      </trkpt>
      <trkpt lat="44.40162" lon="4.78778">
        <ele>234.22</ele>
        <time>2012-04-22T09:20:45Z</time>
      </trkpt>
      <trkpt lat="44.40144" lon="4.78763">
        <ele>233.26</ele>
        <time>2012-04-22T09:20:48Z</time>
      </trkpt>
      <trkpt lat="44.40128" lon="4.78747">
        <ele>230.85</ele>
        <time>2012-04-22T09:20:52Z</time>
      </trkpt>
      <trkpt lat="44.40138" lon="4.78726">
        <ele>229.89</ele>
        <time>2012-04-22T09:20:59Z</time>
      </trkpt>
      <trkpt lat="44.40155" lon="4.78726">
        <ele>229.89</ele>
        <time>2012-04-22T09:21:08Z</time>
      </trkpt>
      <trkpt lat="44.40163" lon="4.78705">
        <ele>228.93</ele>
        <time>2012-04-22T09:21:19Z</time>
      </trkpt>
      <trkpt lat="44.40178" lon="4.78685">
        <ele>227.01</ele>
        <time>2012-04-22T09:21:26Z</time>
      </trkpt>
      <trkpt lat="44.4019" lon="4.78661">
        <ele>225.09</ele>
        <time>2012-04-22T09:21:32Z</time>
      </trkpt>
      <trkpt lat="44.40202" lon="4.78638">
        <ele>223.16</ele>
        <time>2012-04-22T09:21:40Z</time>
      </trkpt>
      <trkpt lat="44.40208" lon="4.78611">
        <ele>222.2</ele>
        <time>2012-04-22T09:21:47Z</time>
      </trkpt>
      <trkpt lat="44.40217" lon="4.78587">
        <ele>219.8</ele>
        <time>2012-04-22T09:21:53Z</time>
      </trkpt>
      <trkpt lat="44.40227" lon="4.78566">
        <ele>218.36</ele>
        <time>2012-04-22T09:22:00Z</time>
      </trkpt>
      <trkpt lat="44.40238" lon="4.78541">
        <ele>216.43</ele>
        <time>2012-04-22T09:22:06Z</time>
      </trkpt>
      <trkpt lat="44.40251" lon="4.78521">
        <ele>215.47</ele>
        <time>2012-04-22T09:22:12Z</time>
      </trkpt>
      <trkpt lat="44.40264" lon="4.785">
        <ele>213.07</ele>
        <time>2012-04-22T09:22:17Z</time>
      </trkpt>
      <trkpt lat="44.40276" lon="4.78476">
        <ele>210.19</ele>
        <time>2012-04-22T09:22:22Z</time>
      </trkpt>
      <trkpt lat="44.40284" lon="4.78444">
        <ele>206.34</ele>
        <time>2012-04-22T09:22:27Z</time>
      </trkpt>
      <trkpt lat="44.40295" lon="4.78417">
        <ele>204.42</ele>
        <time>2012-04-22T09:22:32Z</time>
      </trkpt>
      <trkpt lat="44.40299" lon="4.78382">
        <ele>202.49</ele>
        <time>2012-04-22T09:22:37Z</time>
      </trkpt>
      <trkpt lat="44.40298" lon="4.78356">
        <ele>200.57</ele>
        <time>2012-04-22T09:22:41Z</time>
      </trkpt>
      <trkpt lat="44.40292" lon="4.7833">
        <ele>200.09</ele>
        <time>2012-04-22T09:22:45Z</time>
      </trkpt>
      <trkpt lat="44.40286" lon="4.78305">
        <ele>197.69</ele>
        <time>2012-04-22T09:22:49Z</time>
      </trkpt>
      <trkpt lat="44.40277" lon="4.78279">
        <ele>195.28</ele>
        <time>2012-04-22T09:22:53Z</time>
      </trkpt>
      <trkpt lat="44.40267" lon="4.7825">
        <ele>192.4</ele>
        <time>2012-04-22T09:22:57Z</time>
      </trkpt>
      <trkpt lat="44.40255" lon="4.78225">
        <ele>190.96</ele>
        <time>2012-04-22T09:23:01Z</time>
      </trkpt>
      <trkpt lat="44.40248" lon="4.78195">
        <ele>189.04</ele>
        <time>2012-04-22T09:23:05Z</time>
      </trkpt>
      <trkpt lat="44.40239" lon="4.7817">
        <ele>187.11</ele>
        <time>2012-04-22T09:23:09Z</time>
      </trkpt>
      <trkpt lat="44.40245" lon="4.78162">
        <ele>186.63</ele>
        <time>2012-04-22T09:23:18Z</time>
      </trkpt>
      <trkpt lat="44.40244" lon="4.78143">
        <ele>186.15</ele>
        <time>2012-04-22T09:23:36Z</time>
      </trkpt>
      <trkpt lat="44.40252" lon="4.78119">
        <ele>185.19</ele>
        <time>2012-04-22T09:23:44Z</time>
      </trkpt>
      <trkpt lat="44.4027" lon="4.78115">
        <ele>184.23</ele>
        <time>2012-04-22T09:23:49Z</time>
      </trkpt>
      <trkpt lat="44.40292" lon="4.78107">
        <ele>184.71</ele>
        <time>2012-04-22T09:23:54Z</time>
      </trkpt>
      <trkpt lat="44.40313" lon="4.78098">
        <ele>183.75</ele>
        <time>2012-04-22T09:23:58Z</time>
      </trkpt>
      <trkpt lat="44.40334" lon="4.78097">
        <ele>183.75</ele>
        <time>2012-04-22T09:24:02Z</time>
      </trkpt>
      <trkpt lat="44.40354" lon="4.78092">
        <ele>183.27</ele>
        <time>2012-04-22T09:24:06Z</time>
      </trkpt>
      <trkpt lat="44.40374" lon="4.78083">
        <ele>183.75</ele>
        <time>2012-04-22T09:24:10Z</time>
      </trkpt>
      <trkpt lat="44.40393" lon="4.78071">
        <ele>182.79</ele>
        <time>2012-04-22T09:24:14Z</time>
      </trkpt>
      <trkpt lat="44.40414" lon="4.78058">
        <ele>183.27</ele>
        <time>2012-04-22T09:24:18Z</time>
      </trkpt>
      <trkpt lat="44.40432" lon="4.78047">
        <ele>183.27</ele>
        <time>2012-04-22T09:24:22Z</time>
      </trkpt>
      <trkpt lat="44.40451" lon="4.78044">
        <ele>184.23</ele>
        <time>2012-04-22T09:24:28Z</time>
      </trkpt>
      <trkpt lat="44.40468" lon="4.78036">
        <ele>185.67</ele>
        <time>2012-04-22T09:24:36Z</time>
      </trkpt>
      <trkpt lat="44.40474" lon="4.78011">
        <ele>184.71</ele>
        <time>2012-04-22T09:24:46Z</time>
      </trkpt>
      <trkpt lat="44.40476" lon="4.78011">
        <ele>184.71</ele>
        <time>2012-04-22T09:31:37Z</time>
      </trkpt>
      <trkpt lat="44.40477" lon="4.78005">
        <ele>183.75</ele>
        <time>2012-04-22T09:37:09Z</time>
      </trkpt>
      <trkpt lat="44.40485" lon="4.77992">
        <ele>183.75</ele>
        <time>2012-04-22T09:38:32Z</time>
      </trkpt>
      <trkpt lat="44.40502" lon="4.77975">
        <ele>183.27</ele>
        <time>2012-04-22T09:38:39Z</time>
      </trkpt>
      <trkpt lat="44.40522" lon="4.77963">
        <ele>181.83</ele>
        <time>2012-04-22T09:38:44Z</time>
      </trkpt>
      <trkpt lat="44.40546" lon="4.77955">
        <ele>179.9</ele>
        <time>2012-04-22T09:38:48Z</time>
      </trkpt>
      <trkpt lat="44.40564" lon="4.77945">
        <ele>177.98</ele>
        <time>2012-04-22T09:38:51Z</time>
      </trkpt>
      <trkpt lat="44.40582" lon="4.77945">
        <ele>175.1</ele>
        <time>2012-04-22T09:38:57Z</time>
      </trkpt>
      <trkpt lat="44.4059" lon="4.7797">
        <ele>175.1</ele>
        <time>2012-04-22T09:39:05Z</time>
      </trkpt>
      <trkpt lat="44.40602" lon="4.7799">
        <ele>174.62</ele>
        <time>2012-04-22T09:39:11Z</time>
      </trkpt>
      <trkpt lat="44.40614" lon="4.78012">
        <ele>174.62</ele>
        <time>2012-04-22T09:39:17Z</time>
      </trkpt>
      <trkpt lat="44.40624" lon="4.78033">
        <ele>173.66</ele>
        <time>2012-04-22T09:39:22Z</time>
      </trkpt>
      <trkpt lat="44.40631" lon="4.78058">
        <ele>175.1</ele>
        <time>2012-04-22T09:39:30Z</time>
      </trkpt>
      <trkpt lat="44.40644" lon="4.78083">
        <ele>178.94</ele>
        <time>2012-04-22T09:39:47Z</time>
      </trkpt>
      <trkpt lat="44.40653" lon="4.78116">
        <ele>184.71</ele>
        <time>2012-04-22T09:40:06Z</time>
      </trkpt>
      <trkpt lat="44.40667" lon="4.78138">
        <ele>187.11</ele>
        <time>2012-04-22T09:40:23Z</time>
      </trkpt>
      <trkpt lat="44.40686" lon="4.78148">
        <ele>190.48</ele>
        <time>2012-04-22T09:40:39Z</time>
      </trkpt>
      <trkpt lat="44.40703" lon="4.78159">
        <ele>192.4</ele>
        <time>2012-04-22T09:40:54Z</time>
      </trkpt>
      <trkpt lat="44.40709" lon="4.78184">
        <ele>194.8</ele>
        <time>2012-04-22T09:41:10Z</time>
      </trkpt>
      <trkpt lat="44.40715" lon="4.78209">
        <ele>195.77</ele>
        <time>2012-04-22T09:41:23Z</time>
      </trkpt>
      <trkpt lat="44.40732" lon="4.78221">
        <ele>198.17</ele>
        <time>2012-04-22T09:41:36Z</time>
      </trkpt>
      <trkpt lat="44.40749" lon="4.78233">
        <ele>201.05</ele>
        <time>2012-04-22T09:41:50Z</time>
      </trkpt>
      <trkpt lat="44.40767" lon="4.78245">
        <ele>202.98</ele>
        <time>2012-04-22T09:42:03Z</time>
      </trkpt>
      <trkpt lat="44.4078" lon="4.78265">
        <ele>205.38</ele>
        <time>2012-04-22T09:42:16Z</time>
      </trkpt>
      <trkpt lat="44.40794" lon="4.7828">
        <ele>206.82</ele>
        <time>2012-04-22T09:42:30Z</time>
      </trkpt>
      <trkpt lat="44.40812" lon="4.78288">
        <ele>209.22</ele>
        <time>2012-04-22T09:42:45Z</time>
      </trkpt>
      <trkpt lat="44.4083" lon="4.78296">
        <ele>211.15</ele>
        <time>2012-04-22T09:42:58Z</time>
      </trkpt>
      <trkpt lat="44.40848" lon="4.78298">
        <ele>211.63</ele>
        <time>2012-04-22T09:43:11Z</time>
      </trkpt>
      <trkpt lat="44.40865" lon="4.78306">
        <ele>214.51</ele>
        <time>2012-04-22T09:43:24Z</time>
      </trkpt>
      <trkpt lat="44.40869" lon="4.7833">
        <ele>215.95</ele>
        <time>2012-04-22T09:43:38Z</time>
      </trkpt>
      <trkpt lat="44.40867" lon="4.78355">
        <ele>215.95</ele>
        <time>2012-04-22T09:43:49Z</time>
      </trkpt>
      <trkpt lat="44.40861" lon="4.7838">
        <ele>216.43</ele>
        <time>2012-04-22T09:43:57Z</time>
      </trkpt>
      <trkpt lat="44.40854" lon="4.78405">
        <ele>217.4</ele>
        <time>2012-04-22T09:44:04Z</time>
      </trkpt>
      <trkpt lat="44.40849" lon="4.78431">
        <ele>218.84</ele>
        <time>2012-04-22T09:44:13Z</time>
      </trkpt>
      <trkpt lat="44.40844" lon="4.78459">
        <ele>220.28</ele>
        <time>2012-04-22T09:44:23Z</time>
      </trkpt>
      <trkpt lat="44.40841" lon="4.78485">
        <ele>220.28</ele>
        <time>2012-04-22T09:44:31Z</time>
      </trkpt>
      <trkpt lat="44.4084" lon="4.7851">
        <ele>221.72</ele>
        <time>2012-04-22T09:44:39Z</time>
      </trkpt>
      <trkpt lat="44.40839" lon="4.78538">
        <ele>223.16</ele>
        <time>2012-04-22T09:44:47Z</time>
      </trkpt>
      <trkpt lat="44.40836" lon="4.78564">
        <ele>222.2</ele>
        <time>2012-04-22T09:44:54Z</time>
      </trkpt>
      <trkpt lat="44.4082" lon="4.78582">
        <ele>221.72</ele>
        <time>2012-04-22T09:45:00Z</time>
      </trkpt>
      <trkpt lat="44.40802" lon="4.78586">
        <ele>219.8</ele>
        <time>2012-04-22T09:45:04Z</time>
      </trkpt>
      <trkpt lat="44.40782" lon="4.78596">
        <ele>220.28</ele>
        <time>2012-04-22T09:45:09Z</time>
      </trkpt>
      <trkpt lat="44.40776" lon="4.7862">
        <ele>219.32</ele>
        <time>2012-04-22T09:45:16Z</time>
      </trkpt>
      <trkpt lat="44.40782" lon="4.78646">
        <ele>222.2</ele>
        <time>2012-04-22T09:45:24Z</time>
      </trkpt>
      <trkpt lat="44.4078" lon="4.78673">
        <ele>223.16</ele>
        <time>2012-04-22T09:45:33Z</time>
      </trkpt>
      <trkpt lat="44.40776" lon="4.78699">
        <ele>224.61</ele>
        <time>2012-04-22T09:45:43Z</time>
      </trkpt>
      <trkpt lat="44.40785" lon="4.78723">
        <ele>225.57</ele>
        <time>2012-04-22T09:45:54Z</time>
      </trkpt>
      <trkpt lat="44.40808" lon="4.78727">
        <ele>222.68</ele>
        <time>2012-04-22T09:46:01Z</time>
      </trkpt>
      <trkpt lat="44.40823" lon="4.7875">
        <ele>219.32</ele>
        <time>2012-04-22T09:46:06Z</time>
      </trkpt>
      <trkpt lat="44.40841" lon="4.7878">
        <ele>216.43</ele>
        <time>2012-04-22T09:46:12Z</time>
      </trkpt>
      <trkpt lat="44.40854" lon="4.78806">
        <ele>213.07</ele>
        <time>2012-04-22T09:46:17Z</time>
      </trkpt>
      <trkpt lat="44.40852" lon="4.78835">
        <ele>213.07</ele>
        <time>2012-04-22T09:46:23Z</time>
      </trkpt>
      <trkpt lat="44.40842" lon="4.78862">
        <ele>214.99</ele>
        <time>2012-04-22T09:46:30Z</time>
      </trkpt>
      <trkpt lat="44.40838" lon="4.78889">
        <ele>214.03</ele>
        <time>2012-04-22T09:46:38Z</time>
      </trkpt>
      <trkpt lat="44.40838" lon="4.78915">
        <ele>214.99</ele>
        <time>2012-04-22T09:46:44Z</time>
      </trkpt>
      <trkpt lat="44.40831" lon="4.78944">
        <ele>216.91</ele>
        <time>2012-04-22T09:46:52Z</time>
      </trkpt>
      <trkpt lat="44.40827" lon="4.78973">
        <ele>216.43</ele>
        <time>2012-04-22T09:46:59Z</time>
      </trkpt>
      <trkpt lat="44.40823" lon="4.79003">
        <ele>217.88</ele>
        <time>2012-04-22T09:47:07Z</time>
      </trkpt>
      <trkpt lat="44.40824" lon="4.79032">
        <ele>218.36</ele>
        <time>2012-04-22T09:47:14Z</time>
      </trkpt>
      <trkpt lat="44.40828" lon="4.79062">
        <ele>218.84</ele>
        <time>2012-04-22T09:47:21Z</time>
      </trkpt>
      <trkpt lat="44.40827" lon="4.79087">
        <ele>218.84</ele>
        <time>2012-04-22T09:47:27Z</time>
      </trkpt>
      <trkpt lat="44.4082" lon="4.79113">
        <ele>221.24</ele>
        <time>2012-04-22T09:47:37Z</time>
      </trkpt>
      <trkpt lat="44.4081" lon="4.7914">
        <ele>220.76</ele>
        <time>2012-04-22T09:47:46Z</time>
      </trkpt>
      <trkpt lat="44.40802" lon="4.79168">
        <ele>220.28</ele>
        <time>2012-04-22T09:47:53Z</time>
      </trkpt>
      <trkpt lat="44.40798" lon="4.79197">
        <ele>220.28</ele>
        <time>2012-04-22T09:47:59Z</time>
      </trkpt>
      <trkpt lat="44.40793" lon="4.79226">
        <ele>220.28</ele>
        <time>2012-04-22T09:48:06Z</time>
      </trkpt>
      <trkpt lat="44.40781" lon="4.7925">
        <ele>222.2</ele>
        <time>2012-04-22T09:48:14Z</time>
      </trkpt>
      <trkpt lat="44.40767" lon="4.79274">
        <ele>222.68</ele>
        <time>2012-04-22T09:48:22Z</time>
      </trkpt>
      <trkpt lat="44.40752" lon="4.79291">
        <ele>222.68</ele>
        <time>2012-04-22T09:48:29Z</time>
      </trkpt>
      <trkpt lat="44.40733" lon="4.793">
        <ele>224.12</ele>
        <time>2012-04-22T09:48:38Z</time>
      </trkpt>
      <trkpt lat="44.40717" lon="4.79313">
        <ele>224.61</ele>
        <time>2012-04-22T09:48:50Z</time>
      </trkpt>
      <trkpt lat="44.40725" lon="4.79338">
        <ele>221.24</ele>
        <time>2012-04-22T09:48:58Z</time>
      </trkpt>
      <trkpt lat="44.40709" lon="4.79368">
        <ele>218.36</ele>
        <time>2012-04-22T09:49:06Z</time>
      </trkpt>
      <trkpt lat="44.4069" lon="4.79384">
        <ele>218.36</ele>
        <time>2012-04-22T09:49:13Z</time>
      </trkpt>
      <trkpt lat="44.40688" lon="4.79408">
        <ele>214.99</ele>
        <time>2012-04-22T09:49:20Z</time>
      </trkpt>
      <trkpt lat="44.40717" lon="4.79411">
        <ele>208.26</ele>
        <time>2012-04-22T09:49:31Z</time>
      </trkpt>
      <trkpt lat="44.40742" lon="4.79414">
        <ele>202.98</ele>
        <time>2012-04-22T09:49:37Z</time>
      </trkpt>
      <trkpt lat="44.40764" lon="4.79419">
        <ele>198.17</ele>
        <time>2012-04-22T09:49:44Z</time>
      </trkpt>
      <trkpt lat="44.40788" lon="4.79421">
        <ele>190</ele>
        <time>2012-04-22T09:49:52Z</time>
      </trkpt>
      <trkpt lat="44.40813" lon="4.79424">
        <ele>184.23</ele>
        <time>2012-04-22T09:49:59Z</time>
      </trkpt>
      <trkpt lat="44.40834" lon="4.79416">
        <ele>182.31</ele>
        <time>2012-04-22T09:50:06Z</time>
      </trkpt>
      <trkpt lat="44.40849" lon="4.79391">
        <ele>182.31</ele>
        <time>2012-04-22T09:50:20Z</time>
      </trkpt>
      <trkpt lat="44.40858" lon="4.79365">
        <ele>183.75</ele>
        <time>2012-04-22T09:50:31Z</time>
      </trkpt>
      <trkpt lat="44.40867" lon="4.79338">
        <ele>182.31</ele>
        <time>2012-04-22T09:50:41Z</time>
      </trkpt>
      <trkpt lat="44.40883" lon="4.79325">
        <ele>176.06</ele>
        <time>2012-04-22T09:50:53Z</time>
      </trkpt>
      <trkpt lat="44.40901" lon="4.79318">
        <ele>167.41</ele>
        <time>2012-04-22T09:51:04Z</time>
      </trkpt>
      <trkpt lat="44.40919" lon="4.79332">
        <ele>158.75</ele>
        <time>2012-04-22T09:51:17Z</time>
      </trkpt>
      <trkpt lat="44.40931" lon="4.79322">
        <ele>155.87</ele>
        <time>2012-04-22T09:52:06Z</time>
      </trkpt>
      <trkpt lat="44.40941" lon="4.79299">
        <ele>157.79</ele>
        <time>2012-04-22T09:52:14Z</time>
      </trkpt>
      <trkpt lat="44.40955" lon="4.79275">
        <ele>159.24</ele>
        <time>2012-04-22T09:52:22Z</time>
      </trkpt>
      <trkpt lat="44.40962" lon="4.79249">
        <ele>159.24</ele>
        <time>2012-04-22T09:52:29Z</time>
      </trkpt>
      <trkpt lat="44.40966" lon="4.79221">
        <ele>159.24</ele>
        <time>2012-04-22T09:52:37Z</time>
      </trkpt>
      <trkpt lat="44.40972" lon="4.79192">
        <ele>157.79</ele>
        <time>2012-04-22T09:52:44Z</time>
      </trkpt>
      <trkpt lat="44.40963" lon="4.79165">
        <ele>158.75</ele>
        <time>2012-04-22T09:52:55Z</time>
      </trkpt>
      <trkpt lat="44.4096" lon="4.7914">
        <ele>160.68</ele>
        <time>2012-04-22T09:53:24Z</time>
      </trkpt>
      <trkpt lat="44.40973" lon="4.79115">
        <ele>157.31</ele>
        <time>2012-04-22T09:53:31Z</time>
      </trkpt>
      <trkpt lat="44.40975" lon="4.79087">
        <ele>158.27</ele>
        <time>2012-04-22T09:53:39Z</time>
      </trkpt>
      <trkpt lat="44.40985" lon="4.79063">
        <ele>156.83</ele>
        <time>2012-04-22T09:53:46Z</time>
      </trkpt>
      <trkpt lat="44.40987" lon="4.79036">
        <ele>158.27</ele>
        <time>2012-04-22T09:53:54Z</time>
      </trkpt>
      <trkpt lat="44.4099" lon="4.7901">
        <ele>158.75</ele>
        <time>2012-04-22T09:54:03Z</time>
      </trkpt>
      <trkpt lat="44.40999" lon="4.78988">
        <ele>160.68</ele>
        <time>2012-04-22T09:54:13Z</time>
      </trkpt>
      <trkpt lat="44.41015" lon="4.78973">
        <ele>159.24</ele>
        <time>2012-04-22T09:54:22Z</time>
      </trkpt>
      <trkpt lat="44.41032" lon="4.78958">
        <ele>155.39</ele>
        <time>2012-04-22T09:54:28Z</time>
      </trkpt>
      <trkpt lat="44.4105" lon="4.7894">
        <ele>151.54</ele>
        <time>2012-04-22T09:54:33Z</time>
      </trkpt>
      <trkpt lat="44.41068" lon="4.7893">
        <ele>149.14</ele>
        <time>2012-04-22T09:54:39Z</time>
      </trkpt>
      <trkpt lat="44.41079" lon="4.78969">
        <ele>138.57</ele>
        <time>2012-04-22T09:54:48Z</time>
      </trkpt>
      <trkpt lat="44.41068" lon="4.79027">
        <ele>130.4</ele>
        <time>2012-04-22T09:54:56Z</time>
      </trkpt>
      <trkpt lat="44.41076" lon="4.79066">
        <ele>126.07</ele>
        <time>2012-04-22T09:55:02Z</time>
      </trkpt>
      <trkpt lat="44.41097" lon="4.79092">
        <ele>120.3</ele>
        <time>2012-04-22T09:55:08Z</time>
      </trkpt>
      <trkpt lat="44.41129" lon="4.79111">
        <ele>115.5</ele>
        <time>2012-04-22T09:55:13Z</time>
      </trkpt>
      <trkpt lat="44.4115" lon="4.79134">
        <ele>111.65</ele>
        <time>2012-04-22T09:55:17Z</time>
      </trkpt>
      <trkpt lat="44.4117" lon="4.79143">
        <ele>108.77</ele>
        <time>2012-04-22T09:55:22Z</time>
      </trkpt>
      <trkpt lat="44.41181" lon="4.79096">
        <ele>104.44</ele>
        <time>2012-04-22T09:55:32Z</time>
      </trkpt>
      <trkpt lat="44.41193" lon="4.79072">
        <ele>102.04</ele>
        <time>2012-04-22T09:55:40Z</time>
      </trkpt>
      <trkpt lat="44.41195" lon="4.79034">
        <ele>105.88</ele>
        <time>2012-04-22T09:58:29Z</time>
      </trkpt>
      <trkpt lat="44.41193" lon="4.79011">
        <ele>105.4</ele>
        <time>2012-04-22T09:58:38Z</time>
      </trkpt>
      <trkpt lat="44.41192" lon="4.78984">
        <ele>104.92</ele>
        <time>2012-04-22T09:58:45Z</time>
      </trkpt>
      <trkpt lat="44.41197" lon="4.78956">
        <ele>105.88</ele>
        <time>2012-04-22T09:58:52Z</time>
      </trkpt>
      <trkpt lat="44.41203" lon="4.78926">
        <ele>105.4</ele>
        <time>2012-04-22T09:58:58Z</time>
      </trkpt>
      <trkpt lat="44.41207" lon="4.789">
        <ele>106.36</ele>
        <time>2012-04-22T09:59:04Z</time>
      </trkpt>
      <trkpt lat="44.41208" lon="4.78871">
        <ele>106.84</ele>
        <time>2012-04-22T09:59:09Z</time>
      </trkpt>
      <trkpt lat="44.41212" lon="4.78842">
        <ele>107.32</ele>
        <time>2012-04-22T09:59:15Z</time>
      </trkpt>
      <trkpt lat="44.41219" lon="4.78814">
        <ele>107.32</ele>
        <time>2012-04-22T09:59:21Z</time>
      </trkpt>
      <trkpt lat="44.41228" lon="4.78791">
        <ele>107.32</ele>
        <time>2012-04-22T09:59:27Z</time>
      </trkpt>
      <trkpt lat="44.41244" lon="4.78769">
        <ele>105.88</ele>
        <time>2012-04-22T09:59:32Z</time>
      </trkpt>
      <trkpt lat="44.41259" lon="4.78748">
        <ele>104.92</ele>
        <time>2012-04-22T09:59:36Z</time>
      </trkpt>
      <trkpt lat="44.41274" lon="4.78727">
        <ele>104.92</ele>
        <time>2012-04-22T09:59:40Z</time>
      </trkpt>
      <trkpt lat="44.4129" lon="4.7871">
        <ele>104.44</ele>
        <time>2012-04-22T09:59:44Z</time>
      </trkpt>
      <trkpt lat="44.41304" lon="4.78694">
        <ele>103.48</ele>
        <time>2012-04-22T09:59:48Z</time>
      </trkpt>
      <trkpt lat="44.41316" lon="4.78674">
        <ele>103.96</ele>
        <time>2012-04-22T09:59:52Z</time>
      </trkpt>
      <trkpt lat="44.4133" lon="4.78651">
        <ele>103.48</ele>
        <time>2012-04-22T09:59:57Z</time>
      </trkpt>
      <trkpt lat="44.41348" lon="4.78631">
        <ele>103</ele>
        <time>2012-04-22T10:00:02Z</time>
      </trkpt>
      <trkpt lat="44.41357" lon="4.78598">
        <ele>102.04</ele>
        <time>2012-04-22T10:00:07Z</time>
      </trkpt>
      <trkpt lat="44.41359" lon="4.78568">
        <ele>103.48</ele>
        <time>2012-04-22T10:00:11Z</time>
      </trkpt>
      <trkpt lat="44.41355" lon="4.78537">
        <ele>103.48</ele>
        <time>2012-04-22T10:00:16Z</time>
      </trkpt>
      <trkpt lat="44.41346" lon="4.78505">
        <ele>103.48</ele>
        <time>2012-04-22T10:00:21Z</time>
      </trkpt>
      <trkpt lat="44.4134" lon="4.78479">
        <ele>103.48</ele>
        <time>2012-04-22T10:00:25Z</time>
      </trkpt>
      <trkpt lat="44.41332" lon="4.78453">
        <ele>103.96</ele>
        <time>2012-04-22T10:00:29Z</time>
      </trkpt>
      <trkpt lat="44.41325" lon="4.78424">
        <ele>103.48</ele>
        <time>2012-04-22T10:00:33Z</time>
      </trkpt>
      <trkpt lat="44.41318" lon="4.78397">
        <ele>103.48</ele>
        <time>2012-04-22T10:00:37Z</time>
      </trkpt>
      <trkpt lat="44.41309" lon="4.78371">
        <ele>103.96</ele>
        <time>2012-04-22T10:00:41Z</time>
      </trkpt>
      <trkpt lat="44.41299" lon="4.78343">
        <ele>103</ele>
        <time>2012-04-22T10:00:45Z</time>
      </trkpt>
      <trkpt lat="44.41291" lon="4.78312">
        <ele>103</ele>
        <time>2012-04-22T10:00:49Z</time>
      </trkpt>
      <trkpt lat="44.41287" lon="4.7828">
        <ele>102.52</ele>
        <time>2012-04-22T10:00:53Z</time>
      </trkpt>
      <trkpt lat="44.41285" lon="4.78248">
        <ele>101.56</ele>
        <time>2012-04-22T10:00:57Z</time>
      </trkpt>
      <trkpt lat="44.41284" lon="4.78219">
        <ele>101.08</ele>
        <time>2012-04-22T10:01:01Z</time>
      </trkpt>
      <trkpt lat="44.41273" lon="4.78193">
        <ele>100.6</ele>
        <time>2012-04-22T10:01:05Z</time>
      </trkpt>
      <trkpt lat="44.41263" lon="4.78164">
        <ele>100.11</ele>
        <time>2012-04-22T10:01:09Z</time>
      </trkpt>
      <trkpt lat="44.41257" lon="4.78133">
        <ele>99.15</ele>
        <time>2012-04-22T10:01:13Z</time>
      </trkpt>
      <trkpt lat="44.41253" lon="4.78106">
        <ele>99.63</ele>
        <time>2012-04-22T10:01:17Z</time>
      </trkpt>
      <trkpt lat="44.41252" lon="4.78077">
        <ele>98.67</ele>
        <time>2012-04-22T10:01:21Z</time>
      </trkpt>
      <trkpt lat="44.4125" lon="4.78049">
        <ele>98.67</ele>
        <time>2012-04-22T10:01:25Z</time>
      </trkpt>
      <trkpt lat="44.4125" lon="4.78019">
        <ele>98.19</ele>
        <time>2012-04-22T10:01:29Z</time>
      </trkpt>
      <trkpt lat="44.41247" lon="4.77989">
        <ele>98.67</ele>
        <time>2012-04-22T10:01:33Z</time>
      </trkpt>
      <trkpt lat="44.41245" lon="4.77963">
        <ele>99.15</ele>
        <time>2012-04-22T10:01:37Z</time>
      </trkpt>
      <trkpt lat="44.41251" lon="4.77937">
        <ele>99.15</ele>
        <time>2012-04-22T10:01:41Z</time>
      </trkpt>
      <trkpt lat="44.41254" lon="4.77909">
        <ele>99.15</ele>
        <time>2012-04-22T10:01:45Z</time>
      </trkpt>
      <trkpt lat="44.41255" lon="4.77882">
        <ele>99.15</ele>
        <time>2012-04-22T10:01:49Z</time>
      </trkpt>
      <trkpt lat="44.41262" lon="4.77855">
        <ele>99.15</ele>
        <time>2012-04-22T10:01:54Z</time>
      </trkpt>
      <trkpt lat="44.41263" lon="4.77826">
        <ele>98.67</ele>
        <time>2012-04-22T10:02:00Z</time>
      </trkpt>
      <trkpt lat="44.41268" lon="4.778">
        <ele>98.67</ele>
        <time>2012-04-22T10:02:09Z</time>
      </trkpt>
      <trkpt lat="44.41271" lon="4.77791">
        <ele>98.67</ele>
        <time>2012-04-22T10:03:37Z</time>
      </trkpt>
      <trkpt lat="44.41277" lon="4.77765">
        <ele>98.19</ele>
        <time>2012-04-22T10:03:55Z</time>
      </trkpt>
      <trkpt lat="44.41283" lon="4.77735">
        <ele>98.67</ele>
        <time>2012-04-22T10:04:03Z</time>
      </trkpt>
      <trkpt lat="44.4129" lon="4.77704">
        <ele>98.67</ele>
        <time>2012-04-22T10:04:10Z</time>
      </trkpt>
      <trkpt lat="44.41281" lon="4.77677">
        <ele>99.63</ele>
        <time>2012-04-22T10:04:28Z</time>
      </trkpt>
      <trkpt lat="44.4126" lon="4.77661">
        <ele>99.63</ele>
        <time>2012-04-22T10:04:36Z</time>
      </trkpt>
      <trkpt lat="44.41245" lon="4.77643">
        <ele>100.6</ele>
        <time>2012-04-22T10:04:42Z</time>
      </trkpt>
      <trkpt lat="44.4123" lon="4.77622">
        <ele>100.6</ele>
        <time>2012-04-22T10:04:48Z</time>
      </trkpt>
      <trkpt lat="44.41216" lon="4.77602">
        <ele>100.11</ele>
        <time>2012-04-22T10:04:53Z</time>
      </trkpt>
      <trkpt lat="44.41202" lon="4.77584">
        <ele>100.11</ele>
        <time>2012-04-22T10:04:58Z</time>
      </trkpt>
      <trkpt lat="44.41186" lon="4.77567">
        <ele>101.08</ele>
        <time>2012-04-22T10:05:05Z</time>
      </trkpt>
      <trkpt lat="44.41174" lon="4.77548">
        <ele>102.52</ele>
        <time>2012-04-22T10:05:14Z</time>
      </trkpt>
      <trkpt lat="44.41163" lon="4.77533">
        <ele>105.4</ele>
        <time>2012-04-22T10:05:28Z</time>
      </trkpt>
      <trkpt lat="44.41163" lon="4.77559">
        <ele>107.81</ele>
        <time>2012-04-22T10:05:40Z</time>
      </trkpt>
      <trkpt lat="44.41154" lon="4.77583">
        <ele>112.13</ele>
        <time>2012-04-22T10:05:56Z</time>
      </trkpt>
      <trkpt lat="44.41152" lon="4.77608">
        <ele>116.94</ele>
        <time>2012-04-22T10:06:16Z</time>
      </trkpt>
      <trkpt lat="44.41165" lon="4.77635">
        <ele>119.82</ele>
        <time>2012-04-22T10:06:35Z</time>
      </trkpt>
      <trkpt lat="44.41169" lon="4.77661">
        <ele>122.71</ele>
        <time>2012-04-22T10:06:51Z</time>
      </trkpt>
      <trkpt lat="44.41159" lon="4.77683">
        <ele>125.11</ele>
        <time>2012-04-22T10:07:15Z</time>
      </trkpt>
      <trkpt lat="44.41143" lon="4.77686">
        <ele>128.47</ele>
        <time>2012-04-22T10:07:36Z</time>
      </trkpt>
      <trkpt lat="44.41124" lon="4.77693">
        <ele>130.88</ele>
        <time>2012-04-22T10:07:51Z</time>
      </trkpt>
      <trkpt lat="44.41107" lon="4.77691">
        <ele>132.8</ele>
        <time>2012-04-22T10:08:06Z</time>
      </trkpt>
      <trkpt lat="44.41091" lon="4.7768">
        <ele>136.64</ele>
        <time>2012-04-22T10:08:20Z</time>
      </trkpt>
      <trkpt lat="44.41072" lon="4.77678">
        <ele>138.57</ele>
        <time>2012-04-22T10:08:34Z</time>
      </trkpt>
      <trkpt lat="44.41057" lon="4.77694">
        <ele>140.49</ele>
        <time>2012-04-22T10:08:49Z</time>
      </trkpt>
      <trkpt lat="44.41043" lon="4.77709">
        <ele>143.85</ele>
        <time>2012-04-22T10:09:05Z</time>
      </trkpt>
      <trkpt lat="44.41029" lon="4.77726">
        <ele>148.18</ele>
        <time>2012-04-22T10:09:29Z</time>
      </trkpt>
      <trkpt lat="44.41013" lon="4.77735">
        <ele>152.03</ele>
        <time>2012-04-22T10:09:48Z</time>
      </trkpt>
      <trkpt lat="44.40996" lon="4.77745">
        <ele>152.03</ele>
        <time>2012-04-22T10:10:07Z</time>
      </trkpt>
      <trkpt lat="44.40975" lon="4.77738">
        <ele>152.99</ele>
        <time>2012-04-22T10:10:15Z</time>
      </trkpt>
      <trkpt lat="44.40957" lon="4.77728">
        <ele>152.03</ele>
        <time>2012-04-22T10:10:23Z</time>
      </trkpt>
      <trkpt lat="44.40945" lon="4.77695">
        <ele>147.22</ele>
        <time>2012-04-22T10:10:30Z</time>
      </trkpt>
      <trkpt lat="44.40921" lon="4.77683">
        <ele>146.26</ele>
        <time>2012-04-22T10:10:36Z</time>
      </trkpt>
      <trkpt lat="44.40894" lon="4.7769">
        <ele>146.74</ele>
        <time>2012-04-22T10:10:43Z</time>
      </trkpt>
      <trkpt lat="44.40875" lon="4.77689">
        <ele>147.22</ele>
        <time>2012-04-22T10:10:50Z</time>
      </trkpt>
      <trkpt lat="44.40859" lon="4.777">
        <ele>148.18</ele>
        <time>2012-04-22T10:10:59Z</time>
      </trkpt>
      <trkpt lat="44.40844" lon="4.77715">
        <ele>151.06</ele>
        <time>2012-04-22T10:11:11Z</time>
      </trkpt>
      <trkpt lat="44.4083" lon="4.7773">
        <ele>154.91</ele>
        <time>2012-04-22T10:11:24Z</time>
      </trkpt>
      <trkpt lat="44.40811" lon="4.77742">
        <ele>155.39</ele>
        <time>2012-04-22T10:11:37Z</time>
      </trkpt>
      <trkpt lat="44.40796" lon="4.77735">
        <ele>152.99</ele>
        <time>2012-04-22T10:11:53Z</time>
      </trkpt>
      <trkpt lat="44.40767" lon="4.77735">
        <ele>155.87</ele>
        <time>2012-04-22T10:12:04Z</time>
      </trkpt>
      <trkpt lat="44.40747" lon="4.77736">
        <ele>157.31</ele>
        <time>2012-04-22T10:12:13Z</time>
      </trkpt>
      <trkpt lat="44.40727" lon="4.77734">
        <ele>156.83</ele>
        <time>2012-04-22T10:12:22Z</time>
      </trkpt>
      <trkpt lat="44.40708" lon="4.77734">
        <ele>159.24</ele>
        <time>2012-04-22T10:12:32Z</time>
      </trkpt>
      <trkpt lat="44.4069" lon="4.77737">
        <ele>160.68</ele>
        <time>2012-04-22T10:12:42Z</time>
      </trkpt>
      <trkpt lat="44.40682" lon="4.77759">
        <ele>162.6</ele>
        <time>2012-04-22T10:12:53Z</time>
      </trkpt>
      <trkpt lat="44.4068" lon="4.77786">
        <ele>166.45</ele>
        <time>2012-04-22T10:13:07Z</time>
      </trkpt>
      <trkpt lat="44.40681" lon="4.77812">
        <ele>168.37</ele>
        <time>2012-04-22T10:13:22Z</time>
      </trkpt>
      <trkpt lat="44.40671" lon="4.77808">
        <ele>170.77</ele>
        <time>2012-04-22T10:13:39Z</time>
      </trkpt>
      <trkpt lat="44.40657" lon="4.77785">
        <ele>172.21</ele>
        <time>2012-04-22T10:13:52Z</time>
      </trkpt>
      <trkpt lat="44.40643" lon="4.77784">
        <ele>174.14</ele>
        <time>2012-04-22T10:14:05Z</time>
      </trkpt>
      <trkpt lat="44.40634" lon="4.7781">
        <ele>176.54</ele>
        <time>2012-04-22T10:14:17Z</time>
      </trkpt>
      <trkpt lat="44.40624" lon="4.77801">
        <ele>177.02</ele>
        <time>2012-04-22T10:14:27Z</time>
      </trkpt>
      <trkpt lat="44.40621" lon="4.7777">
        <ele>177.02</ele>
        <time>2012-04-22T10:14:34Z</time>
      </trkpt>
      <trkpt lat="44.40625" lon="4.77742">
        <ele>176.06</ele>
        <time>2012-04-22T10:14:40Z</time>
      </trkpt>
      <trkpt lat="44.40635" lon="4.77711">
        <ele>174.62</ele>
        <time>2012-04-22T10:14:46Z</time>
      </trkpt>
      <trkpt lat="44.40642" lon="4.77681">
        <ele>176.06</ele>
        <time>2012-04-22T10:14:52Z</time>
      </trkpt>
      <trkpt lat="44.40637" lon="4.77654">
        <ele>179.42</ele>
        <time>2012-04-22T10:15:12Z</time>
      </trkpt>
      <trkpt lat="44.40622" lon="4.77638">
        <ele>182.31</ele>
        <time>2012-04-22T10:15:29Z</time>
      </trkpt>
      <trkpt lat="44.40621" lon="4.77604">
        <ele>184.71</ele>
        <time>2012-04-22T10:15:43Z</time>
      </trkpt>
      <trkpt lat="44.40617" lon="4.77575">
        <ele>186.15</ele>
        <time>2012-04-22T10:15:54Z</time>
      </trkpt>
      <trkpt lat="44.40611" lon="4.77548">
        <ele>188.08</ele>
        <time>2012-04-22T10:16:06Z</time>
      </trkpt>
      <trkpt lat="44.40614" lon="4.7752">
        <ele>188.56</ele>
        <time>2012-04-22T10:16:16Z</time>
      </trkpt>
      <trkpt lat="44.40615" lon="4.7749">
        <ele>190.48</ele>
        <time>2012-04-22T10:16:25Z</time>
      </trkpt>
      <trkpt lat="44.40614" lon="4.77462">
        <ele>190.48</ele>
        <time>2012-04-22T10:16:32Z</time>
      </trkpt>
      <trkpt lat="44.40613" lon="4.77434">
        <ele>191.92</ele>
        <time>2012-04-22T10:16:39Z</time>
      </trkpt>
      <trkpt lat="44.40605" lon="4.77406">
        <ele>191.92</ele>
        <time>2012-04-22T10:16:45Z</time>
      </trkpt>
      <trkpt lat="44.40596" lon="4.77379">
        <ele>191.92</ele>
        <time>2012-04-22T10:16:50Z</time>
      </trkpt>
      <trkpt lat="44.40585" lon="4.77354">
        <ele>191.44</ele>
        <time>2012-04-22T10:16:55Z</time>
      </trkpt>
      <trkpt lat="44.40577" lon="4.77329">
        <ele>191.44</ele>
        <time>2012-04-22T10:16:59Z</time>
      </trkpt>
      <trkpt lat="44.40575" lon="4.77301">
        <ele>190.96</ele>
        <time>2012-04-22T10:17:03Z</time>
      </trkpt>
      <trkpt lat="44.40572" lon="4.77272">
        <ele>190.48</ele>
        <time>2012-04-22T10:17:07Z</time>
      </trkpt>
      <trkpt lat="44.40564" lon="4.77246">
        <ele>190.96</ele>
        <time>2012-04-22T10:17:11Z</time>
      </trkpt>
      <trkpt lat="44.40556" lon="4.77223">
        <ele>190.48</ele>
        <time>2012-04-22T10:17:15Z</time>
      </trkpt>
      <trkpt lat="44.40552" lon="4.77196">
        <ele>190.48</ele>
        <time>2012-04-22T10:17:19Z</time>
      </trkpt>
      <trkpt lat="44.40541" lon="4.77172">
        <ele>190.48</ele>
        <time>2012-04-22T10:17:23Z</time>
      </trkpt>
      <trkpt lat="44.40527" lon="4.77148">
        <ele>190</ele>
        <time>2012-04-22T10:17:27Z</time>
      </trkpt>
      <trkpt lat="44.4051" lon="4.77126">
        <ele>189.52</ele>
        <time>2012-04-22T10:17:31Z</time>
      </trkpt>
      <trkpt lat="44.40489" lon="4.77113">
        <ele>189.52</ele>
        <time>2012-04-22T10:17:35Z</time>
      </trkpt>
      <trkpt lat="44.40469" lon="4.77102">
        <ele>189.52</ele>
        <time>2012-04-22T10:17:39Z</time>
      </trkpt>
      <trkpt lat="44.40462" lon="4.77077">
        <ele>190</ele>
        <time>2012-04-22T10:17:44Z</time>
      </trkpt>
      <trkpt lat="44.40463" lon="4.77048">
        <ele>188.56</ele>
        <time>2012-04-22T10:17:48Z</time>
      </trkpt>
      <trkpt lat="44.40467" lon="4.77017">
        <ele>188.56</ele>
        <time>2012-04-22T10:17:52Z</time>
      </trkpt>
      <trkpt lat="44.40468" lon="4.76987">
        <ele>188.08</ele>
        <time>2012-04-22T10:17:56Z</time>
      </trkpt>
      <trkpt lat="44.4047" lon="4.76956">
        <ele>187.11</ele>
        <time>2012-04-22T10:18:00Z</time>
      </trkpt>
      <trkpt lat="44.40477" lon="4.76928">
        <ele>187.11</ele>
        <time>2012-04-22T10:18:04Z</time>
      </trkpt>
      <trkpt lat="44.40488" lon="4.76907">
        <ele>186.15</ele>
        <time>2012-04-22T10:18:08Z</time>
      </trkpt>
      <trkpt lat="44.40502" lon="4.76887">
        <ele>186.63</ele>
        <time>2012-04-22T10:18:12Z</time>
      </trkpt>
      <trkpt lat="44.40514" lon="4.76861">
        <ele>186.63</ele>
        <time>2012-04-22T10:18:17Z</time>
      </trkpt>
      <trkpt lat="44.40527" lon="4.76832">
        <ele>186.15</ele>
        <time>2012-04-22T10:18:22Z</time>
      </trkpt>
      <trkpt lat="44.40537" lon="4.76807">
        <ele>186.15</ele>
        <time>2012-04-22T10:18:26Z</time>
      </trkpt>
      <trkpt lat="44.40542" lon="4.76778">
        <ele>185.67</ele>
        <time>2012-04-22T10:18:30Z</time>
      </trkpt>
      <trkpt lat="44.40548" lon="4.76747">
        <ele>185.67</ele>
        <time>2012-04-22T10:18:34Z</time>
      </trkpt>
      <trkpt lat="44.40553" lon="4.76717">
        <ele>185.67</ele>
        <time>2012-04-22T10:18:38Z</time>
      </trkpt>
      <trkpt lat="44.40557" lon="4.7669">
        <ele>185.67</ele>
        <time>2012-04-22T10:18:42Z</time>
      </trkpt>
      <trkpt lat="44.40564" lon="4.76664">
        <ele>183.75</ele>
        <time>2012-04-22T10:18:50Z</time>
      </trkpt>
      <trkpt lat="44.40582" lon="4.76659">
        <ele>180.87</ele>
        <time>2012-04-22T10:18:57Z</time>
      </trkpt>
      <trkpt lat="44.40601" lon="4.76661">
        <ele>177.5</ele>
        <time>2012-04-22T10:19:04Z</time>
      </trkpt>
      <trkpt lat="44.40621" lon="4.76655">
        <ele>175.1</ele>
        <time>2012-04-22T10:19:09Z</time>
      </trkpt>
      <trkpt lat="44.40641" lon="4.76649">
        <ele>172.21</ele>
        <time>2012-04-22T10:19:13Z</time>
      </trkpt>
      <trkpt lat="44.40662" lon="4.76633">
        <ele>169.81</ele>
        <time>2012-04-22T10:19:18Z</time>
      </trkpt>
      <trkpt lat="44.40681" lon="4.76614">
        <ele>167.41</ele>
        <time>2012-04-22T10:19:22Z</time>
      </trkpt>
      <trkpt lat="44.40697" lon="4.76605">
        <ele>165.96</ele>
        <time>2012-04-22T10:19:26Z</time>
      </trkpt>
      <trkpt lat="44.40712" lon="4.76608">
        <ele>164.04</ele>
        <time>2012-04-22T10:19:32Z</time>
      </trkpt>
      <trkpt lat="44.40727" lon="4.7662">
        <ele>161.64</ele>
        <time>2012-04-22T10:19:39Z</time>
      </trkpt>
      <trkpt lat="44.40749" lon="4.76618">
        <ele>161.16</ele>
        <time>2012-04-22T10:19:44Z</time>
      </trkpt>
      <trkpt lat="44.40768" lon="4.76619">
        <ele>159.72</ele>
        <time>2012-04-22T10:19:49Z</time>
      </trkpt>
      <trkpt lat="44.40784" lon="4.76635">
        <ele>157.31</ele>
        <time>2012-04-22T10:19:54Z</time>
      </trkpt>
      <trkpt lat="44.40779" lon="4.76665">
        <ele>154.91</ele>
        <time>2012-04-22T10:19:59Z</time>
      </trkpt>
      <trkpt lat="44.40783" lon="4.76683">
        <ele>151.54</ele>
        <time>2012-04-22T10:20:05Z</time>
      </trkpt>
      <trkpt lat="44.40801" lon="4.76688">
        <ele>148.66</ele>
        <time>2012-04-22T10:20:11Z</time>
      </trkpt>
      <trkpt lat="44.40811" lon="4.76709">
        <ele>145.3</ele>
        <time>2012-04-22T10:20:15Z</time>
      </trkpt>
      <trkpt lat="44.40819" lon="4.76726">
        <ele>140.49</ele>
        <time>2012-04-22T10:20:22Z</time>
      </trkpt>
      <trkpt lat="44.40814" lon="4.76748">
        <ele>138.09</ele>
        <time>2012-04-22T10:20:29Z</time>
      </trkpt>
      <trkpt lat="44.40802" lon="4.76767">
        <ele>137.61</ele>
        <time>2012-04-22T10:20:36Z</time>
      </trkpt>
      <trkpt lat="44.40794" lon="4.76793">
        <ele>136.16</ele>
        <time>2012-04-22T10:20:42Z</time>
      </trkpt>
      <trkpt lat="44.40785" lon="4.76814">
        <ele>131.84</ele>
        <time>2012-04-22T10:20:59Z</time>
      </trkpt>
      <trkpt lat="44.4079" lon="4.76836">
        <ele>134.72</ele>
        <time>2012-04-22T10:21:18Z</time>
      </trkpt>
      <trkpt lat="44.40782" lon="4.76862">
        <ele>135.68</ele>
        <time>2012-04-22T10:21:32Z</time>
      </trkpt>
      <trkpt lat="44.40795" lon="4.76885">
        <ele>134.24</ele>
        <time>2012-04-22T10:21:41Z</time>
      </trkpt>
      <trkpt lat="44.40811" lon="4.76906">
        <ele>131.84</ele>
        <time>2012-04-22T10:21:52Z</time>
      </trkpt>
      <trkpt lat="44.40823" lon="4.76926">
        <ele>133.76</ele>
        <time>2012-04-22T10:22:04Z</time>
      </trkpt>
      <trkpt lat="44.40831" lon="4.76948">
        <ele>135.2</ele>
        <time>2012-04-22T10:24:11Z</time>
      </trkpt>
      <trkpt lat="44.40838" lon="4.76972">
        <ele>137.61</ele>
        <time>2012-04-22T10:24:26Z</time>
      </trkpt>
      <trkpt lat="44.40838" lon="4.77001">
        <ele>139.05</ele>
        <time>2012-04-22T10:24:39Z</time>
      </trkpt>
      <trkpt lat="44.40846" lon="4.77032">
        <ele>139.05</ele>
        <time>2012-04-22T10:24:52Z</time>
      </trkpt>
      <trkpt lat="44.4085" lon="4.7706">
        <ele>140.49</ele>
        <time>2012-04-22T10:25:04Z</time>
      </trkpt>
      <trkpt lat="44.40859" lon="4.77086">
        <ele>140.97</ele>
        <time>2012-04-22T10:25:17Z</time>
      </trkpt>
      <trkpt lat="44.40878" lon="4.77093">
        <ele>139.53</ele>
        <time>2012-04-22T10:25:36Z</time>
      </trkpt>
      <trkpt lat="44.409" lon="4.77086">
        <ele>131.36</ele>
        <time>2012-04-22T10:25:44Z</time>
      </trkpt>
      <trkpt lat="44.40924" lon="4.77079">
        <ele>124.63</ele>
        <time>2012-04-22T10:25:50Z</time>
      </trkpt>
      <trkpt lat="44.40944" lon="4.7707">
        <ele>122.22</ele>
        <time>2012-04-22T10:25:55Z</time>
      </trkpt>
      <trkpt lat="44.40958" lon="4.77047">
        <ele>118.86</ele>
        <time>2012-04-22T10:26:00Z</time>
      </trkpt>
      <trkpt lat="44.40964" lon="4.77023">
        <ele>116.94</ele>
        <time>2012-04-22T10:26:05Z</time>
      </trkpt>
      <trkpt lat="44.40976" lon="4.77012">
        <ele>114.53</ele>
        <time>2012-04-22T10:26:11Z</time>
      </trkpt>
      <trkpt lat="44.40989" lon="4.77021">
        <ele>109.25</ele>
        <time>2012-04-22T10:26:18Z</time>
      </trkpt>
      <trkpt lat="44.41008" lon="4.77028">
        <ele>105.88</ele>
        <time>2012-04-22T10:26:25Z</time>
      </trkpt>
      <trkpt lat="44.41029" lon="4.77048">
        <ele>104.44</ele>
        <time>2012-04-22T10:26:34Z</time>
      </trkpt>
      <trkpt lat="44.41053" lon="4.77053">
        <ele>103.96</ele>
        <time>2012-04-22T10:26:44Z</time>
      </trkpt>
      <trkpt lat="44.41055" lon="4.77021">
        <ele>103.96</ele>
        <time>2012-04-22T10:26:51Z</time>
      </trkpt>
      <trkpt lat="44.41049" lon="4.76988">
        <ele>103</ele>
        <time>2012-04-22T10:26:59Z</time>
      </trkpt>
      <trkpt lat="44.41042" lon="4.76959">
        <ele>103</ele>
        <time>2012-04-22T10:27:06Z</time>
      </trkpt>
      <trkpt lat="44.41036" lon="4.76934">
        <ele>103</ele>
        <time>2012-04-22T10:27:11Z</time>
      </trkpt>
      <trkpt lat="44.4103" lon="4.76908">
        <ele>103.96</ele>
        <time>2012-04-22T10:27:16Z</time>
      </trkpt>
      <trkpt lat="44.41033" lon="4.76883">
        <ele>103</ele>
        <time>2012-04-22T10:27:21Z</time>
      </trkpt>
      <trkpt lat="44.41042" lon="4.76853">
        <ele>103</ele>
        <time>2012-04-22T10:27:26Z</time>
      </trkpt>
      <trkpt lat="44.41048" lon="4.76823">
        <ele>103.48</ele>
        <time>2012-04-22T10:27:31Z</time>
      </trkpt>
      <trkpt lat="44.41051" lon="4.76792">
        <ele>103.96</ele>
        <time>2012-04-22T10:27:36Z</time>
      </trkpt>
      <trkpt lat="44.41054" lon="4.76767">
        <ele>103.96</ele>
        <time>2012-04-22T10:27:40Z</time>
      </trkpt>
      <trkpt lat="44.41054" lon="4.76741">
        <ele>103.48</ele>
        <time>2012-04-22T10:27:44Z</time>
      </trkpt>
      <trkpt lat="44.41054" lon="4.7671">
        <ele>103.96</ele>
        <time>2012-04-22T10:27:49Z</time>
      </trkpt>
      <trkpt lat="44.41063" lon="4.76685">
        <ele>103</ele>
        <time>2012-04-22T10:27:54Z</time>
      </trkpt>
      <trkpt lat="44.41079" lon="4.76656">
        <ele>101.08</ele>
        <time>2012-04-22T10:27:59Z</time>
      </trkpt>
      <trkpt lat="44.41089" lon="4.76633">
        <ele>100.6</ele>
        <time>2012-04-22T10:28:03Z</time>
      </trkpt>
      <trkpt lat="44.41093" lon="4.76604">
        <ele>100.11</ele>
        <time>2012-04-22T10:28:07Z</time>
      </trkpt>
      <trkpt lat="44.41095" lon="4.76573">
        <ele>99.63</ele>
        <time>2012-04-22T10:28:11Z</time>
      </trkpt>
      <trkpt lat="44.411" lon="4.7654">
        <ele>99.15</ele>
        <time>2012-04-22T10:28:15Z</time>
      </trkpt>
      <trkpt lat="44.41103" lon="4.76513">
        <ele>99.15</ele>
        <time>2012-04-22T10:28:18Z</time>
      </trkpt>
      <trkpt lat="44.41108" lon="4.7648">
        <ele>99.15</ele>
        <time>2012-04-22T10:28:22Z</time>
      </trkpt>
      <trkpt lat="44.41112" lon="4.76447">
        <ele>98.67</ele>
        <time>2012-04-22T10:28:26Z</time>
      </trkpt>
      <trkpt lat="44.41113" lon="4.76418">
        <ele>100.11</ele>
        <time>2012-04-22T10:28:30Z</time>
      </trkpt>
      <trkpt lat="44.41116" lon="4.76387">
        <ele>100.11</ele>
        <time>2012-04-22T10:28:35Z</time>
      </trkpt>
      <trkpt lat="44.41117" lon="4.7636">
        <ele>100.11</ele>
        <time>2012-04-22T10:28:39Z</time>
      </trkpt>
      <trkpt lat="44.4112" lon="4.76332">
        <ele>99.63</ele>
        <time>2012-04-22T10:28:43Z</time>
      </trkpt>
      <trkpt lat="44.41122" lon="4.76306">
        <ele>99.63</ele>
        <time>2012-04-22T10:28:47Z</time>
      </trkpt>
      <trkpt lat="44.4113" lon="4.76281">
        <ele>99.15</ele>
        <time>2012-04-22T10:28:51Z</time>
      </trkpt>
      <trkpt lat="44.41142" lon="4.76255">
        <ele>98.67</ele>
        <time>2012-04-22T10:28:55Z</time>
      </trkpt>
      <trkpt lat="44.41145" lon="4.76224">
        <ele>99.15</ele>
        <time>2012-04-22T10:28:59Z</time>
      </trkpt>
      <trkpt lat="44.41146" lon="4.76196">
        <ele>98.19</ele>
        <time>2012-04-22T10:29:03Z</time>
      </trkpt>
      <trkpt lat="44.41152" lon="4.76167">
        <ele>98.19</ele>
        <time>2012-04-22T10:29:08Z</time>
      </trkpt>
      <trkpt lat="44.4116" lon="4.7614">
        <ele>99.15</ele>
        <time>2012-04-22T10:29:13Z</time>
      </trkpt>
      <trkpt lat="44.41164" lon="4.76104">
        <ele>98.19</ele>
        <time>2012-04-22T10:29:18Z</time>
      </trkpt>
      <trkpt lat="44.41162" lon="4.7607">
        <ele>99.15</ele>
        <time>2012-04-22T10:29:22Z</time>
      </trkpt>
      <trkpt lat="44.41158" lon="4.76039">
        <ele>98.67</ele>
        <time>2012-04-22T10:29:26Z</time>
      </trkpt>
      <trkpt lat="44.41153" lon="4.76004">
        <ele>98.19</ele>
        <time>2012-04-22T10:29:30Z</time>
      </trkpt>
      <trkpt lat="44.41154" lon="4.7597">
        <ele>98.19</ele>
        <time>2012-04-22T10:29:34Z</time>
      </trkpt>
      <trkpt lat="44.41156" lon="4.75937">
        <ele>97.71</ele>
        <time>2012-04-22T10:29:38Z</time>
      </trkpt>
      <trkpt lat="44.41163" lon="4.75912">
        <ele>95.79</ele>
        <time>2012-04-22T10:29:42Z</time>
      </trkpt>
      <trkpt lat="44.41156" lon="4.75889">
        <ele>96.75</ele>
        <time>2012-04-22T10:29:48Z</time>
      </trkpt>
      <trkpt lat="44.4115" lon="4.75862">
        <ele>96.75</ele>
        <time>2012-04-22T10:29:53Z</time>
      </trkpt>
      <trkpt lat="44.41146" lon="4.75835">
        <ele>97.71</ele>
        <time>2012-04-22T10:29:57Z</time>
      </trkpt>
      <trkpt lat="44.41139" lon="4.75803">
        <ele>97.71</ele>
        <time>2012-04-22T10:30:02Z</time>
      </trkpt>
      <trkpt lat="44.41132" lon="4.75776">
        <ele>98.19</ele>
        <time>2012-04-22T10:30:07Z</time>
      </trkpt>
      <trkpt lat="44.41129" lon="4.75743">
        <ele>97.71</ele>
        <time>2012-04-22T10:30:14Z</time>
      </trkpt>
      <trkpt lat="44.41132" lon="4.75707">
        <ele>98.19</ele>
        <time>2012-04-22T10:30:20Z</time>
      </trkpt>
      <trkpt lat="44.4113" lon="4.75675">
        <ele>97.71</ele>
        <time>2012-04-22T10:30:25Z</time>
      </trkpt>
      <trkpt lat="44.41126" lon="4.75646">
        <ele>98.19</ele>
        <time>2012-04-22T10:30:30Z</time>
      </trkpt>
      <trkpt lat="44.41121" lon="4.75613">
        <ele>101.56</ele>
        <time>2012-04-22T10:30:39Z</time>
      </trkpt>
      <trkpt lat="44.41114" lon="4.75579">
        <ele>103</ele>
        <time>2012-04-22T10:30:50Z</time>
      </trkpt>
      <trkpt lat="44.41116" lon="4.75539">
        <ele>103</ele>
        <time>2012-04-22T10:30:58Z</time>
      </trkpt>
      <trkpt lat="44.41124" lon="4.75505">
        <ele>101.56</ele>
        <time>2012-04-22T10:31:04Z</time>
      </trkpt>
      <trkpt lat="44.41132" lon="4.75475">
        <ele>102.04</ele>
        <time>2012-04-22T10:31:09Z</time>
      </trkpt>
      <trkpt lat="44.41139" lon="4.75441">
        <ele>98.67</ele>
        <time>2012-04-22T10:31:14Z</time>
      </trkpt>
      <trkpt lat="44.4115" lon="4.75405">
        <ele>96.27</ele>
        <time>2012-04-22T10:31:19Z</time>
      </trkpt>
      <trkpt lat="44.41158" lon="4.75373">
        <ele>94.35</ele>
        <time>2012-04-22T10:31:23Z</time>
      </trkpt>
      <trkpt lat="44.41162" lon="4.75333">
        <ele>92.9</ele>
        <time>2012-04-22T10:31:27Z</time>
      </trkpt>
      <trkpt lat="44.41163" lon="4.75297">
        <ele>92.42</ele>
        <time>2012-04-22T10:31:31Z</time>
      </trkpt>
      <trkpt lat="44.41165" lon="4.75266">
        <ele>92.9</ele>
        <time>2012-04-22T10:31:35Z</time>
      </trkpt>
      <trkpt lat="44.4117" lon="4.75235">
        <ele>92.9</ele>
        <time>2012-04-22T10:31:39Z</time>
      </trkpt>
      <trkpt lat="44.41169" lon="4.75203">
        <ele>92.42</ele>
        <time>2012-04-22T10:31:43Z</time>
      </trkpt>
      <trkpt lat="44.41169" lon="4.75171">
        <ele>91.94</ele>
        <time>2012-04-22T10:31:47Z</time>
      </trkpt>
      <trkpt lat="44.41161" lon="4.75141">
        <ele>92.42</ele>
        <time>2012-04-22T10:31:51Z</time>
      </trkpt>
      <trkpt lat="44.41154" lon="4.7511">
        <ele>92.42</ele>
        <time>2012-04-22T10:31:55Z</time>
      </trkpt>
      <trkpt lat="44.41145" lon="4.7508">
        <ele>90.98</ele>
        <time>2012-04-22T10:31:59Z</time>
      </trkpt>
      <trkpt lat="44.41125" lon="4.75068">
        <ele>91.46</ele>
        <time>2012-04-22T10:32:06Z</time>
      </trkpt>
      <trkpt lat="44.41109" lon="4.7505">
        <ele>92.42</ele>
        <time>2012-04-22T10:32:13Z</time>
      </trkpt>
      <trkpt lat="44.41098" lon="4.75023">
        <ele>96.27</ele>
        <time>2012-04-22T10:32:26Z</time>
      </trkpt>
      <trkpt lat="44.41085" lon="4.75003">
        <ele>99.63</ele>
        <time>2012-04-22T10:32:41Z</time>
      </trkpt>
      <trkpt lat="44.4107" lon="4.74979">
        <ele>103.96</ele>
        <time>2012-04-22T10:33:00Z</time>
      </trkpt>
      <trkpt lat="44.41052" lon="4.74964">
        <ele>106.36</ele>
        <time>2012-04-22T10:33:16Z</time>
      </trkpt>
      <trkpt lat="44.41037" lon="4.74946">
        <ele>108.77</ele>
        <time>2012-04-22T10:33:32Z</time>
      </trkpt>
      <trkpt lat="44.41022" lon="4.74927">
        <ele>111.17</ele>
        <time>2012-04-22T10:33:45Z</time>
      </trkpt>
      <trkpt lat="44.41009" lon="4.74907">
        <ele>112.61</ele>
        <time>2012-04-22T10:33:57Z</time>
      </trkpt>
      <trkpt lat="44.40998" lon="4.74884">
        <ele>113.09</ele>
        <time>2012-04-22T10:34:07Z</time>
      </trkpt>
      <trkpt lat="44.4099" lon="4.74854">
        <ele>113.09</ele>
        <time>2012-04-22T10:34:16Z</time>
      </trkpt>
      <trkpt lat="44.40986" lon="4.74822">
        <ele>112.13</ele>
        <time>2012-04-22T10:34:22Z</time>
      </trkpt>
      <trkpt lat="44.40987" lon="4.74783">
        <ele>106.36</ele>
        <time>2012-04-22T10:34:28Z</time>
      </trkpt>
      <trkpt lat="44.40975" lon="4.74739">
        <ele>103.96</ele>
        <time>2012-04-22T10:34:32Z</time>
      </trkpt>
      <trkpt lat="44.40957" lon="4.74711">
        <ele>103.96</ele>
        <time>2012-04-22T10:34:35Z</time>
      </trkpt>
      <trkpt lat="44.40944" lon="4.74686">
        <ele>105.88</ele>
        <time>2012-04-22T10:34:39Z</time>
      </trkpt>
      <trkpt lat="44.40925" lon="4.74667">
        <ele>107.81</ele>
        <time>2012-04-22T10:34:49Z</time>
      </trkpt>
      <trkpt lat="44.40904" lon="4.74658">
        <ele>108.29</ele>
        <time>2012-04-22T10:34:58Z</time>
      </trkpt>
      <trkpt lat="44.40884" lon="4.74649">
        <ele>108.77</ele>
        <time>2012-04-22T10:35:04Z</time>
      </trkpt>
      <trkpt lat="44.40862" lon="4.74641">
        <ele>109.25</ele>
        <time>2012-04-22T10:35:11Z</time>
      </trkpt>
      <trkpt lat="44.40842" lon="4.7464">
        <ele>110.69</ele>
        <time>2012-04-22T10:35:17Z</time>
      </trkpt>
      <trkpt lat="44.40822" lon="4.74643">
        <ele>110.21</ele>
        <time>2012-04-22T10:35:23Z</time>
      </trkpt>
      <trkpt lat="44.40802" lon="4.74647">
        <ele>110.69</ele>
        <time>2012-04-22T10:35:28Z</time>
      </trkpt>
      <trkpt lat="44.40783" lon="4.74651">
        <ele>111.65</ele>
        <time>2012-04-22T10:35:33Z</time>
      </trkpt>
      <trkpt lat="44.40763" lon="4.74659">
        <ele>110.69</ele>
        <time>2012-04-22T10:35:39Z</time>
      </trkpt>
      <trkpt lat="44.40745" lon="4.7467">
        <ele>111.17</ele>
        <time>2012-04-22T10:35:48Z</time>
      </trkpt>
      <trkpt lat="44.40727" lon="4.74681">
        <ele>112.61</ele>
        <time>2012-04-22T10:35:54Z</time>
      </trkpt>
      <trkpt lat="44.40709" lon="4.74695">
        <ele>112.61</ele>
        <time>2012-04-22T10:35:59Z</time>
      </trkpt>
      <trkpt lat="44.40693" lon="4.74708">
        <ele>113.57</ele>
        <time>2012-04-22T10:36:04Z</time>
      </trkpt>
      <trkpt lat="44.40676" lon="4.74723">
        <ele>115.01</ele>
        <time>2012-04-22T10:36:10Z</time>
      </trkpt>
      <trkpt lat="44.40656" lon="4.74736">
        <ele>114.53</ele>
        <time>2012-04-22T10:36:16Z</time>
      </trkpt>
      <trkpt lat="44.40637" lon="4.74745">
        <ele>114.53</ele>
        <time>2012-04-22T10:36:20Z</time>
      </trkpt>
      <trkpt lat="44.40618" lon="4.74754">
        <ele>113.57</ele>
        <time>2012-04-22T10:36:24Z</time>
      </trkpt>
      <trkpt lat="44.40599" lon="4.74763">
        <ele>113.57</ele>
        <time>2012-04-22T10:36:28Z</time>
      </trkpt>
      <trkpt lat="44.40579" lon="4.74775">
        <ele>114.53</ele>
        <time>2012-04-22T10:36:32Z</time>
      </trkpt>
      <trkpt lat="44.40565" lon="4.74792">
        <ele>114.53</ele>
        <time>2012-04-22T10:36:37Z</time>
      </trkpt>
      <trkpt lat="44.40552" lon="4.7481">
        <ele>115.98</ele>
        <time>2012-04-22T10:36:44Z</time>
      </trkpt>
      <trkpt lat="44.40545" lon="4.74829">
        <ele>116.94</ele>
        <time>2012-04-22T10:36:56Z</time>
      </trkpt>
      <trkpt lat="44.40562" lon="4.7482">
        <ele>119.82</ele>
        <time>2012-04-22T10:37:10Z</time>
      </trkpt>
      <trkpt lat="44.40579" lon="4.74805">
        <ele>122.22</ele>
        <time>2012-04-22T10:37:23Z</time>
      </trkpt>
      <trkpt lat="44.40602" lon="4.748">
        <ele>126.55</ele>
        <time>2012-04-22T10:37:38Z</time>
      </trkpt>
      <trkpt lat="44.40622" lon="4.74798">
        <ele>128.47</ele>
        <time>2012-04-22T10:37:53Z</time>
      </trkpt>
      <trkpt lat="44.40641" lon="4.74807">
        <ele>130.88</ele>
        <time>2012-04-22T10:38:08Z</time>
      </trkpt>
      <trkpt lat="44.40661" lon="4.74815">
        <ele>133.76</ele>
        <time>2012-04-22T10:38:21Z</time>
      </trkpt>
      <trkpt lat="44.40667" lon="4.74833">
        <ele>134.72</ele>
        <time>2012-04-22T10:38:35Z</time>
      </trkpt>
      <trkpt lat="44.40654" lon="4.74851">
        <ele>135.2</ele>
        <time>2012-04-22T10:38:45Z</time>
      </trkpt>
      <trkpt lat="44.40645" lon="4.74874">
        <ele>135.2</ele>
        <time>2012-04-22T10:38:53Z</time>
      </trkpt>
      <trkpt lat="44.40656" lon="4.7489">
        <ele>134.72</ele>
        <time>2012-04-22T10:39:02Z</time>
      </trkpt>
      <trkpt lat="44.40677" lon="4.74887">
        <ele>135.68</ele>
        <time>2012-04-22T10:39:09Z</time>
      </trkpt>
      <trkpt lat="44.40698" lon="4.74885">
        <ele>137.13</ele>
        <time>2012-04-22T10:39:15Z</time>
      </trkpt>
      <trkpt lat="44.40719" lon="4.74884">
        <ele>136.16</ele>
        <time>2012-04-22T10:39:21Z</time>
      </trkpt>
      <trkpt lat="44.40741" lon="4.74883">
        <ele>137.13</ele>
        <time>2012-04-22T10:39:27Z</time>
      </trkpt>
      <trkpt lat="44.4076" lon="4.74883">
        <ele>137.13</ele>
        <time>2012-04-22T10:39:32Z</time>
      </trkpt>
      <trkpt lat="44.40781" lon="4.74882">
        <ele>137.61</ele>
        <time>2012-04-22T10:39:37Z</time>
      </trkpt>
      <trkpt lat="44.408" lon="4.74881">
        <ele>137.61</ele>
        <time>2012-04-22T10:39:42Z</time>
      </trkpt>
      <trkpt lat="44.40819" lon="4.7488">
        <ele>138.09</ele>
        <time>2012-04-22T10:39:47Z</time>
      </trkpt>
      <trkpt lat="44.40837" lon="4.7488">
        <ele>137.13</ele>
        <time>2012-04-22T10:39:52Z</time>
      </trkpt>
      <trkpt lat="44.40855" lon="4.74879">
        <ele>137.13</ele>
        <time>2012-04-22T10:39:57Z</time>
      </trkpt>
      <trkpt lat="44.40875" lon="4.74878">
        <ele>137.61</ele>
        <time>2012-04-22T10:40:03Z</time>
      </trkpt>
      <trkpt lat="44.40895" lon="4.74877">
        <ele>138.09</ele>
        <time>2012-04-22T10:40:10Z</time>
      </trkpt>
      <trkpt lat="44.40899" lon="4.74894">
        <ele>137.61</ele>
        <time>2012-04-22T10:40:44Z</time>
      </trkpt>
      <trkpt lat="44.409" lon="4.74925">
        <ele>138.09</ele>
        <time>2012-04-22T10:40:51Z</time>
      </trkpt>
      <trkpt lat="44.409" lon="4.74951">
        <ele>138.09</ele>
        <time>2012-04-22T10:40:56Z</time>
      </trkpt>
      <trkpt lat="44.409" lon="4.74979">
        <ele>137.61</ele>
        <time>2012-04-22T10:41:01Z</time>
      </trkpt>
      <trkpt lat="44.409" lon="4.7501">
        <ele>137.61</ele>
        <time>2012-04-22T10:41:06Z</time>
      </trkpt>
      <trkpt lat="44.40902" lon="4.75041">
        <ele>138.09</ele>
        <time>2012-04-22T10:41:11Z</time>
      </trkpt>
      <trkpt lat="44.40902" lon="4.75072">
        <ele>138.09</ele>
        <time>2012-04-22T10:41:16Z</time>
      </trkpt>
      <trkpt lat="44.409" lon="4.75098">
        <ele>138.09</ele>
        <time>2012-04-22T10:41:20Z</time>
      </trkpt>
      <trkpt lat="44.40897" lon="4.75125">
        <ele>138.09</ele>
        <time>2012-04-22T10:41:24Z</time>
      </trkpt>
      <trkpt lat="44.40897" lon="4.75153">
        <ele>137.61</ele>
        <time>2012-04-22T10:41:28Z</time>
      </trkpt>
      <trkpt lat="44.40899" lon="4.7518">
        <ele>137.13</ele>
        <time>2012-04-22T10:41:32Z</time>
      </trkpt>
      <trkpt lat="44.40902" lon="4.75208">
        <ele>135.68</ele>
        <time>2012-04-22T10:41:36Z</time>
      </trkpt>
      <trkpt lat="44.40907" lon="4.75239">
        <ele>133.76</ele>
        <time>2012-04-22T10:41:40Z</time>
      </trkpt>
      <trkpt lat="44.4091" lon="4.7527">
        <ele>134.72</ele>
        <time>2012-04-22T10:41:44Z</time>
      </trkpt>
      <trkpt lat="44.40913" lon="4.753">
        <ele>135.68</ele>
        <time>2012-04-22T10:41:49Z</time>
      </trkpt>
      <trkpt lat="44.40916" lon="4.75327">
        <ele>137.61</ele>
        <time>2012-04-22T10:41:54Z</time>
      </trkpt>
      <trkpt lat="44.40921" lon="4.75353">
        <ele>138.57</ele>
        <time>2012-04-22T10:41:59Z</time>
      </trkpt>
      <trkpt lat="44.40925" lon="4.7538">
        <ele>139.05</ele>
        <time>2012-04-22T10:42:04Z</time>
      </trkpt>
      <trkpt lat="44.4093" lon="4.75407">
        <ele>139.53</ele>
        <time>2012-04-22T10:42:09Z</time>
      </trkpt>
      <trkpt lat="44.40931" lon="4.75435">
        <ele>140.01</ele>
        <time>2012-04-22T10:42:14Z</time>
      </trkpt>
      <trkpt lat="44.40936" lon="4.75465">
        <ele>140.01</ele>
        <time>2012-04-22T10:42:19Z</time>
      </trkpt>
      <trkpt lat="44.40939" lon="4.75494">
        <ele>139.53</ele>
        <time>2012-04-22T10:42:24Z</time>
      </trkpt>
      <trkpt lat="44.40941" lon="4.7552">
        <ele>140.49</ele>
        <time>2012-04-22T10:42:29Z</time>
      </trkpt>
      <trkpt lat="44.40959" lon="4.75529">
        <ele>140.49</ele>
        <time>2012-04-22T10:42:35Z</time>
      </trkpt>
      <trkpt lat="44.40968" lon="4.75553">
        <ele>141.45</ele>
        <time>2012-04-22T10:42:41Z</time>
      </trkpt>
      <trkpt lat="44.40984" lon="4.7557">
        <ele>141.45</ele>
        <time>2012-04-22T10:42:46Z</time>
      </trkpt>
      <trkpt lat="44.40997" lon="4.75591">
        <ele>140.97</ele>
        <time>2012-04-22T10:42:51Z</time>
      </trkpt>
      <trkpt lat="44.41003" lon="4.75614">
        <ele>140.97</ele>
        <time>2012-04-22T10:42:56Z</time>
      </trkpt>
      <trkpt lat="44.4101" lon="4.75641">
        <ele>142.41</ele>
        <time>2012-04-22T10:43:02Z</time>
      </trkpt>
      <trkpt lat="44.41018" lon="4.75663">
        <ele>141.93</ele>
        <time>2012-04-22T10:43:07Z</time>
      </trkpt>
      <trkpt lat="44.41016" lon="4.75695">
        <ele>142.41</ele>
        <time>2012-04-22T10:43:13Z</time>
      </trkpt>
      <trkpt lat="44.41011" lon="4.75725">
        <ele>142.89</ele>
        <time>2012-04-22T10:43:18Z</time>
      </trkpt>
      <trkpt lat="44.41007" lon="4.75754">
        <ele>142.89</ele>
        <time>2012-04-22T10:43:23Z</time>
      </trkpt>
      <trkpt lat="44.41008" lon="4.75782">
        <ele>143.37</ele>
        <time>2012-04-22T10:43:28Z</time>
      </trkpt>
      <trkpt lat="44.41007" lon="4.75812">
        <ele>144.34</ele>
        <time>2012-04-22T10:43:34Z</time>
      </trkpt>
      <trkpt lat="44.40995" lon="4.75838">
        <ele>143.85</ele>
        <time>2012-04-22T10:43:39Z</time>
      </trkpt>
      <trkpt lat="44.40985" lon="4.75865">
        <ele>144.34</ele>
        <time>2012-04-22T10:43:44Z</time>
      </trkpt>
      <trkpt lat="44.40978" lon="4.75893">
        <ele>144.34</ele>
        <time>2012-04-22T10:43:49Z</time>
      </trkpt>
      <trkpt lat="44.40974" lon="4.75919">
        <ele>143.85</ele>
        <time>2012-04-22T10:43:56Z</time>
      </trkpt>
      <trkpt lat="44.40983" lon="4.75943">
        <ele>145.3</ele>
        <time>2012-04-22T10:44:04Z</time>
      </trkpt>
      <trkpt lat="44.40994" lon="4.75967">
        <ele>144.82</ele>
        <time>2012-04-22T10:44:11Z</time>
      </trkpt>
      <trkpt lat="44.40983" lon="4.7599">
        <ele>145.78</ele>
        <time>2012-04-22T10:44:19Z</time>
      </trkpt>
      <trkpt lat="44.40968" lon="4.76006">
        <ele>144.82</ele>
        <time>2012-04-22T10:44:25Z</time>
      </trkpt>
      <trkpt lat="44.40955" lon="4.76031">
        <ele>146.74</ele>
        <time>2012-04-22T10:44:32Z</time>
      </trkpt>
      <trkpt lat="44.4095" lon="4.7606">
        <ele>146.74</ele>
        <time>2012-04-22T10:44:38Z</time>
      </trkpt>
      <trkpt lat="44.40937" lon="4.76079">
        <ele>148.18</ele>
        <time>2012-04-22T10:44:44Z</time>
      </trkpt>
      <trkpt lat="44.40925" lon="4.76073">
        <ele>147.7</ele>
        <time>2012-04-22T10:44:51Z</time>
      </trkpt>
      <trkpt lat="44.40912" lon="4.76091">
        <ele>149.14</ele>
        <time>2012-04-22T10:45:02Z</time>
      </trkpt>
      <trkpt lat="44.409" lon="4.76115">
        <ele>149.62</ele>
        <time>2012-04-22T10:45:10Z</time>
      </trkpt>
      <trkpt lat="44.40901" lon="4.76142">
        <ele>151.06</ele>
        <time>2012-04-22T10:45:18Z</time>
      </trkpt>
      <trkpt lat="44.40902" lon="4.76171">
        <ele>151.54</ele>
        <time>2012-04-22T10:45:26Z</time>
      </trkpt>
      <trkpt lat="44.40901" lon="4.76199">
        <ele>152.99</ele>
        <time>2012-04-22T10:45:34Z</time>
      </trkpt>
      <trkpt lat="44.40902" lon="4.76227">
        <ele>153.95</ele>
        <time>2012-04-22T10:45:43Z</time>
      </trkpt>
      <trkpt lat="44.40902" lon="4.76256">
        <ele>155.39</ele>
        <time>2012-04-22T10:45:51Z</time>
      </trkpt>
      <trkpt lat="44.40902" lon="4.76285">
        <ele>155.39</ele>
        <time>2012-04-22T10:45:58Z</time>
      </trkpt>
      <trkpt lat="44.409" lon="4.76313">
        <ele>155.87</ele>
        <time>2012-04-22T10:46:05Z</time>
      </trkpt>
      <trkpt lat="44.40897" lon="4.76339">
        <ele>156.83</ele>
        <time>2012-04-22T10:46:11Z</time>
      </trkpt>
      <trkpt lat="44.40887" lon="4.76365">
        <ele>157.79</ele>
        <time>2012-04-22T10:46:18Z</time>
      </trkpt>
      <trkpt lat="44.40873" lon="4.76383">
        <ele>158.27</ele>
        <time>2012-04-22T10:46:25Z</time>
      </trkpt>
      <trkpt lat="44.40855" lon="4.76391">
        <ele>159.72</ele>
        <time>2012-04-22T10:46:37Z</time>
      </trkpt>
      <trkpt lat="44.40838" lon="4.76402">
        <ele>162.6</ele>
        <time>2012-04-22T10:46:52Z</time>
      </trkpt>
      <trkpt lat="44.40826" lon="4.76422">
        <ele>165.48</ele>
        <time>2012-04-22T10:47:09Z</time>
      </trkpt>
      <trkpt lat="44.40817" lon="4.76444">
        <ele>165.48</ele>
        <time>2012-04-22T10:47:26Z</time>
      </trkpt>
      <trkpt lat="44.40801" lon="4.76457">
        <ele>168.85</ele>
        <time>2012-04-22T10:47:39Z</time>
      </trkpt>
      <trkpt lat="44.40799" lon="4.76459">
        <ele>167.89</ele>
        <time>2012-04-22T10:52:48Z</time>
      </trkpt>
      <trkpt lat="44.40789" lon="4.76447">
        <ele>169.81</ele>
        <time>2012-04-22T10:54:21Z</time>
      </trkpt>
      <trkpt lat="44.40776" lon="4.76435">
        <ele>172.69</ele>
        <time>2012-04-22T10:54:37Z</time>
      </trkpt>
      <trkpt lat="44.40759" lon="4.76443">
        <ele>175.1</ele>
        <time>2012-04-22T10:54:52Z</time>
      </trkpt>
      <trkpt lat="44.40743" lon="4.76454">
        <ele>176.54</ele>
        <time>2012-04-22T10:55:07Z</time>
      </trkpt>
      <trkpt lat="44.40728" lon="4.76468">
        <ele>179.42</ele>
        <time>2012-04-22T10:55:23Z</time>
      </trkpt>
      <trkpt lat="44.40712" lon="4.76484">
        <ele>181.83</ele>
        <time>2012-04-22T10:55:38Z</time>
      </trkpt>
      <trkpt lat="44.40696" lon="4.76498">
        <ele>184.23</ele>
        <time>2012-04-22T10:55:52Z</time>
      </trkpt>
      <trkpt lat="44.40679" lon="4.7651">
        <ele>185.67</ele>
        <time>2012-04-22T10:56:07Z</time>
      </trkpt>
      <trkpt lat="44.4066" lon="4.76508">
        <ele>187.11</ele>
        <time>2012-04-22T10:56:19Z</time>
      </trkpt>
      <trkpt lat="44.40641" lon="4.765">
        <ele>187.11</ele>
        <time>2012-04-22T10:56:27Z</time>
      </trkpt>
      <trkpt lat="44.40621" lon="4.76502">
        <ele>187.11</ele>
        <time>2012-04-22T10:56:34Z</time>
      </trkpt>
      <trkpt lat="44.40606" lon="4.76517">
        <ele>187.11</ele>
        <time>2012-04-22T10:56:40Z</time>
      </trkpt>
      <trkpt lat="44.40591" lon="4.76538">
        <ele>186.63</ele>
        <time>2012-04-22T10:56:46Z</time>
      </trkpt>
      <trkpt lat="44.40575" lon="4.76558">
        <ele>185.19</ele>
        <time>2012-04-22T10:56:52Z</time>
      </trkpt>
      <trkpt lat="44.40557" lon="4.76559">
        <ele>186.15</ele>
        <time>2012-04-22T10:56:58Z</time>
      </trkpt>
      <trkpt lat="44.40542" lon="4.76537">
        <ele>185.67</ele>
        <time>2012-04-22T10:57:04Z</time>
      </trkpt>
      <trkpt lat="44.40534" lon="4.7651">
        <ele>186.15</ele>
        <time>2012-04-22T10:57:10Z</time>
      </trkpt>
      <trkpt lat="44.40515" lon="4.76501">
        <ele>186.63</ele>
        <time>2012-04-22T10:57:15Z</time>
      </trkpt>
      <trkpt lat="44.40497" lon="4.76484">
        <ele>187.11</ele>
        <time>2012-04-22T10:57:20Z</time>
      </trkpt>
      <trkpt lat="44.40482" lon="4.76464">
        <ele>188.08</ele>
        <time>2012-04-22T10:57:25Z</time>
      </trkpt>
      <trkpt lat="44.40475" lon="4.76436">
        <ele>188.56</ele>
        <time>2012-04-22T10:57:30Z</time>
      </trkpt>
      <trkpt lat="44.40468" lon="4.76411">
        <ele>189.04</ele>
        <time>2012-04-22T10:57:35Z</time>
      </trkpt>
      <trkpt lat="44.40459" lon="4.76387">
        <ele>189.52</ele>
        <time>2012-04-22T10:57:40Z</time>
      </trkpt>
      <trkpt lat="44.4045" lon="4.7636">
        <ele>190.48</ele>
        <time>2012-04-22T10:57:45Z</time>
      </trkpt>
      <trkpt lat="44.40438" lon="4.76336">
        <ele>190.48</ele>
        <time>2012-04-22T10:57:50Z</time>
      </trkpt>
      <trkpt lat="44.4043" lon="4.7631">
        <ele>190.96</ele>
        <time>2012-04-22T10:57:55Z</time>
      </trkpt>
      <trkpt lat="44.40432" lon="4.76275">
        <ele>191.44</ele>
        <time>2012-04-22T10:58:00Z</time>
      </trkpt>
      <trkpt lat="44.40432" lon="4.76241">
        <ele>191.44</ele>
        <time>2012-04-22T10:58:05Z</time>
      </trkpt>
      <trkpt lat="44.40428" lon="4.76214">
        <ele>191.44</ele>
        <time>2012-04-22T10:58:10Z</time>
      </trkpt>
      <trkpt lat="44.40421" lon="4.76187">
        <ele>191.92</ele>
        <time>2012-04-22T10:58:15Z</time>
      </trkpt>
      <trkpt lat="44.40411" lon="4.76162">
        <ele>192.88</ele>
        <time>2012-04-22T10:58:20Z</time>
      </trkpt>
      <trkpt lat="44.404" lon="4.76136">
        <ele>193.36</ele>
        <time>2012-04-22T10:58:26Z</time>
      </trkpt>
      <trkpt lat="44.40391" lon="4.76109">
        <ele>193.84</ele>
        <time>2012-04-22T10:58:31Z</time>
      </trkpt>
      <trkpt lat="44.40386" lon="4.76079">
        <ele>194.8</ele>
        <time>2012-04-22T10:58:36Z</time>
      </trkpt>
      <trkpt lat="44.40382" lon="4.76051">
        <ele>194.32</ele>
        <time>2012-04-22T10:58:41Z</time>
      </trkpt>
      <trkpt lat="44.40374" lon="4.76024">
        <ele>194.8</ele>
        <time>2012-04-22T10:58:46Z</time>
      </trkpt>
      <trkpt lat="44.40365" lon="4.76">
        <ele>195.28</ele>
        <time>2012-04-22T10:58:51Z</time>
      </trkpt>
      <trkpt lat="44.40356" lon="4.75976">
        <ele>196.25</ele>
        <time>2012-04-22T10:58:56Z</time>
      </trkpt>
      <trkpt lat="44.40345" lon="4.75956">
        <ele>196.73</ele>
        <time>2012-04-22T10:59:01Z</time>
      </trkpt>
      <trkpt lat="44.40329" lon="4.75935">
        <ele>196.25</ele>
        <time>2012-04-22T10:59:07Z</time>
      </trkpt>
      <trkpt lat="44.40312" lon="4.7592">
        <ele>197.21</ele>
        <time>2012-04-22T10:59:13Z</time>
      </trkpt>
      <trkpt lat="44.40301" lon="4.759">
        <ele>200.09</ele>
        <time>2012-04-22T10:59:20Z</time>
      </trkpt>
      <trkpt lat="44.40285" lon="4.75886">
        <ele>200.09</ele>
        <time>2012-04-22T10:59:28Z</time>
      </trkpt>
      <trkpt lat="44.40266" lon="4.75876">
        <ele>200.57</ele>
        <time>2012-04-22T10:59:34Z</time>
      </trkpt>
      <trkpt lat="44.40249" lon="4.75862">
        <ele>198.65</ele>
        <time>2012-04-22T10:59:38Z</time>
      </trkpt>
      <trkpt lat="44.40232" lon="4.75844">
        <ele>198.17</ele>
        <time>2012-04-22T10:59:42Z</time>
      </trkpt>
      <trkpt lat="44.40216" lon="4.75825">
        <ele>198.17</ele>
        <time>2012-04-22T10:59:46Z</time>
      </trkpt>
      <trkpt lat="44.40204" lon="4.75802">
        <ele>197.21</ele>
        <time>2012-04-22T10:59:50Z</time>
      </trkpt>
      <trkpt lat="44.40192" lon="4.75781">
        <ele>196.73</ele>
        <time>2012-04-22T10:59:53Z</time>
      </trkpt>
      <trkpt lat="44.40178" lon="4.75759">
        <ele>195.28</ele>
        <time>2012-04-22T10:59:56Z</time>
      </trkpt>
      <trkpt lat="44.40163" lon="4.75736">
        <ele>193.36</ele>
        <time>2012-04-22T10:59:59Z</time>
      </trkpt>
      <trkpt lat="44.40146" lon="4.75716">
        <ele>192.4</ele>
        <time>2012-04-22T11:00:02Z</time>
      </trkpt>
      <trkpt lat="44.40127" lon="4.757">
        <ele>191.44</ele>
        <time>2012-04-22T11:00:05Z</time>
      </trkpt>
      <trkpt lat="44.40106" lon="4.75688">
        <ele>190.96</ele>
        <time>2012-04-22T11:00:08Z</time>
      </trkpt>
      <trkpt lat="44.40088" lon="4.75671">
        <ele>190.48</ele>
        <time>2012-04-22T11:00:11Z</time>
      </trkpt>
      <trkpt lat="44.40071" lon="4.7566">
        <ele>191.44</ele>
        <time>2012-04-22T11:00:14Z</time>
      </trkpt>
      <trkpt lat="44.40051" lon="4.75646">
        <ele>191.44</ele>
        <time>2012-04-22T11:00:18Z</time>
      </trkpt>
      <trkpt lat="44.4003" lon="4.7563">
        <ele>190.48</ele>
        <time>2012-04-22T11:00:22Z</time>
      </trkpt>
      <trkpt lat="44.40015" lon="4.75612">
        <ele>190.96</ele>
        <time>2012-04-22T11:00:25Z</time>
      </trkpt>
      <trkpt lat="44.39999" lon="4.75594">
        <ele>190</ele>
        <time>2012-04-22T11:00:28Z</time>
      </trkpt>
      <trkpt lat="44.39982" lon="4.75575">
        <ele>188.56</ele>
        <time>2012-04-22T11:00:31Z</time>
      </trkpt>
      <trkpt lat="44.39963" lon="4.75559">
        <ele>188.08</ele>
        <time>2012-04-22T11:00:34Z</time>
      </trkpt>
      <trkpt lat="44.39944" lon="4.75545">
        <ele>188.56</ele>
        <time>2012-04-22T11:00:37Z</time>
      </trkpt>
      <trkpt lat="44.39928" lon="4.75531">
        <ele>188.56</ele>
        <time>2012-04-22T11:00:40Z</time>
      </trkpt>
      <trkpt lat="44.39906" lon="4.7552">
        <ele>189.04</ele>
        <time>2012-04-22T11:00:44Z</time>
      </trkpt>
      <trkpt lat="44.39886" lon="4.75512">
        <ele>189.04</ele>
        <time>2012-04-22T11:00:48Z</time>
      </trkpt>
      <trkpt lat="44.39869" lon="4.75501">
        <ele>189.52</ele>
        <time>2012-04-22T11:00:52Z</time>
      </trkpt>
      <trkpt lat="44.39848" lon="4.75496">
        <ele>190.48</ele>
        <time>2012-04-22T11:00:57Z</time>
      </trkpt>
      <trkpt lat="44.39826" lon="4.75494">
        <ele>191.44</ele>
        <time>2012-04-22T11:01:02Z</time>
      </trkpt>
      <trkpt lat="44.39806" lon="4.75489">
        <ele>191.44</ele>
        <time>2012-04-22T11:01:07Z</time>
      </trkpt>
      <trkpt lat="44.39786" lon="4.75489">
        <ele>192.4</ele>
        <time>2012-04-22T11:01:12Z</time>
      </trkpt>
      <trkpt lat="44.39766" lon="4.75492">
        <ele>192.88</ele>
        <time>2012-04-22T11:01:18Z</time>
      </trkpt>
      <trkpt lat="44.39748" lon="4.75499">
        <ele>194.8</ele>
        <time>2012-04-22T11:01:25Z</time>
      </trkpt>
      <trkpt lat="44.39728" lon="4.75499">
        <ele>196.25</ele>
        <time>2012-04-22T11:01:33Z</time>
      </trkpt>
      <trkpt lat="44.39711" lon="4.75494">
        <ele>197.21</ele>
        <time>2012-04-22T11:01:41Z</time>
      </trkpt>
      <trkpt lat="44.39692" lon="4.75482">
        <ele>197.69</ele>
        <time>2012-04-22T11:01:48Z</time>
      </trkpt>
      <trkpt lat="44.39673" lon="4.75468">
        <ele>196.73</ele>
        <time>2012-04-22T11:01:53Z</time>
      </trkpt>
      <trkpt lat="44.39655" lon="4.75451">
        <ele>196.25</ele>
        <time>2012-04-22T11:01:57Z</time>
      </trkpt>
      <trkpt lat="44.39636" lon="4.75436">
        <ele>195.28</ele>
        <time>2012-04-22T11:02:01Z</time>
      </trkpt>
      <trkpt lat="44.39619" lon="4.75421">
        <ele>193.84</ele>
        <time>2012-04-22T11:02:04Z</time>
      </trkpt>
      <trkpt lat="44.396" lon="4.7541">
        <ele>192.4</ele>
        <time>2012-04-22T11:02:07Z</time>
      </trkpt>
      <trkpt lat="44.3958" lon="4.75408">
        <ele>191.44</ele>
        <time>2012-04-22T11:02:10Z</time>
      </trkpt>
      <trkpt lat="44.3956" lon="4.75401">
        <ele>190</ele>
        <time>2012-04-22T11:02:13Z</time>
      </trkpt>
      <trkpt lat="44.39542" lon="4.75388">
        <ele>189.52</ele>
        <time>2012-04-22T11:02:16Z</time>
      </trkpt>
      <trkpt lat="44.39523" lon="4.75369">
        <ele>189.04</ele>
        <time>2012-04-22T11:02:19Z</time>
      </trkpt>
      <trkpt lat="44.39502" lon="4.75356">
        <ele>187.11</ele>
        <time>2012-04-22T11:02:22Z</time>
      </trkpt>
      <trkpt lat="44.39481" lon="4.75347">
        <ele>186.63</ele>
        <time>2012-04-22T11:02:25Z</time>
      </trkpt>
      <trkpt lat="44.39462" lon="4.75338">
        <ele>187.11</ele>
        <time>2012-04-22T11:02:28Z</time>
      </trkpt>
      <trkpt lat="44.39442" lon="4.75327">
        <ele>186.15</ele>
        <time>2012-04-22T11:02:32Z</time>
      </trkpt>
      <trkpt lat="44.39425" lon="4.75316">
        <ele>185.19</ele>
        <time>2012-04-22T11:02:36Z</time>
      </trkpt>
      <trkpt lat="44.39418" lon="4.75292">
        <ele>184.23</ele>
        <time>2012-04-22T11:02:42Z</time>
      </trkpt>
      <trkpt lat="44.39406" lon="4.75274">
        <ele>182.31</ele>
        <time>2012-04-22T11:02:50Z</time>
      </trkpt>
      <trkpt lat="44.3939" lon="4.75265">
        <ele>180.87</ele>
        <time>2012-04-22T11:03:28Z</time>
      </trkpt>
      <trkpt lat="44.39373" lon="4.75249">
        <ele>180.38</ele>
        <time>2012-04-22T11:03:35Z</time>
      </trkpt>
      <trkpt lat="44.39358" lon="4.75233">
        <ele>179.42</ele>
        <time>2012-04-22T11:03:39Z</time>
      </trkpt>
      <trkpt lat="44.39342" lon="4.75212">
        <ele>177.98</ele>
        <time>2012-04-22T11:03:43Z</time>
      </trkpt>
      <trkpt lat="44.39325" lon="4.75196">
        <ele>175.58</ele>
        <time>2012-04-22T11:03:47Z</time>
      </trkpt>
      <trkpt lat="44.39303" lon="4.75191">
        <ele>173.17</ele>
        <time>2012-04-22T11:03:53Z</time>
      </trkpt>
      <trkpt lat="44.39284" lon="4.75198">
        <ele>174.62</ele>
        <time>2012-04-22T11:04:01Z</time>
      </trkpt>
      <trkpt lat="44.39265" lon="4.75206">
        <ele>174.14</ele>
        <time>2012-04-22T11:04:09Z</time>
      </trkpt>
      <trkpt lat="44.39247" lon="4.75213">
        <ele>174.14</ele>
        <time>2012-04-22T11:04:15Z</time>
      </trkpt>
      <trkpt lat="44.3923" lon="4.75228">
        <ele>173.66</ele>
        <time>2012-04-22T11:04:26Z</time>
      </trkpt>
      <trkpt lat="44.39219" lon="4.75249">
        <ele>178.94</ele>
        <time>2012-04-22T11:04:37Z</time>
      </trkpt>
      <trkpt lat="44.39214" lon="4.75274">
        <ele>182.79</ele>
        <time>2012-04-22T11:04:52Z</time>
      </trkpt>
      <trkpt lat="44.39216" lon="4.75302">
        <ele>184.23</ele>
        <time>2012-04-22T11:05:08Z</time>
      </trkpt>
      <trkpt lat="44.39224" lon="4.75327">
        <ele>185.19</ele>
        <time>2012-04-22T11:05:21Z</time>
      </trkpt>
      <trkpt lat="44.39234" lon="4.75352">
        <ele>184.23</ele>
        <time>2012-04-22T11:05:30Z</time>
      </trkpt>
      <trkpt lat="44.39246" lon="4.75379">
        <ele>183.75</ele>
        <time>2012-04-22T11:05:35Z</time>
      </trkpt>
      <trkpt lat="44.39257" lon="4.75397">
        <ele>185.19</ele>
        <time>2012-04-22T11:05:43Z</time>
      </trkpt>
      <trkpt lat="44.39259" lon="4.75392">
        <ele>186.15</ele>
        <time>2012-04-22T11:07:20Z</time>
      </trkpt>
      <trkpt lat="44.3925" lon="4.75366">
        <ele>187.59</ele>
        <time>2012-04-22T11:07:31Z</time>
      </trkpt>
      <trkpt lat="44.39241" lon="4.75342">
        <ele>189.04</ele>
        <time>2012-04-22T11:07:41Z</time>
      </trkpt>
      <trkpt lat="44.39257" lon="4.75329">
        <ele>190.48</ele>
        <time>2012-04-22T11:07:51Z</time>
      </trkpt>
      <trkpt lat="44.39272" lon="4.7532">
        <ele>191.44</ele>
        <time>2012-04-22T11:08:02Z</time>
      </trkpt>
      <trkpt lat="44.39267" lon="4.75293">
        <ele>190.96</ele>
        <time>2012-04-22T11:08:12Z</time>
      </trkpt>
      <trkpt lat="44.3927" lon="4.75264">
        <ele>191.92</ele>
        <time>2012-04-22T11:09:01Z</time>
      </trkpt>
      <trkpt lat="44.39275" lon="4.75236">
        <ele>190.96</ele>
        <time>2012-04-22T11:09:08Z</time>
      </trkpt>
      <trkpt lat="44.39287" lon="4.75235">
        <ele>190</ele>
        <time>2012-04-22T11:10:21Z</time>
      </trkpt>
      <trkpt lat="44.39294" lon="4.75256">
        <ele>192.4</ele>
        <time>2012-04-22T11:10:30Z</time>
      </trkpt>
      <trkpt lat="44.39306" lon="4.75273">
        <ele>193.36</ele>
        <time>2012-04-22T11:10:43Z</time>
      </trkpt>
      <trkpt lat="44.39322" lon="4.75287">
        <ele>191.92</ele>
        <time>2012-04-22T11:10:51Z</time>
      </trkpt>
      <trkpt lat="44.39331" lon="4.7531">
        <ele>192.88</ele>
        <time>2012-04-22T11:11:00Z</time>
      </trkpt>
      <trkpt lat="44.39342" lon="4.75333">
        <ele>193.84</ele>
        <time>2012-04-22T11:11:07Z</time>
      </trkpt>
      <trkpt lat="44.39348" lon="4.75357">
        <ele>193.36</ele>
        <time>2012-04-22T11:11:16Z</time>
      </trkpt>
      <trkpt lat="44.39353" lon="4.7538">
        <ele>193.36</ele>
        <time>2012-04-22T11:12:03Z</time>
      </trkpt>
      <trkpt lat="44.39343" lon="4.75402">
        <ele>192.4</ele>
        <time>2012-04-22T11:12:09Z</time>
      </trkpt>
      <trkpt lat="44.39332" lon="4.75426">
        <ele>191.92</ele>
        <time>2012-04-22T11:12:14Z</time>
      </trkpt>
      <trkpt lat="44.39326" lon="4.75451">
        <ele>190.96</ele>
        <time>2012-04-22T11:12:19Z</time>
      </trkpt>
      <trkpt lat="44.39329" lon="4.75481">
        <ele>190.96</ele>
        <time>2012-04-22T11:12:24Z</time>
      </trkpt>
      <trkpt lat="44.39336" lon="4.75498">
        <ele>191.44</ele>
        <time>2012-04-22T11:12:31Z</time>
      </trkpt>
      <trkpt lat="44.39349" lon="4.75483">
        <ele>190.96</ele>
        <time>2012-04-22T11:12:42Z</time>
      </trkpt>
      <trkpt lat="44.39379" lon="4.75421">
        <ele>192.88</ele>
        <time>2012-04-22T11:12:52Z</time>
      </trkpt>
      <trkpt lat="44.3941" lon="4.75393">
        <ele>193.84</ele>
        <time>2012-04-22T11:13:01Z</time>
      </trkpt>
    </trkseg>
  </trk>
</gpx>